Time,TemperatureF,DewpointF,PressureIn,WindDirection,WindDirectionDegrees,WindSpeedMPH,WindSpeedGustMPH,Humidity,HourlyPrecipIn,Conditions,Clouds,dailyrainin,SoftwareType,DateUTC
2013-10-06 00:00:00,52.2,46.5,29.85,NE,42,3.6,0.0,81,0.00,,,0.00,WeatherDisplay:10.36,2013-10-06 05:00:00,
2013-10-06 00:02:00,52.2,46.5,29.85,NE,41,3.5,0.0,81,0.00,,,0.00,WeatherDisplay:10.36,2013-10-06 05:02:00,
2013-10-06 00:03:00,52.2,46.5,29.85,NE,41,3.5,0.0,81,0.00,,,0.00,WeatherDisplay:10.36,2013-10-06 05:03:00,
2013-10-06 00:04:00,52.2,46.5,29.85,NE,42,3.5,0.0,81,0.00,,,0.00,WeatherDisplay:10.36,2013-10-06 05:04:00,
2013-10-06 00:05:00,52.2,46.5,29.85,NE,41,4.0,0.0,81,0.00,,,0.00,WeatherDisplay:10.36,2013-10-06 05:05:00,
2013-10-06 00:06:00,52.2,46.5,29.85,NE,43,3.5,3.5,81,0.00,,,0.00,WeatherDisplay:10.36,2013-10-06 05:06:00,
2013-10-06 00:08:00,52.2,46.5,29.85,NE,43,3.5,3.5,81,0.00,,,0.00,WeatherDisplay:10.36,2013-10-06 05:08:00,
2013-10-06 00:09:00,52.2,46.5,29.85,NE,40,5.8,5.8,81,0.00,,,0.00,WeatherDisplay:10.36,2013-10-06 05:09:00,
2013-10-06 00:10:00,52.2,46.5,29.85,NE,42,3.1,3.1,81,0.00,,,0.00,WeatherDisplay:10.36,2013-10-06 05:10:00,
2013-10-06 00:11:00,52.0,46.3,29.85,NE,40,3.5,0.0,81,0.00,,,0.00,WeatherDisplay:10.36,2013-10-06 05:11:00,
2013-10-06 00:12:00,52.0,46.3,29.85,NE,42,0.0,0.0,81,0.00,,,0.00,WeatherDisplay:10.36,2013-10-06 05:12:00,
2013-10-06 00:13:00,52.0,46.7,29.85,NE,40,0.0,0.0,82,0.00,,,0.00,WeatherDisplay:10.36,2013-10-06 05:13:00,
2013-10-06 00:15:00,52.0,46.7,29.85,NE,41,0.0,0.0,82,0.00,,,0.00,WeatherDisplay:10.36,2013-10-06 05:15:00,
2013-10-06 00:16:00,52.0,46.7,29.85,NE,41,0.0,0.0,82,0.00,,,0.00,WeatherDisplay:10.36,2013-10-06 05:16:00,
2013-10-06 00:17:00,52.0,46.7,29.85,NE,42,0.0,0.0,82,0.00,,,0.00,WeatherDisplay:10.36,2013-10-06 05:17:00,
2013-10-06 00:18:00,52.0,46.7,29.85,NE,40,0.0,0.0,82,0.00,,,0.00,WeatherDisplay:10.36,2013-10-06 05:18:00,
2013-10-06 00:19:00,52.0,46.7,29.85,NE,42,0.0,0.0,82,0.00,,,0.00,WeatherDisplay:10.36,2013-10-06 05:19:00,
2013-10-06 00:20:00,52.0,46.7,29.85,NE,40,2.7,0.0,82,0.00,,,0.00,WeatherDisplay:10.36,2013-10-06 05:20:00,
2013-10-06 00:21:00,52.0,46.7,29.85,NE,40,2.3,0.0,82,0.00,,,0.00,WeatherDisplay:10.36,2013-10-06 05:21:00,
2013-10-06 00:23:00,52.0,46.7,29.85,NE,41,0.0,0.0,82,0.00,,,0.00,WeatherDisplay:10.36,2013-10-06 05:23:00,
2013-10-06 00:24:00,52.0,46.7,29.85,NE,42,0.0,0.0,82,0.00,,,0.00,WeatherDisplay:10.36,2013-10-06 05:24:00,
2013-10-06 00:25:00,51.8,46.5,29.85,NE,40,0.0,0.0,82,0.00,,,0.00,WeatherDisplay:10.36,2013-10-06 05:25:00,
2013-10-06 00:26:00,51.8,46.5,29.85,NE,40,0.0,0.0,82,0.00,,,0.00,WeatherDisplay:10.36,2013-10-06 05:26:00,
2013-10-06 00:27:00,51.8,46.5,29.85,NE,42,0.0,0.0,82,0.00,,,0.00,WeatherDisplay:10.36,2013-10-06 05:27:00,
2013-10-06 00:28:00,51.8,46.5,29.85,NE,40,0.0,0.0,82,0.00,,,0.00,WeatherDisplay:10.36,2013-10-06 05:28:00,
2013-10-06 00:29:00,51.8,46.5,29.85,NE,41,3.6,0.0,82,0.00,,,0.00,WeatherDisplay:10.36,2013-10-06 05:29:00,
2013-10-06 00:31:00,51.8,46.5,29.85,NE,42,2.7,0.0,82,0.00,,,0.00,WeatherDisplay:10.36,2013-10-06 05:31:00,
2013-10-06 00:32:00,51.8,46.5,29.85,NE,43,0.0,0.0,82,0.00,,,0.00,WeatherDisplay:10.36,2013-10-06 05:32:00,
2013-10-06 00:33:00,51.8,46.5,29.85,NE,42,0.0,0.0,82,0.00,,,0.00,WeatherDisplay:10.36,2013-10-06 05:33:00,
2013-10-06 00:34:00,51.8,46.5,29.85,NE,43,0.0,0.0,82,0.00,,,0.00,WeatherDisplay:10.36,2013-10-06 05:34:00,
2013-10-06 00:35:00,51.8,46.5,29.85,NE,42,0.0,0.0,82,0.00,,,0.00,WeatherDisplay:10.36,2013-10-06 05:35:00,
2013-10-06 00:36:00,51.8,46.5,29.85,NE,42,0.0,0.0,82,0.00,,,0.00,WeatherDisplay:10.36,2013-10-06 05:36:00,
2013-10-06 00:37:00,51.8,46.5,29.85,NE,43,0.0,0.0,82,0.00,,,0.00,WeatherDisplay:10.36,2013-10-06 05:37:00,
2013-10-06 00:39:00,51.6,46.3,29.85,NE,42,0.0,0.0,82,0.00,,,0.00,WeatherDisplay:10.36,2013-10-06 05:39:00,
2013-10-06 00:40:00,51.6,46.3,29.85,NE,44,0.0,0.0,82,0.00,,,0.00,WeatherDisplay:10.36,2013-10-06 05:40:00,
2013-10-06 00:41:00,51.6,46.3,29.85,NE,44,2.7,0.0,82,0.00,,,0.00,WeatherDisplay:10.36,2013-10-06 05:41:00,
2013-10-06 00:42:00,51.6,46.3,29.85,NE,42,2.7,0.0,82,0.00,,,0.00,WeatherDisplay:10.36,2013-10-06 05:42:00,
2013-10-06 00:43:00,51.6,46.3,29.85,NE,42,2.7,0.0,82,0.00,,,0.00,WeatherDisplay:10.36,2013-10-06 05:43:00,
2013-10-06 00:44:00,51.6,46.3,29.85,NE,42,0.0,0.0,82,0.00,,,0.00,WeatherDisplay:10.36,2013-10-06 05:44:00,
2013-10-06 00:46:00,51.6,46.3,29.85,NE,44,3.6,0.0,82,0.00,,,0.00,WeatherDisplay:10.36,2013-10-06 05:46:00,
2013-10-06 00:47:00,51.6,46.3,29.85,NE,43,3.6,3.6,82,0.00,,,0.00,WeatherDisplay:10.36,2013-10-06 05:47:00,
2013-10-06 00:48:00,51.6,46.3,29.85,NE,41,3.6,0.0,82,0.00,,,0.00,WeatherDisplay:10.36,2013-10-06 05:48:00,
2013-10-06 00:49:00,51.6,46.3,29.85,NE,42,0.0,0.0,82,0.00,,,0.00,WeatherDisplay:10.36,2013-10-06 05:49:00,
2013-10-06 00:50:00,51.6,46.3,29.85,NE,41,0.0,0.0,82,0.00,,,0.00,WeatherDisplay:10.36,2013-10-06 05:50:00,
2013-10-06 00:51:00,51.4,46.1,29.85,NE,43,0.0,0.0,82,0.00,,,0.00,WeatherDisplay:10.36,2013-10-06 05:51:00,
2013-10-06 00:52:00,51.4,46.1,29.85,NE,43,0.0,0.0,82,0.00,,,0.00,WeatherDisplay:10.36,2013-10-06 05:52:00,
2013-10-06 00:54:00,51.4,46.1,29.85,NE,41,0.0,0.0,82,0.00,,,0.00,WeatherDisplay:10.36,2013-10-06 05:54:00,
2013-10-06 00:55:00,51.4,46.1,29.85,NE,42,0.0,0.0,82,0.00,,,0.00,WeatherDisplay:10.36,2013-10-06 05:55:00,
2013-10-06 00:56:00,51.4,46.1,29.85,NE,41,0.0,0.0,82,0.00,,,0.00,WeatherDisplay:10.36,2013-10-06 05:56:00,
2013-10-06 00:57:00,51.4,46.1,29.85,NE,42,3.5,0.0,82,0.00,,,0.00,WeatherDisplay:10.36,2013-10-06 05:57:00,
2013-10-06 00:58:00,51.4,46.1,29.85,NE,44,3.5,0.0,82,0.00,,,0.00,WeatherDisplay:10.36,2013-10-06 05:58:00,
2013-10-06 00:59:00,51.4,46.1,29.85,NE,42,3.5,0.0,82,0.00,,,0.00,WeatherDisplay:10.36,2013-10-06 05:59:00,
2013-10-06 01:00:00,51.3,46.0,29.85,NE,44,3.6,0.0,82,0.00,,,0.00,WeatherDisplay:10.36,2013-10-06 06:00:00,
2013-10-06 01:02:00,51.3,46.0,29.85,NE,44,3.5,3.5,82,0.00,,,0.00,WeatherDisplay:10.36,2013-10-06 06:02:00,
2013-10-06 01:03:00,51.3,46.0,29.85,NE,42,0.0,0.0,82,0.00,,,0.00,WeatherDisplay:10.36,2013-10-06 06:03:00,
2013-10-06 01:04:00,51.3,46.0,29.85,NE,43,0.0,0.0,82,0.00,,,0.00,WeatherDisplay:10.36,2013-10-06 06:04:00,
2013-10-06 01:05:00,51.3,46.0,29.85,NE,43,0.0,0.0,82,0.00,,,0.00,WeatherDisplay:10.36,2013-10-06 06:05:00,
2013-10-06 01:06:00,51.3,46.0,29.85,NE,44,0.0,0.0,82,0.00,,,0.00,WeatherDisplay:10.36,2013-10-06 06:06:00,
2013-10-06 01:07:00,51.3,46.0,29.85,NE,42,3.6,0.0,82,0.00,,,0.00,WeatherDisplay:10.36,2013-10-06 06:07:00,
2013-10-06 01:09:00,51.3,46.0,29.85,NE,42,3.5,0.0,82,0.00,,,0.00,WeatherDisplay:10.36,2013-10-06 06:09:00,
2013-10-06 01:10:00,51.1,45.8,29.85,NE,44,2.7,0.0,82,0.00,,,0.00,WeatherDisplay:10.36,2013-10-06 06:10:00,
2013-10-06 01:11:00,51.1,45.8,29.85,NE,44,4.0,4.0,82,0.00,,,0.00,WeatherDisplay:10.36,2013-10-06 06:11:00,
2013-10-06 01:12:00,51.1,45.8,29.85,NE,44,3.6,0.0,82,0.00,,,0.00,WeatherDisplay:10.36,2013-10-06 06:12:00,
2013-10-06 01:13:00,51.1,45.8,29.85,NE,41,6.3,0.0,82,0.00,,,0.00,WeatherDisplay:10.36,2013-10-06 06:13:00,
2013-10-06 01:14:00,51.1,45.8,29.85,NE,41,5.8,0.0,82,0.00,,,0.00,WeatherDisplay:10.36,2013-10-06 06:14:00,
2013-10-06 01:16:00,51.1,45.8,29.85,NE,44,4.6,4.6,82,0.00,,,0.00,WeatherDisplay:10.36,2013-10-06 06:16:00,
2013-10-06 01:17:00,51.1,45.8,29.85,NE,46,3.5,3.5,82,0.00,,,0.00,WeatherDisplay:10.36,2013-10-06 06:17:00,
2013-10-06 01:18:00,51.1,45.8,29.85,NE,46,3.6,0.0,82,0.00,,,0.00,WeatherDisplay:10.36,2013-10-06 06:18:00,
2013-10-06 01:19:00,50.9,45.6,29.85,NE,42,3.6,3.6,82,0.00,,,0.00,WeatherDisplay:10.36,2013-10-06 06:19:00,
2013-10-06 01:20:00,50.9,45.6,29.85,NE,46,3.6,0.0,82,0.00,,,0.00,WeatherDisplay:10.36,2013-10-06 06:20:00,
2013-10-06 01:21:00,50.9,45.6,29.85,NE,43,3.6,0.0,82,0.00,,,0.00,WeatherDisplay:10.36,2013-10-06 06:21:00,
2013-10-06 01:22:00,50.9,45.6,29.85,NE,43,3.6,0.0,82,0.00,,,0.00,WeatherDisplay:10.36,2013-10-06 06:22:00,
2013-10-06 01:24:00,50.9,45.6,29.85,NE,43,3.5,0.0,82,0.00,,,0.00,WeatherDisplay:10.36,2013-10-06 06:24:00,
2013-10-06 01:25:00,50.9,45.6,29.85,NE,45,0.0,0.0,82,0.00,,,0.00,WeatherDisplay:10.36,2013-10-06 06:25:00,
2013-10-06 01:26:00,50.9,45.6,29.85,NE,42,4.6,0.0,82,0.00,,,0.00,WeatherDisplay:10.36,2013-10-06 06:26:00,
2013-10-06 01:27:00,50.9,45.9,29.85,NE,42,3.6,3.6,83,0.00,,,0.00,WeatherDisplay:10.36,2013-10-06 06:27:00,
2013-10-06 01:28:00,50.9,45.9,29.85,NE,44,0.0,0.0,83,0.00,,,0.00,WeatherDisplay:10.36,2013-10-06 06:28:00,
2013-10-06 01:29:00,50.7,45.7,29.85,NE,44,3.1,0.0,83,0.00,,,0.00,WeatherDisplay:10.36,2013-10-06 06:29:00,
2013-10-06 01:31:00,50.7,45.7,29.85,NE,42,4.9,4.9,83,0.00,,,0.00,WeatherDisplay:10.36,2013-10-06 06:31:00,
2013-10-06 01:32:00,50.7,45.7,29.85,NE,43,3.5,3.5,83,0.00,,,0.00,WeatherDisplay:10.36,2013-10-06 06:32:00,
2013-10-06 01:33:00,50.7,45.7,29.85,NE,43,2.7,0.0,83,0.00,,,0.00,WeatherDisplay:10.36,2013-10-06 06:33:00,
2013-10-06 01:34:00,50.7,45.7,29.85,NE,42,3.1,0.0,83,0.00,,,0.00,WeatherDisplay:10.36,2013-10-06 06:34:00,
2013-10-06 01:35:00,50.7,45.7,29.85,NE,44,0.0,0.0,83,0.00,,,0.00,WeatherDisplay:10.36,2013-10-06 06:35:00,
2013-10-06 01:36:00,50.7,45.7,29.85,NE,42,0.0,0.0,83,0.00,,,0.00,WeatherDisplay:10.36,2013-10-06 06:36:00,
2013-10-06 01:37:00,50.7,45.7,29.85,NE,42,0.0,0.0,83,0.00,,,0.00,WeatherDisplay:10.36,2013-10-06 06:37:00,
2013-10-06 01:39:00,50.7,45.7,29.82,NE,43,0.0,0.0,83,0.00,,,0.00,WeatherDisplay:10.36,2013-10-06 06:39:00,
2013-10-06 01:40:00,50.7,45.7,29.82,NE,43,4.0,0.0,83,0.00,,,0.00,WeatherDisplay:10.36,2013-10-06 06:40:00,
2013-10-06 01:41:00,50.7,45.7,29.82,NE,42,3.6,0.0,83,0.00,,,0.00,WeatherDisplay:10.36,2013-10-06 06:41:00,
2013-10-06 01:42:00,50.7,45.7,29.82,NE,43,0.0,0.0,83,0.00,,,0.00,WeatherDisplay:10.36,2013-10-06 06:42:00,
2013-10-06 01:43:00,50.7,45.7,29.82,NE,44,3.5,0.0,83,0.00,,,0.00,WeatherDisplay:10.36,2013-10-06 06:43:00,
2013-10-06 01:44:00,50.5,45.6,29.82,NE,44,3.5,0.0,83,0.00,,,0.00,WeatherDisplay:10.36,2013-10-06 06:44:00,
2013-10-06 01:45:00,50.5,45.6,29.82,NE,45,0.0,0.0,83,0.00,,,0.00,WeatherDisplay:10.36,2013-10-06 06:45:00,
2013-10-06 01:47:00,50.5,45.6,29.82,NE,45,0.0,0.0,83,0.00,,,0.00,WeatherDisplay:10.36,2013-10-06 06:47:00,
2013-10-06 01:48:00,50.5,45.6,29.82,NE,44,0.0,0.0,83,0.00,,,0.00,WeatherDisplay:10.36,2013-10-06 06:48:00,
2013-10-06 01:49:00,50.5,45.6,29.82,NE,44,0.0,0.0,83,0.00,,,0.00,WeatherDisplay:10.36,2013-10-06 06:49:00,
2013-10-06 01:50:00,50.5,45.6,29.82,NE,44,0.0,0.0,83,0.00,,,0.00,WeatherDisplay:10.36,2013-10-06 06:50:00,
2013-10-06 01:51:00,50.5,45.6,29.82,NE,45,0.0,0.0,83,0.00,,,0.00,WeatherDisplay:10.36,2013-10-06 06:51:00,
2013-10-06 01:52:00,50.5,45.6,29.82,NE,46,0.0,0.0,83,0.00,,,0.00,WeatherDisplay:10.36,2013-10-06 06:52:00,
2013-10-06 01:54:00,50.5,45.6,29.82,NE,46,0.0,0.0,83,0.00,,,0.00,WeatherDisplay:10.36,2013-10-06 06:54:00,
2013-10-06 01:55:00,50.5,45.6,29.82,NE,45,0.0,0.0,83,0.00,,,0.00,WeatherDisplay:10.36,2013-10-06 06:55:00,
2013-10-06 01:56:00,50.5,45.2,29.82,NE,44,0.0,0.0,82,0.00,,,0.00,WeatherDisplay:10.36,2013-10-06 06:56:00,
2013-10-06 01:57:00,50.5,45.2,29.82,NE,44,0.0,0.0,82,0.00,,,0.00,WeatherDisplay:10.36,2013-10-06 06:57:00,
2013-10-06 01:58:00,50.5,45.2,29.82,NE,44,0.0,0.0,82,0.00,,,0.00,WeatherDisplay:10.36,2013-10-06 06:58:00,
2013-10-06 01:59:00,50.5,45.2,29.82,NE,45,0.0,0.0,82,0.00,,,0.00,WeatherDisplay:10.36,2013-10-06 06:59:00,
2013-10-06 02:00:00,50.5,45.2,29.82,NE,45,0.0,0.0,82,0.00,,,0.00,WeatherDisplay:10.36,2013-10-06 07:00:00,
2013-10-06 02:02:00,50.5,45.2,29.82,NE,45,0.0,0.0,82,0.00,,,0.00,WeatherDisplay:10.36,2013-10-06 07:02:00,
2013-10-06 02:03:00,50.4,45.1,29.82,NE,45,0.0,0.0,82,0.00,,,0.00,WeatherDisplay:10.36,2013-10-06 07:03:00,
2013-10-06 02:04:00,50.4,45.1,29.82,NE,45,0.0,0.0,82,0.00,,,0.00,WeatherDisplay:10.36,2013-10-06 07:04:00,
2013-10-06 02:05:00,50.4,45.1,29.82,NE,44,0.0,0.0,82,0.00,,,0.00,WeatherDisplay:10.36,2013-10-06 07:05:00,
2013-10-06 02:06:00,50.4,45.1,29.82,NE,43,0.0,0.0,82,0.00,,,0.00,WeatherDisplay:10.36,2013-10-06 07:06:00,
2013-10-06 02:07:00,50.4,45.1,29.82,NE,45,0.0,0.0,82,0.00,,,0.00,WeatherDisplay:10.36,2013-10-06 07:07:00,
2013-10-06 02:09:00,50.4,45.1,29.82,NE,44,0.0,0.0,82,0.00,,,0.00,WeatherDisplay:10.36,2013-10-06 07:09:00,
2013-10-06 02:10:00,50.4,45.1,29.82,NE,44,0.0,0.0,82,0.00,,,0.00,WeatherDisplay:10.36,2013-10-06 07:10:00,
2013-10-06 02:11:00,50.4,45.1,29.82,NE,45,0.0,0.0,82,0.00,,,0.00,WeatherDisplay:10.36,2013-10-06 07:11:00,
2013-10-06 02:12:00,50.4,45.1,29.82,NE,44,0.0,0.0,82,0.00,,,0.00,WeatherDisplay:10.36,2013-10-06 07:12:00,
2013-10-06 02:13:00,50.4,45.1,29.82,NE,45,0.0,0.0,82,0.00,,,0.00,WeatherDisplay:10.36,2013-10-06 07:13:00,
2013-10-06 02:14:00,50.4,45.1,29.82,NE,44,0.0,0.0,82,0.00,,,0.00,WeatherDisplay:10.36,2013-10-06 07:14:00,
2013-10-06 02:15:00,50.4,45.1,29.82,NE,44,0.0,0.0,82,0.00,,,0.00,WeatherDisplay:10.36,2013-10-06 07:15:00,
2013-10-06 02:17:00,50.4,45.1,29.82,NE,46,0.0,0.0,82,0.00,,,0.00,WeatherDisplay:10.36,2013-10-06 07:17:00,
2013-10-06 02:18:00,50.2,44.9,29.82,NE,44,0.0,0.0,82,0.00,,,0.00,WeatherDisplay:10.36,2013-10-06 07:18:00,
2013-10-06 02:19:00,50.2,44.9,29.82,NE,46,0.0,0.0,82,0.00,,,0.00,WeatherDisplay:10.36,2013-10-06 07:19:00,
2013-10-06 02:20:00,50.2,44.9,29.82,NE,46,0.0,0.0,82,0.00,,,0.00,WeatherDisplay:10.36,2013-10-06 07:20:00,
2013-10-06 02:21:00,50.2,44.9,29.82,NE,43,0.0,0.0,82,0.00,,,0.00,WeatherDisplay:10.36,2013-10-06 07:21:00,
2013-10-06 02:22:00,50.2,44.9,29.82,NE,44,0.0,0.0,82,0.00,,,0.00,WeatherDisplay:10.36,2013-10-06 07:22:00,
2013-10-06 02:24:00,50.2,44.9,29.82,NE,44,0.0,0.0,82,0.00,,,0.00,WeatherDisplay:10.36,2013-10-06 07:24:00,
2013-10-06 02:25:00,50.2,44.9,29.82,NE,43,0.0,0.0,82,0.00,,,0.00,WeatherDisplay:10.36,2013-10-06 07:25:00,
2013-10-06 02:26:00,50.2,44.9,29.82,NE,43,0.0,0.0,82,0.00,,,0.00,WeatherDisplay:10.36,2013-10-06 07:26:00,
2013-10-06 02:27:00,50.0,44.7,29.82,NE,44,0.0,0.0,82,0.00,,,0.00,WeatherDisplay:10.36,2013-10-06 07:27:00,
2013-10-06 02:28:00,50.0,44.7,29.82,NE,44,0.0,0.0,82,0.00,,,0.00,WeatherDisplay:10.36,2013-10-06 07:28:00,
2013-10-06 02:29:00,50.0,44.4,29.82,NE,44,0.0,0.0,81,0.00,,,0.00,WeatherDisplay:10.36,2013-10-06 07:29:00,
2013-10-06 02:30:00,50.0,44.4,29.82,NE,44,0.0,0.0,81,0.00,,,0.00,WeatherDisplay:10.36,2013-10-06 07:30:00,
2013-10-06 02:32:00,50.0,44.4,29.82,NE,43,0.0,0.0,81,0.00,,,0.00,WeatherDisplay:10.36,2013-10-06 07:32:00,
2013-10-06 02:33:00,49.8,44.2,29.82,NE,44,0.0,0.0,81,0.00,,,0.00,WeatherDisplay:10.36,2013-10-06 07:33:00,
2013-10-06 02:34:00,49.8,44.2,29.82,NE,43,0.0,0.0,81,0.00,,,0.00,WeatherDisplay:10.36,2013-10-06 07:34:00,
2013-10-06 02:35:00,49.8,44.2,29.82,NE,43,0.0,0.0,81,0.00,,,0.00,WeatherDisplay:10.36,2013-10-06 07:35:00,
2013-10-06 02:36:00,49.8,44.2,29.82,NE,44,0.0,0.0,81,0.00,,,0.00,WeatherDisplay:10.36,2013-10-06 07:36:00,
2013-10-06 02:37:00,49.8,44.2,29.82,NE,43,0.0,0.0,81,0.00,,,0.00,WeatherDisplay:10.36,2013-10-06 07:37:00,
2013-10-06 02:39:00,49.8,44.2,29.82,NE,43,0.0,0.0,81,0.00,,,0.00,WeatherDisplay:10.36,2013-10-06 07:39:00,
2013-10-06 02:40:00,49.8,44.2,29.82,NE,44,0.0,0.0,81,0.00,,,0.00,WeatherDisplay:10.36,2013-10-06 07:40:00,
2013-10-06 02:41:00,49.6,44.0,29.82,NE,43,0.0,0.0,81,0.00,,,0.00,WeatherDisplay:10.36,2013-10-06 07:41:00,
2013-10-06 02:42:00,49.6,44.0,29.82,NE,43,0.0,0.0,81,0.00,,,0.00,WeatherDisplay:10.36,2013-10-06 07:42:00,
2013-10-06 02:43:00,49.6,44.0,29.82,NE,44,0.0,0.0,81,0.00,,,0.00,WeatherDisplay:10.36,2013-10-06 07:43:00,
2013-10-06 02:44:00,49.6,44.0,29.82,NE,44,0.0,0.0,81,0.00,,,0.00,WeatherDisplay:10.36,2013-10-06 07:44:00,
2013-10-06 02:45:00,49.6,44.0,29.82,NE,44,0.0,0.0,81,0.00,,,0.00,WeatherDisplay:10.36,2013-10-06 07:45:00,
2013-10-06 02:47:00,49.6,44.0,29.82,NE,45,0.0,0.0,81,0.00,,,0.00,WeatherDisplay:10.36,2013-10-06 07:47:00,
2013-10-06 02:48:00,49.6,44.0,29.82,NE,43,0.0,0.0,81,0.00,,,0.00,WeatherDisplay:10.36,2013-10-06 07:48:00,
2013-10-06 02:49:00,49.5,43.9,29.82,NE,43,0.0,0.0,81,0.00,,,0.00,WeatherDisplay:10.36,2013-10-06 07:49:00,
2013-10-06 02:50:00,49.5,43.9,29.82,NE,44,0.0,0.0,81,0.00,,,0.00,WeatherDisplay:10.36,2013-10-06 07:50:00,
2013-10-06 02:51:00,49.5,43.9,29.82,NE,43,0.0,0.0,81,0.00,,,0.00,WeatherDisplay:10.36,2013-10-06 07:51:00,
2013-10-06 02:52:00,49.5,43.9,29.82,NE,43,0.0,0.0,81,0.00,,,0.00,WeatherDisplay:10.36,2013-10-06 07:52:00,
2013-10-06 02:54:00,49.5,43.9,29.82,NE,44,0.0,0.0,81,0.00,,,0.00,WeatherDisplay:10.36,2013-10-06 07:54:00,
2013-10-06 02:55:00,49.5,43.9,29.82,NE,43,0.0,0.0,81,0.00,,,0.00,WeatherDisplay:10.36,2013-10-06 07:55:00,
2013-10-06 02:56:00,49.3,43.7,29.82,NE,43,0.0,0.0,81,0.00,,,0.00,WeatherDisplay:10.36,2013-10-06 07:56:00,
2013-10-06 02:57:00,49.3,43.7,29.82,NE,43,0.0,0.0,81,0.00,,,0.00,WeatherDisplay:10.36,2013-10-06 07:57:00,
2013-10-06 02:58:00,49.3,43.7,29.82,NE,44,0.0,0.0,81,0.00,,,0.00,WeatherDisplay:10.36,2013-10-06 07:58:00,
2013-10-06 02:59:00,49.3,43.7,29.82,NE,44,0.0,0.0,81,0.00,,,0.00,WeatherDisplay:10.36,2013-10-06 07:59:00,
2013-10-06 03:00:00,49.3,43.7,29.82,NE,43,0.0,0.0,81,0.00,,,0.00,WeatherDisplay:10.36,2013-10-06 08:00:00,
2013-10-06 03:02:00,49.3,43.7,29.82,NE,45,0.0,0.0,81,0.00,,,0.00,WeatherDisplay:10.36,2013-10-06 08:02:00,
2013-10-06 03:03:00,49.3,43.7,29.82,NE,43,0.0,0.0,81,0.00,,,0.00,WeatherDisplay:10.36,2013-10-06 08:03:00,
2013-10-06 03:04:00,49.1,43.5,29.82,NE,44,0.0,0.0,81,0.00,,,0.00,WeatherDisplay:10.36,2013-10-06 08:04:00,
2013-10-06 03:05:00,49.1,43.5,29.82,NE,44,0.0,0.0,81,0.00,,,0.00,WeatherDisplay:10.36,2013-10-06 08:05:00,
2013-10-06 03:06:00,49.1,43.5,29.82,NE,44,0.0,0.0,81,0.00,,,0.00,WeatherDisplay:10.36,2013-10-06 08:06:00,
2013-10-06 03:07:00,49.1,43.5,29.82,NE,45,0.0,0.0,81,0.00,,,0.00,WeatherDisplay:10.36,2013-10-06 08:07:00,
2013-10-06 03:09:00,49.1,43.5,29.82,NE,44,0.0,0.0,81,0.00,,,0.00,WeatherDisplay:10.36,2013-10-06 08:09:00,
2013-10-06 03:10:00,49.1,43.2,29.82,NE,45,0.0,0.0,80,0.00,,,0.00,WeatherDisplay:10.36,2013-10-06 08:10:00,
2013-10-06 03:11:00,49.1,43.5,29.82,NE,43,0.0,0.0,81,0.00,,,0.00,WeatherDisplay:10.36,2013-10-06 08:11:00,
2013-10-06 03:12:00,49.1,43.5,29.82,NE,45,0.0,0.0,81,0.00,,,0.00,WeatherDisplay:10.36,2013-10-06 08:12:00,
2013-10-06 03:13:00,49.1,43.5,29.82,NE,43,0.0,0.0,81,0.00,,,0.00,WeatherDisplay:10.36,2013-10-06 08:13:00,
2013-10-06 03:14:00,49.1,43.5,29.82,NE,43,0.0,0.0,81,0.00,,,0.00,WeatherDisplay:10.36,2013-10-06 08:14:00,
2013-10-06 03:15:00,48.9,43.3,29.82,NE,44,0.0,0.0,81,0.00,,,0.00,WeatherDisplay:10.36,2013-10-06 08:15:00,
2013-10-06 03:17:00,48.9,43.3,29.82,NE,43,0.0,0.0,81,0.00,,,0.00,WeatherDisplay:10.36,2013-10-06 08:17:00,
2013-10-06 03:18:00,48.9,43.3,29.82,NE,45,0.0,0.0,81,0.00,,,0.00,WeatherDisplay:10.36,2013-10-06 08:18:00,
2013-10-06 03:19:00,48.9,43.3,29.82,NE,44,0.0,0.0,81,0.00,,,0.00,WeatherDisplay:10.36,2013-10-06 08:19:00,
2013-10-06 03:20:00,48.9,43.3,29.82,NE,45,0.0,0.0,81,0.00,,,0.00,WeatherDisplay:10.36,2013-10-06 08:20:00,
2013-10-06 03:21:00,48.9,43.3,29.82,NE,43,0.0,0.0,81,0.00,,,0.00,WeatherDisplay:10.36,2013-10-06 08:21:00,
2013-10-06 03:22:00,48.9,43.3,29.82,NE,44,0.0,0.0,81,0.00,,,0.00,WeatherDisplay:10.36,2013-10-06 08:22:00,
2013-10-06 03:23:00,48.9,43.3,29.82,NE,43,0.0,0.0,81,0.00,,,0.00,WeatherDisplay:10.36,2013-10-06 08:23:00,
2013-10-06 03:25:00,48.9,43.3,29.82,NE,43,0.0,0.0,81,0.00,,,0.00,WeatherDisplay:10.36,2013-10-06 08:25:00,
2013-10-06 03:26:00,48.9,43.3,29.82,NE,45,0.0,0.0,81,0.00,,,0.00,WeatherDisplay:10.36,2013-10-06 08:26:00,
2013-10-06 03:27:00,48.9,43.3,29.82,NE,45,0.0,0.0,81,0.00,,,0.00,WeatherDisplay:10.36,2013-10-06 08:27:00,
2013-10-06 03:28:00,48.9,43.3,29.82,NE,44,0.0,0.0,81,0.00,,,0.00,WeatherDisplay:10.36,2013-10-06 08:28:00,
2013-10-06 03:29:00,48.9,43.3,29.82,NE,43,0.0,0.0,81,0.00,,,0.00,WeatherDisplay:10.36,2013-10-06 08:29:00,
2013-10-06 03:30:00,48.9,43.3,29.82,NE,44,0.0,0.0,81,0.00,,,0.00,WeatherDisplay:10.36,2013-10-06 08:30:00,
2013-10-06 03:32:00,48.9,43.3,29.82,NE,43,0.0,0.0,81,0.00,,,0.00,WeatherDisplay:10.36,2013-10-06 08:32:00,
2013-10-06 03:33:00,48.9,43.3,29.82,NE,45,0.0,0.0,81,0.00,,,0.00,WeatherDisplay:10.36,2013-10-06 08:33:00,
2013-10-06 03:34:00,48.9,43.3,29.82,NE,45,0.0,0.0,81,0.00,,,0.00,WeatherDisplay:10.36,2013-10-06 08:34:00,
2013-10-06 03:35:00,48.7,43.2,29.82,NE,43,0.0,0.0,81,0.00,,,0.00,WeatherDisplay:10.36,2013-10-06 08:35:00,
2013-10-06 03:36:00,48.7,43.2,29.82,NE,45,0.0,0.0,81,0.00,,,0.00,WeatherDisplay:10.36,2013-10-06 08:36:00,
2013-10-06 03:37:00,48.7,43.2,29.82,NE,45,0.0,0.0,81,0.00,,,0.00,WeatherDisplay:10.36,2013-10-06 08:37:00,
2013-10-06 03:38:00,48.7,42.8,29.82,NE,44,0.0,0.0,80,0.00,,,0.00,WeatherDisplay:10.36,2013-10-06 08:38:00,
2013-10-06 03:40:00,48.7,42.8,29.82,NE,43,0.0,0.0,80,0.00,,,0.00,WeatherDisplay:10.36,2013-10-06 08:40:00,
2013-10-06 03:41:00,48.7,42.8,29.82,NE,43,0.0,0.0,80,0.00,,,0.00,WeatherDisplay:10.36,2013-10-06 08:41:00,
2013-10-06 03:42:00,48.7,42.8,29.82,NE,44,0.0,0.0,80,0.00,,,0.00,WeatherDisplay:10.36,2013-10-06 08:42:00,
2013-10-06 03:43:00,48.7,42.8,29.82,NE,45,0.0,0.0,80,0.00,,,0.00,WeatherDisplay:10.36,2013-10-06 08:43:00,
2013-10-06 03:44:00,48.7,42.8,29.82,NE,44,0.0,0.0,80,0.00,,,0.00,WeatherDisplay:10.36,2013-10-06 08:44:00,
2013-10-06 03:45:00,48.7,42.8,29.82,NE,44,0.0,0.0,80,0.00,,,0.00,WeatherDisplay:10.36,2013-10-06 08:45:00,
2013-10-06 03:47:00,48.7,42.8,29.82,NE,43,0.0,0.0,80,0.00,,,0.00,WeatherDisplay:10.36,2013-10-06 08:47:00,
2013-10-06 03:48:00,48.7,42.8,29.82,NE,43,0.0,0.0,80,0.00,,,0.00,WeatherDisplay:10.36,2013-10-06 08:48:00,
2013-10-06 03:49:00,48.7,42.8,29.82,NE,44,0.0,0.0,80,0.00,,,0.00,WeatherDisplay:10.36,2013-10-06 08:49:00,
2013-10-06 03:50:00,48.6,42.7,29.82,NE,45,0.0,0.0,80,0.00,,,0.00,WeatherDisplay:10.36,2013-10-06 08:50:00,
2013-10-06 03:51:00,48.6,42.7,29.82,NE,44,0.0,0.0,80,0.00,,,0.00,WeatherDisplay:10.36,2013-10-06 08:51:00,
2013-10-06 03:52:00,48.6,42.7,29.82,NE,45,0.0,0.0,80,0.00,,,0.00,WeatherDisplay:10.36,2013-10-06 08:52:00,
2013-10-06 03:54:00,48.6,42.7,29.82,NE,45,0.0,0.0,80,0.00,,,0.00,WeatherDisplay:10.36,2013-10-06 08:54:00,
2013-10-06 03:55:00,48.6,42.7,29.82,NE,44,0.0,0.0,80,0.00,,,0.00,WeatherDisplay:10.36,2013-10-06 08:55:00,
2013-10-06 03:56:00,48.6,42.7,29.82,NE,43,0.0,0.0,80,0.00,,,0.00,WeatherDisplay:10.36,2013-10-06 08:56:00,
2013-10-06 03:57:00,48.6,42.7,29.82,NE,44,0.0,0.0,80,0.00,,,0.00,WeatherDisplay:10.36,2013-10-06 08:57:00,
2013-10-06 03:58:00,48.6,42.7,29.82,NE,44,0.0,0.0,80,0.00,,,0.00,WeatherDisplay:10.36,2013-10-06 08:58:00,
2013-10-06 03:59:00,48.6,42.7,29.82,NE,43,0.0,0.0,80,0.00,,,0.00,WeatherDisplay:10.36,2013-10-06 08:59:00,
2013-10-06 04:00:00,48.4,42.5,29.82,NE,45,0.0,0.0,80,0.00,,,0.00,WeatherDisplay:10.36,2013-10-06 09:00:00,
2013-10-06 04:02:00,48.4,42.5,29.82,NE,44,0.0,0.0,80,0.00,,,0.00,WeatherDisplay:10.36,2013-10-06 09:02:00,
2013-10-06 04:03:00,48.4,42.5,29.82,NE,44,0.0,0.0,80,0.00,,,0.00,WeatherDisplay:10.36,2013-10-06 09:03:00,
2013-10-06 04:04:00,48.4,42.5,29.82,NE,45,0.0,0.0,80,0.00,,,0.00,WeatherDisplay:10.36,2013-10-06 09:04:00,
2013-10-06 04:05:00,48.4,42.5,29.82,NE,44,0.0,0.0,80,0.00,,,0.00,WeatherDisplay:10.36,2013-10-06 09:05:00,
2013-10-06 04:06:00,48.2,42.3,29.82,NE,44,0.0,0.0,80,0.00,,,0.00,WeatherDisplay:10.36,2013-10-06 09:06:00,
2013-10-06 04:07:00,48.2,42.3,29.82,NE,45,0.0,0.0,80,0.00,,,0.00,WeatherDisplay:10.36,2013-10-06 09:07:00,
2013-10-06 04:09:00,48.2,42.3,29.82,NE,45,0.0,0.0,80,0.00,,,0.00,WeatherDisplay:10.36,2013-10-06 09:09:00,
2013-10-06 04:10:00,48.2,42.3,29.82,NE,44,0.0,0.0,80,0.00,,,0.00,WeatherDisplay:10.36,2013-10-06 09:10:00,
2013-10-06 04:11:00,48.2,42.3,29.82,NE,43,0.0,0.0,80,0.00,,,0.00,WeatherDisplay:10.36,2013-10-06 09:11:00,
2013-10-06 04:12:00,48.0,42.1,29.82,NE,45,0.0,0.0,80,0.00,,,0.00,WeatherDisplay:10.36,2013-10-06 09:12:00,
2013-10-06 04:13:00,48.0,42.1,29.82,NE,45,0.0,0.0,80,0.00,,,0.00,WeatherDisplay:10.36,2013-10-06 09:13:00,
2013-10-06 04:14:00,48.0,42.1,29.82,NE,44,0.0,0.0,80,0.00,,,0.00,WeatherDisplay:10.36,2013-10-06 09:14:00,
2013-10-06 04:15:00,48.0,42.1,29.82,NE,45,0.0,0.0,80,0.00,,,0.00,WeatherDisplay:10.36,2013-10-06 09:15:00,
2013-10-06 04:17:00,48.0,42.1,29.82,NE,44,0.0,0.0,80,0.00,,,0.00,WeatherDisplay:10.36,2013-10-06 09:17:00,
2013-10-06 04:18:00,48.0,42.1,29.82,NE,44,0.0,0.0,80,0.00,,,0.00,WeatherDisplay:10.36,2013-10-06 09:18:00,
2013-10-06 04:19:00,48.0,42.1,29.82,NE,43,0.0,0.0,80,0.00,,,0.00,WeatherDisplay:10.36,2013-10-06 09:19:00,
2013-10-06 04:20:00,48.0,42.1,29.82,NE,44,0.0,0.0,80,0.00,,,0.00,WeatherDisplay:10.36,2013-10-06 09:20:00,
2013-10-06 04:21:00,47.8,42.0,29.82,NE,46,0.0,0.0,80,0.00,,,0.00,WeatherDisplay:10.36,2013-10-06 09:21:00,
2013-10-06 04:22:00,47.8,42.0,29.82,NE,44,0.0,0.0,80,0.00,,,0.00,WeatherDisplay:10.36,2013-10-06 09:22:00,
2013-10-06 04:23:00,47.8,42.0,29.82,NE,45,0.0,0.0,80,0.00,,,0.00,WeatherDisplay:10.36,2013-10-06 09:23:00,
2013-10-06 04:25:00,47.8,42.0,29.82,NE,45,0.0,0.0,80,0.00,,,0.00,WeatherDisplay:10.36,2013-10-06 09:25:00,
2013-10-06 04:26:00,47.8,42.0,29.82,NE,44,0.0,0.0,80,0.00,,,0.00,WeatherDisplay:10.36,2013-10-06 09:26:00,
2013-10-06 04:27:00,47.8,42.0,29.82,NE,45,0.0,0.0,80,0.00,,,0.00,WeatherDisplay:10.36,2013-10-06 09:27:00,
2013-10-06 04:28:00,47.8,42.0,29.82,NE,43,0.0,0.0,80,0.00,,,0.00,WeatherDisplay:10.36,2013-10-06 09:28:00,
2013-10-06 04:29:00,47.8,42.0,29.82,NE,43,0.0,0.0,80,0.00,,,0.00,WeatherDisplay:10.36,2013-10-06 09:29:00,
2013-10-06 04:30:00,47.8,42.0,29.82,NE,43,0.0,0.0,80,0.00,,,0.00,WeatherDisplay:10.36,2013-10-06 09:30:00,
2013-10-06 04:32:00,47.8,42.0,29.82,NE,43,0.0,0.0,80,0.00,,,0.00,WeatherDisplay:10.36,2013-10-06 09:32:00,
2013-10-06 04:33:00,47.8,42.0,29.82,NE,44,0.0,0.0,80,0.00,,,0.00,WeatherDisplay:10.36,2013-10-06 09:33:00,
2013-10-06 04:34:00,47.8,42.0,29.82,NE,44,0.0,0.0,80,0.00,,,0.00,WeatherDisplay:10.36,2013-10-06 09:34:00,
2013-10-06 04:35:00,47.7,41.8,29.82,NE,44,0.0,0.0,80,0.00,,,0.00,WeatherDisplay:10.36,2013-10-06 09:35:00,
2013-10-06 04:36:00,47.7,41.8,29.82,NE,44,0.0,0.0,80,0.00,,,0.00,WeatherDisplay:10.36,2013-10-06 09:36:00,
2013-10-06 04:37:00,47.7,41.8,29.82,NE,45,0.0,0.0,80,0.00,,,0.00,WeatherDisplay:10.36,2013-10-06 09:37:00,
2013-10-06 04:38:00,47.7,41.8,29.82,NE,43,0.0,0.0,80,0.00,,,0.00,WeatherDisplay:10.36,2013-10-06 09:38:00,
2013-10-06 04:40:00,47.7,41.8,29.82,NE,43,0.0,0.0,80,0.00,,,0.00,WeatherDisplay:10.36,2013-10-06 09:40:00,
2013-10-06 04:41:00,47.7,41.8,29.82,NE,45,0.0,0.0,80,0.00,,,0.00,WeatherDisplay:10.36,2013-10-06 09:41:00,
2013-10-06 04:42:00,47.7,41.8,29.82,NE,43,0.0,0.0,80,0.00,,,0.00,WeatherDisplay:10.36,2013-10-06 09:42:00,
2013-10-06 04:43:00,47.7,41.8,29.82,NE,43,0.0,0.0,80,0.00,,,0.00,WeatherDisplay:10.36,2013-10-06 09:43:00,
2013-10-06 04:44:00,47.7,41.8,29.82,NE,43,0.0,0.0,80,0.00,,,0.00,WeatherDisplay:10.36,2013-10-06 09:44:00,
2013-10-06 04:45:00,47.7,41.8,29.82,NE,44,0.0,0.0,80,0.00,,,0.00,WeatherDisplay:10.36,2013-10-06 09:45:00,
2013-10-06 04:46:00,47.5,41.6,29.82,NE,43,0.0,0.0,80,0.00,,,0.00,WeatherDisplay:10.36,2013-10-06 09:46:00,
2013-10-06 04:48:00,47.5,41.6,29.82,NE,44,0.0,0.0,80,0.00,,,0.00,WeatherDisplay:10.36,2013-10-06 09:48:00,
2013-10-06 04:49:00,47.5,41.6,29.82,NE,44,0.0,0.0,80,0.00,,,0.00,WeatherDisplay:10.36,2013-10-06 09:49:00,
2013-10-06 04:50:00,47.5,41.6,29.82,NE,43,0.0,0.0,80,0.00,,,0.00,WeatherDisplay:10.36,2013-10-06 09:50:00,
2013-10-06 04:51:00,47.5,41.6,29.82,NE,43,0.0,0.0,80,0.00,,,0.00,WeatherDisplay:10.36,2013-10-06 09:51:00,
2013-10-06 04:52:00,47.5,41.6,29.82,NE,44,0.0,0.0,80,0.00,,,0.00,WeatherDisplay:10.36,2013-10-06 09:52:00,
2013-10-06 04:53:00,47.5,41.6,29.82,NE,45,0.0,0.0,80,0.00,,,0.00,WeatherDisplay:10.36,2013-10-06 09:53:00,
2013-10-06 04:55:00,47.3,41.4,29.82,NE,44,0.0,0.0,80,0.00,,,0.00,WeatherDisplay:10.36,2013-10-06 09:55:00,
2013-10-06 04:56:00,47.3,41.4,29.82,NE,43,0.0,0.0,80,0.00,,,0.00,WeatherDisplay:10.36,2013-10-06 09:56:00,
2013-10-06 04:57:00,47.3,41.4,29.82,NE,45,0.0,0.0,80,0.00,,,0.00,WeatherDisplay:10.36,2013-10-06 09:57:00,
2013-10-06 04:58:00,47.3,41.4,29.82,NE,43,0.0,0.0,80,0.00,,,0.00,WeatherDisplay:10.36,2013-10-06 09:58:00,
2013-10-06 04:59:00,47.3,41.4,29.82,NE,45,0.0,0.0,80,0.00,,,0.00,WeatherDisplay:10.36,2013-10-06 09:59:00,
2013-10-06 05:00:00,47.3,41.4,29.82,NE,44,0.0,0.0,80,0.00,,,0.00,WeatherDisplay:10.36,2013-10-06 10:00:00,
2013-10-06 05:05:00,47.3,41.4,29.82,NE,44,0.0,0.0,80,0.00,,,0.00,WeatherDisplay:10.36,2013-10-06 10:05:00,
2013-10-06 05:06:00,47.3,41.4,29.82,NE,44,0.0,0.0,80,0.00,,,0.00,WeatherDisplay:10.36,2013-10-06 10:06:00,
2013-10-06 05:07:00,47.3,41.4,29.82,NE,44,0.0,0.0,80,0.00,,,0.00,WeatherDisplay:10.36,2013-10-06 10:07:00,
2013-10-06 05:08:00,47.3,41.4,29.82,NE,45,0.0,0.0,80,0.00,,,0.00,WeatherDisplay:10.36,2013-10-06 10:08:00,
2013-10-06 05:09:00,47.3,41.4,29.82,NE,45,0.0,0.0,80,0.00,,,0.00,WeatherDisplay:10.36,2013-10-06 10:09:00,
2013-10-06 05:11:00,47.3,41.4,29.82,NE,44,0.0,0.0,80,0.00,,,0.00,WeatherDisplay:10.36,2013-10-06 10:11:00,
2013-10-06 05:12:00,47.3,41.4,29.82,NE,45,0.0,0.0,80,0.00,,,0.00,WeatherDisplay:10.36,2013-10-06 10:12:00,
2013-10-06 05:13:00,47.3,41.4,29.82,NE,45,0.0,0.0,80,0.00,,,0.00,WeatherDisplay:10.36,2013-10-06 10:13:00,
2013-10-06 05:15:00,47.3,41.4,29.82,NE,45,0.0,0.0,80,0.00,,,0.00,WeatherDisplay:10.36,2013-10-06 10:15:00,
2013-10-06 05:16:00,47.3,41.4,29.82,NE,45,0.0,0.0,80,0.00,,,0.00,WeatherDisplay:10.36,2013-10-06 10:16:00,
2013-10-06 05:17:00,47.3,41.4,29.82,NE,44,0.0,0.0,80,0.00,,,0.00,WeatherDisplay:10.36,2013-10-06 10:17:00,
2013-10-06 05:18:00,47.1,41.3,29.82,NE,45,0.0,0.0,80,0.00,,,0.00,WeatherDisplay:10.36,2013-10-06 10:18:00,
2013-10-06 05:19:00,47.1,41.3,29.82,NE,43,0.0,0.0,80,0.00,,,0.00,WeatherDisplay:10.36,2013-10-06 10:19:00,
2013-10-06 05:20:00,47.1,41.3,29.82,NE,46,0.0,0.0,80,0.00,,,0.00,WeatherDisplay:10.36,2013-10-06 10:20:00,
2013-10-06 05:21:00,47.1,41.3,29.82,NE,44,0.0,0.0,80,0.00,,,0.00,WeatherDisplay:10.36,2013-10-06 10:21:00,
2013-10-06 05:23:00,47.1,41.3,29.82,NE,45,0.0,0.0,80,0.00,,,0.00,WeatherDisplay:10.36,2013-10-06 10:23:00,
2013-10-06 05:24:00,47.1,41.3,29.82,NE,43,0.0,0.0,80,0.00,,,0.00,WeatherDisplay:10.36,2013-10-06 10:24:00,
2013-10-06 05:25:00,47.1,41.3,29.82,NE,43,0.0,0.0,80,0.00,,,0.00,WeatherDisplay:10.36,2013-10-06 10:25:00,
2013-10-06 05:26:00,47.1,41.3,29.82,NE,45,0.0,0.0,80,0.00,,,0.00,WeatherDisplay:10.36,2013-10-06 10:26:00,
2013-10-06 05:27:00,46.9,41.1,29.82,NE,45,0.0,0.0,80,0.00,,,0.00,WeatherDisplay:10.36,2013-10-06 10:27:00,
2013-10-06 05:28:00,46.9,41.1,29.82,NE,44,0.0,0.0,80,0.00,,,0.00,WeatherDisplay:10.36,2013-10-06 10:28:00,
2013-10-06 05:29:00,46.9,41.1,29.82,NE,45,0.0,0.0,80,0.00,,,0.00,WeatherDisplay:10.36,2013-10-06 10:29:00,
2013-10-06 05:31:00,46.9,41.1,29.82,NE,43,0.0,0.0,80,0.00,,,0.00,WeatherDisplay:10.36,2013-10-06 10:31:00,
2013-10-06 05:32:00,46.9,41.1,29.82,NE,45,0.0,0.0,80,0.00,,,0.00,WeatherDisplay:10.36,2013-10-06 10:32:00,
2013-10-06 05:33:00,46.9,41.1,29.82,NE,44,0.0,0.0,80,0.00,,,0.00,WeatherDisplay:10.36,2013-10-06 10:33:00,
2013-10-06 05:34:00,46.9,41.1,29.82,NE,44,0.0,0.0,80,0.00,,,0.00,WeatherDisplay:10.36,2013-10-06 10:34:00,
2013-10-06 05:35:00,46.8,40.9,29.82,NE,45,0.0,0.0,80,0.00,,,0.00,WeatherDisplay:10.36,2013-10-06 10:35:00,
2013-10-06 05:36:00,46.8,40.9,29.82,NE,45,0.0,0.0,80,0.00,,,0.00,WeatherDisplay:10.36,2013-10-06 10:36:00,
2013-10-06 05:38:00,46.8,40.9,29.82,NE,43,0.0,0.0,80,0.00,,,0.00,WeatherDisplay:10.36,2013-10-06 10:38:00,
2013-10-06 05:39:00,46.8,40.9,29.82,NE,45,0.0,0.0,80,0.00,,,0.00,WeatherDisplay:10.36,2013-10-06 10:39:00,
2013-10-06 05:40:00,46.8,40.9,29.82,NE,45,0.0,0.0,80,0.00,,,0.00,WeatherDisplay:10.36,2013-10-06 10:40:00,
2013-10-06 05:41:00,46.8,40.9,29.82,NE,44,0.0,0.0,80,0.00,,,0.00,WeatherDisplay:10.36,2013-10-06 10:41:00,
2013-10-06 05:42:00,46.8,40.9,29.82,NE,45,0.0,0.0,80,0.00,,,0.00,WeatherDisplay:10.36,2013-10-06 10:42:00,
2013-10-06 05:43:00,46.8,40.9,29.82,NE,45,0.0,0.0,80,0.00,,,0.00,WeatherDisplay:10.36,2013-10-06 10:43:00,
2013-10-06 05:45:00,46.8,40.9,29.82,NE,44,0.0,0.0,80,0.00,,,0.00,WeatherDisplay:10.36,2013-10-06 10:45:00,
2013-10-06 05:46:00,46.6,40.7,29.82,NE,45,0.0,0.0,80,0.00,,,0.00,WeatherDisplay:10.36,2013-10-06 10:46:00,
2013-10-06 05:47:00,46.6,40.7,29.82,NE,43,0.0,0.0,80,0.00,,,0.00,WeatherDisplay:10.36,2013-10-06 10:47:00,
2013-10-06 05:48:00,46.6,40.7,29.82,NE,45,0.0,0.0,80,0.00,,,0.00,WeatherDisplay:10.36,2013-10-06 10:48:00,
2013-10-06 05:49:00,46.6,40.7,29.82,NE,45,0.0,0.0,80,0.00,,,0.00,WeatherDisplay:10.36,2013-10-06 10:49:00,
2013-10-06 05:50:00,46.6,40.7,29.82,NE,42,3.6,0.0,80,0.00,,,0.00,WeatherDisplay:10.36,2013-10-06 10:50:00,
2013-10-06 05:52:00,46.6,40.7,29.82,NE,42,3.5,0.0,80,0.00,,,0.00,WeatherDisplay:10.36,2013-10-06 10:52:00,
2013-10-06 05:53:00,46.6,40.7,29.82,NE,42,0.0,0.0,80,0.00,,,0.00,WeatherDisplay:10.36,2013-10-06 10:53:00,
2013-10-06 05:54:00,46.4,40.6,29.82,NE,41,0.0,0.0,80,0.00,,,0.00,WeatherDisplay:10.36,2013-10-06 10:54:00,
2013-10-06 05:55:00,46.4,40.6,29.82,NE,43,0.0,0.0,80,0.00,,,0.00,WeatherDisplay:10.36,2013-10-06 10:55:00,
2013-10-06 05:56:00,46.4,40.6,29.82,NE,43,0.0,0.0,80,0.00,,,0.00,WeatherDisplay:10.36,2013-10-06 10:56:00,
2013-10-06 05:57:00,46.4,40.6,29.82,NE,41,0.0,0.0,80,0.00,,,0.00,WeatherDisplay:10.36,2013-10-06 10:57:00,
2013-10-06 05:58:00,46.4,40.6,29.82,NE,41,0.0,0.0,80,0.00,,,0.00,WeatherDisplay:10.36,2013-10-06 10:58:00,
2013-10-06 06:00:00,46.4,40.6,29.82,NE,41,0.0,0.0,80,0.00,,,0.00,WeatherDisplay:10.36,2013-10-06 11:00:00,
2013-10-06 06:01:00,46.4,40.6,29.82,NE,41,0.0,0.0,80,0.00,,,0.00,WeatherDisplay:10.36,2013-10-06 11:01:00,
2013-10-06 06:02:00,46.4,40.6,29.82,NE,43,0.0,0.0,80,0.00,,,0.00,WeatherDisplay:10.36,2013-10-06 11:02:00,
2013-10-06 06:03:00,46.4,40.6,29.82,NE,41,0.0,0.0,80,0.00,,,0.00,WeatherDisplay:10.36,2013-10-06 11:03:00,
2013-10-06 06:04:00,46.4,40.6,29.82,NE,43,0.0,0.0,80,0.00,,,0.00,WeatherDisplay:10.36,2013-10-06 11:04:00,
2013-10-06 06:05:00,46.4,40.6,29.82,NE,42,0.0,0.0,80,0.00,,,0.00,WeatherDisplay:10.36,2013-10-06 11:05:00,
2013-10-06 06:07:00,46.2,40.4,29.82,NE,41,0.0,0.0,80,0.00,,,0.00,WeatherDisplay:10.36,2013-10-06 11:07:00,
2013-10-06 06:08:00,46.2,40.4,29.82,NE,42,0.0,0.0,80,0.00,,,0.00,WeatherDisplay:10.36,2013-10-06 11:08:00,
2013-10-06 06:09:00,46.2,40.4,29.82,NE,43,0.0,0.0,80,0.00,,,0.00,WeatherDisplay:10.36,2013-10-06 11:09:00,
2013-10-06 06:10:00,46.2,40.4,29.82,NE,42,0.0,0.0,80,0.00,,,0.00,WeatherDisplay:10.36,2013-10-06 11:10:00,
2013-10-06 06:11:00,46.2,40.4,29.82,NE,41,0.0,0.0,80,0.00,,,0.00,WeatherDisplay:10.36,2013-10-06 11:11:00,
2013-10-06 06:12:00,46.2,40.4,29.82,NE,41,0.0,0.0,80,0.00,,,0.00,WeatherDisplay:10.36,2013-10-06 11:12:00,
2013-10-06 06:14:00,46.2,40.4,29.82,NE,41,0.0,0.0,80,0.00,,,0.00,WeatherDisplay:10.36,2013-10-06 11:14:00,
2013-10-06 06:15:00,46.2,40.4,29.82,NE,42,0.0,0.0,80,0.00,,,0.00,WeatherDisplay:10.36,2013-10-06 11:15:00,
2013-10-06 06:16:00,46.0,40.2,29.82,NE,43,0.0,0.0,80,0.00,,,0.00,WeatherDisplay:10.36,2013-10-06 11:16:00,
2013-10-06 06:17:00,46.0,40.2,29.82,NE,41,0.0,0.0,80,0.00,,,0.00,WeatherDisplay:10.36,2013-10-06 11:17:00,
2013-10-06 06:18:00,46.0,40.2,29.82,NE,42,0.0,0.0,80,0.00,,,0.00,WeatherDisplay:10.36,2013-10-06 11:18:00,
2013-10-06 06:19:00,46.0,40.2,29.82,NE,42,0.0,0.0,80,0.00,,,0.00,WeatherDisplay:10.36,2013-10-06 11:19:00,
2013-10-06 06:20:00,46.0,40.2,29.82,NE,42,0.0,0.0,80,0.00,,,0.00,WeatherDisplay:10.36,2013-10-06 11:20:00,
2013-10-06 06:22:00,46.0,40.2,29.82,NE,42,0.0,0.0,80,0.00,,,0.00,WeatherDisplay:10.36,2013-10-06 11:22:00,
2013-10-06 06:23:00,46.0,40.2,29.82,NE,42,0.0,0.0,80,0.00,,,0.00,WeatherDisplay:10.36,2013-10-06 11:23:00,
2013-10-06 06:24:00,46.0,40.2,29.82,NE,42,0.0,0.0,80,0.00,,,0.00,WeatherDisplay:10.36,2013-10-06 11:24:00,
2013-10-06 06:25:00,46.0,40.2,29.82,NE,42,0.0,0.0,80,0.00,,,0.00,WeatherDisplay:10.36,2013-10-06 11:25:00,
2013-10-06 06:26:00,46.0,40.2,29.82,NE,41,0.0,0.0,80,0.00,,,0.00,WeatherDisplay:10.36,2013-10-06 11:26:00,
2013-10-06 06:27:00,46.0,40.2,29.82,NE,42,0.0,0.0,80,0.00,,,0.00,WeatherDisplay:10.36,2013-10-06 11:27:00,
2013-10-06 06:28:00,46.0,40.2,29.82,NE,42,0.0,0.0,80,0.00,,,0.00,WeatherDisplay:10.36,2013-10-06 11:28:00,
2013-10-06 06:30:00,46.0,40.2,29.82,NE,42,0.0,0.0,80,0.00,,,0.00,WeatherDisplay:10.36,2013-10-06 11:30:00,
2013-10-06 06:31:00,46.0,40.2,29.82,NE,43,0.0,0.0,80,0.00,,,0.00,WeatherDisplay:10.36,2013-10-06 11:31:00,
2013-10-06 06:32:00,46.0,40.2,29.82,NE,41,0.0,0.0,80,0.00,,,0.00,WeatherDisplay:10.36,2013-10-06 11:32:00,
2013-10-06 06:33:00,46.0,40.2,29.82,NE,43,0.0,0.0,80,0.00,,,0.00,WeatherDisplay:10.36,2013-10-06 11:33:00,
2013-10-06 06:34:00,46.0,40.2,29.82,NE,42,0.0,0.0,80,0.00,,,0.00,WeatherDisplay:10.36,2013-10-06 11:34:00,
2013-10-06 06:35:00,46.0,40.2,29.82,NE,43,0.0,0.0,80,0.00,,,0.00,WeatherDisplay:10.36,2013-10-06 11:35:00,
2013-10-06 06:37:00,46.0,40.2,29.82,NE,43,0.0,0.0,80,0.00,,,0.00,WeatherDisplay:10.36,2013-10-06 11:37:00,
2013-10-06 06:38:00,45.9,40.0,29.82,NE,43,0.0,0.0,80,0.00,,,0.00,WeatherDisplay:10.36,2013-10-06 11:38:00,
2013-10-06 06:39:00,45.9,40.0,29.82,NE,43,0.0,0.0,80,0.00,,,0.00,WeatherDisplay:10.36,2013-10-06 11:39:00,
2013-10-06 06:40:00,45.9,40.0,29.82,NE,43,0.0,0.0,80,0.00,,,0.00,WeatherDisplay:10.36,2013-10-06 11:40:00,
2013-10-06 06:41:00,45.9,40.0,29.82,NE,41,0.0,0.0,80,0.00,,,0.00,WeatherDisplay:10.36,2013-10-06 11:41:00,
2013-10-06 06:42:00,45.9,40.0,29.82,NE,41,0.0,0.0,80,0.00,,,0.00,WeatherDisplay:10.36,2013-10-06 11:42:00,
2013-10-06 06:44:00,45.9,40.0,29.82,NE,41,0.0,0.0,80,0.00,,,0.00,WeatherDisplay:10.36,2013-10-06 11:44:00,
2013-10-06 06:45:00,45.9,40.0,29.82,NE,41,0.0,0.0,80,0.00,,,0.00,WeatherDisplay:10.36,2013-10-06 11:45:00,
2013-10-06 06:46:00,45.9,40.0,29.82,NE,43,3.5,0.0,80,0.00,,,0.00,WeatherDisplay:10.36,2013-10-06 11:46:00,
2013-10-06 06:47:00,45.9,40.0,29.82,NE,43,0.0,0.0,80,0.00,,,0.00,WeatherDisplay:10.36,2013-10-06 11:47:00,
2013-10-06 06:48:00,45.9,40.0,29.82,NE,41,0.0,0.0,80,0.00,,,0.00,WeatherDisplay:10.36,2013-10-06 11:48:00,
2013-10-06 06:49:00,45.9,40.0,29.82,NE,41,0.0,0.0,80,0.00,,,0.00,WeatherDisplay:10.36,2013-10-06 11:49:00,
2013-10-06 06:50:00,45.9,40.0,29.82,NE,42,0.0,0.0,80,0.00,,,0.00,WeatherDisplay:10.36,2013-10-06 11:50:00,
2013-10-06 06:52:00,45.9,40.0,29.82,NE,43,0.0,0.0,80,0.00,,,0.00,WeatherDisplay:10.36,2013-10-06 11:52:00,
2013-10-06 06:53:00,45.9,40.0,29.82,NE,43,0.0,0.0,80,0.00,,,0.00,WeatherDisplay:10.36,2013-10-06 11:53:00,
2013-10-06 06:54:00,45.9,40.0,29.82,NE,43,0.0,0.0,80,0.00,,,0.00,WeatherDisplay:10.36,2013-10-06 11:54:00,
2013-10-06 06:55:00,45.9,40.0,29.82,NE,41,3.1,0.0,80,0.00,,,0.00,WeatherDisplay:10.36,2013-10-06 11:55:00,
2013-10-06 06:56:00,45.9,40.0,29.82,NE,43,3.5,0.0,80,0.00,,,0.00,WeatherDisplay:10.36,2013-10-06 11:56:00,
2013-10-06 06:57:00,45.9,40.0,29.82,NE,45,3.5,0.0,80,0.00,,,0.00,WeatherDisplay:10.36,2013-10-06 11:57:00,
2013-10-06 06:59:00,45.9,40.0,29.82,NE,44,4.0,4.0,80,0.00,,,0.00,WeatherDisplay:10.36,2013-10-06 11:59:00,
2013-10-06 07:00:00,45.9,40.0,29.82,NE,43,0.0,0.0,80,0.00,,,0.00,WeatherDisplay:10.36,2013-10-06 12:00:00,
2013-10-06 07:01:00,45.9,40.0,29.82,NE,44,0.0,0.0,80,0.00,,,0.00,WeatherDisplay:10.36,2013-10-06 12:01:00,
2013-10-06 07:02:00,45.9,40.0,29.82,NE,44,0.0,0.0,80,0.00,,,0.00,WeatherDisplay:10.36,2013-10-06 12:02:00,
2013-10-06 07:03:00,45.9,40.0,29.82,NE,45,3.6,0.0,80,0.00,,,0.00,WeatherDisplay:10.36,2013-10-06 12:03:00,
2013-10-06 07:04:00,45.9,40.0,29.82,NE,44,3.5,3.5,80,0.00,,,0.00,WeatherDisplay:10.36,2013-10-06 12:04:00,
2013-10-06 07:05:00,45.9,40.0,29.82,NE,44,0.0,0.0,80,0.00,,,0.00,WeatherDisplay:10.36,2013-10-06 12:05:00,
2013-10-06 07:07:00,45.9,40.0,29.82,NE,44,0.0,0.0,80,0.00,,,0.00,WeatherDisplay:10.36,2013-10-06 12:07:00,
2013-10-06 07:08:00,45.9,40.0,29.82,NE,43,0.0,0.0,80,0.00,,,0.00,WeatherDisplay:10.36,2013-10-06 12:08:00,
2013-10-06 07:09:00,45.9,40.0,29.82,NE,45,0.0,0.0,80,0.00,,,0.00,WeatherDisplay:10.36,2013-10-06 12:09:00,
2013-10-06 07:10:00,46.0,40.2,29.82,NE,44,0.0,0.0,80,0.00,,,0.00,WeatherDisplay:10.36,2013-10-06 12:10:00,
2013-10-06 07:11:00,46.0,40.2,29.82,NE,43,0.0,0.0,80,0.00,,,0.00,WeatherDisplay:10.36,2013-10-06 12:11:00,
2013-10-06 07:12:00,46.0,40.2,29.82,NE,44,0.0,0.0,80,0.00,,,0.00,WeatherDisplay:10.36,2013-10-06 12:12:00,
2013-10-06 07:14:00,46.0,40.2,29.82,NE,42,5.8,0.0,80,0.00,,,0.00,WeatherDisplay:10.36,2013-10-06 12:14:00,
2013-10-06 07:15:00,46.0,40.2,29.82,NE,42,3.6,3.6,80,0.00,,,0.00,WeatherDisplay:10.36,2013-10-06 12:15:00,
2013-10-06 07:16:00,46.0,40.2,29.82,NE,41,4.9,4.9,80,0.00,,,0.00,WeatherDisplay:10.36,2013-10-06 12:16:00,
2013-10-06 07:17:00,46.0,40.2,29.82,NE,41,3.5,0.0,80,0.00,,,0.00,WeatherDisplay:10.36,2013-10-06 12:17:00,
2013-10-06 07:18:00,46.2,40.4,29.82,NE,41,0.0,0.0,80,0.00,,,0.00,WeatherDisplay:10.36,2013-10-06 12:18:00,
2013-10-06 07:19:00,46.2,40.4,29.82,NE,43,3.6,0.0,80,0.00,,,0.00,WeatherDisplay:10.36,2013-10-06 12:19:00,
2013-10-06 07:20:00,46.2,40.4,29.82,NE,44,3.1,3.1,80,0.00,,,0.00,WeatherDisplay:10.36,2013-10-06 12:20:00,
2013-10-06 07:22:00,46.2,40.4,29.82,NE,44,3.5,0.0,80,0.00,,,0.00,WeatherDisplay:10.36,2013-10-06 12:22:00,
2013-10-06 07:23:00,46.4,40.6,29.82,NE,43,3.5,0.0,80,0.00,,,0.00,WeatherDisplay:10.36,2013-10-06 12:23:00,
2013-10-06 07:24:00,46.4,40.6,29.82,NE,43,2.7,0.0,80,0.00,,,0.00,WeatherDisplay:10.36,2013-10-06 12:24:00,
2013-10-06 07:25:00,46.4,40.6,29.82,NE,43,0.0,0.0,80,0.00,,,0.00,WeatherDisplay:10.36,2013-10-06 12:25:00,
2013-10-06 07:26:00,46.4,40.6,29.82,NE,42,4.0,0.0,80,0.00,,,0.00,WeatherDisplay:10.36,2013-10-06 12:26:00,
2013-10-06 07:27:00,46.4,40.6,29.82,NE,42,4.0,4.0,80,0.00,,,0.00,WeatherDisplay:10.36,2013-10-06 12:27:00,
2013-10-06 07:29:00,46.6,40.7,29.82,NE,42,5.8,5.8,80,0.00,,,0.00,WeatherDisplay:10.36,2013-10-06 12:29:00,
2013-10-06 07:30:00,46.6,40.7,29.82,NE,42,0.0,3.6,80,0.00,,,0.00,WeatherDisplay:10.36,2013-10-06 12:30:00,
2013-10-06 07:31:00,46.6,40.7,29.82,NE,43,2.3,0.0,80,0.00,,,0.00,WeatherDisplay:10.36,2013-10-06 12:31:00,
2013-10-06 07:32:00,46.6,40.7,29.82,NE,42,3.5,0.0,80,0.00,,,0.00,WeatherDisplay:10.36,2013-10-06 12:32:00,
2013-10-06 07:33:00,46.6,40.7,29.82,NE,44,4.0,4.0,80,0.00,,,0.00,WeatherDisplay:10.36,2013-10-06 12:33:00,
2013-10-06 07:34:00,46.8,40.9,29.82,NE,45,3.6,3.6,80,0.00,,,0.00,WeatherDisplay:10.36,2013-10-06 12:34:00,
2013-10-06 07:35:00,46.8,40.6,29.82,NE,44,4.9,4.9,79,0.00,,,0.00,WeatherDisplay:10.36,2013-10-06 12:35:00,
2013-10-06 07:37:00,46.8,40.6,29.82,NE,43,4.6,4.6,79,0.00,,,0.00,WeatherDisplay:10.36,2013-10-06 12:37:00,
2013-10-06 07:38:00,46.8,40.6,29.82,NE,42,6.3,6.3,79,0.00,,,0.00,WeatherDisplay:10.36,2013-10-06 12:38:00,
2013-10-06 07:39:00,46.9,40.8,29.82,NE,41,4.6,4.6,79,0.00,,,0.00,WeatherDisplay:10.36,2013-10-06 12:39:00,
2013-10-06 07:40:00,46.9,41.1,29.82,NE,44,3.6,0.0,80,0.00,,,0.00,WeatherDisplay:10.36,2013-10-06 12:40:00,
2013-10-06 07:41:00,47.1,41.3,29.82,NE,43,3.6,3.6,80,0.00,,,0.00,WeatherDisplay:10.36,2013-10-06 12:41:00,
2013-10-06 07:42:00,47.3,41.4,29.82,NE,39,4.9,4.9,80,0.00,,,0.00,WeatherDisplay:10.36,2013-10-06 12:42:00,
2013-10-06 07:44:00,47.3,41.1,29.82,NE,42,4.6,4.6,79,0.00,,,0.00,WeatherDisplay:10.36,2013-10-06 12:44:00,
2013-10-06 07:45:00,47.5,41.3,29.82,NE,41,3.6,3.6,79,0.00,,,0.00,WeatherDisplay:10.36,2013-10-06 12:45:00,
2013-10-06 07:46:00,47.5,41.3,29.82,NE,43,4.0,4.0,79,0.00,,,0.00,WeatherDisplay:10.36,2013-10-06 12:46:00,
2013-10-06 07:47:00,47.7,41.5,29.82,NE,43,4.9,4.9,79,0.00,,,0.00,WeatherDisplay:10.36,2013-10-06 12:47:00,
2013-10-06 07:48:00,47.7,41.5,29.82,NE,44,4.6,4.6,79,0.00,,,0.00,WeatherDisplay:10.36,2013-10-06 12:48:00,
2013-10-06 07:49:00,47.8,41.6,29.82,NE,43,4.6,4.6,79,0.00,,,0.00,WeatherDisplay:10.36,2013-10-06 12:49:00,
2013-10-06 07:50:00,47.8,41.6,29.82,NE,43,3.6,3.6,79,0.00,,,0.00,WeatherDisplay:10.36,2013-10-06 12:50:00,
2013-10-06 07:52:00,48.0,41.8,29.82,NE,43,5.8,5.8,79,0.00,,,0.00,WeatherDisplay:10.36,2013-10-06 12:52:00,
2013-10-06 07:53:00,48.0,41.5,29.82,NE,44,5.8,5.8,78,0.00,,,0.00,WeatherDisplay:10.36,2013-10-06 12:53:00,
2013-10-06 07:54:00,48.0,41.5,29.82,NE,42,5.4,5.4,78,0.00,,,0.00,WeatherDisplay:10.36,2013-10-06 12:54:00,
2013-10-06 07:55:00,48.2,41.7,29.82,NE,43,3.6,4.5,78,0.00,,,0.00,WeatherDisplay:10.36,2013-10-06 12:55:00,
2013-10-06 07:56:00,48.4,41.8,29.82,NE,43,3.5,0.0,78,0.00,,,0.00,WeatherDisplay:10.36,2013-10-06 12:56:00,
2013-10-06 07:57:00,48.4,41.8,29.82,NE,45,4.9,4.9,78,0.00,,,0.00,WeatherDisplay:10.36,2013-10-06 12:57:00,
2013-10-06 07:58:00,48.6,42.0,29.82,NE,46,4.6,4.6,78,0.00,,,0.00,WeatherDisplay:10.36,2013-10-06 12:58:00,
2013-10-06 08:00:00,48.7,41.8,29.82,NE,45,0.0,4.0,77,0.00,,,0.00,WeatherDisplay:10.36,2013-10-06 13:00:00,
2013-10-06 08:01:00,48.7,41.8,29.82,NE,40,5.4,5.4,77,0.00,,,0.00,WeatherDisplay:10.36,2013-10-06 13:01:00,
2013-10-06 08:02:00,48.7,41.8,29.82,NE,47,5.8,5.8,77,0.00,,,0.00,WeatherDisplay:10.36,2013-10-06 13:02:00,
2013-10-06 08:03:00,48.9,42.0,29.82,NE,43,3.6,3.6,77,0.00,,,0.00,WeatherDisplay:10.36,2013-10-06 13:03:00,
2013-10-06 08:04:00,49.1,42.2,29.82,NE,42,3.5,3.5,77,0.00,,,0.00,WeatherDisplay:10.36,2013-10-06 13:04:00,
2013-10-06 08:05:00,49.1,41.9,29.82,NE,46,6.7,6.7,76,0.00,,,0.00,WeatherDisplay:10.36,2013-10-06 13:05:00,
2013-10-06 08:07:00,49.3,42.0,29.82,NE,45,6.9,6.9,76,0.00,,,0.00,WeatherDisplay:10.36,2013-10-06 13:07:00,
2013-10-06 08:08:00,49.5,42.2,29.82,NE,44,5.4,5.4,76,0.00,,,0.00,WeatherDisplay:10.36,2013-10-06 13:08:00,
2013-10-06 08:09:00,49.6,42.4,29.82,NE,46,5.8,5.8,76,0.00,,,0.00,WeatherDisplay:10.36,2013-10-06 13:09:00,
2013-10-06 08:10:00,49.8,42.6,29.82,NE,45,4.0,4.5,76,0.00,,,0.00,WeatherDisplay:10.36,2013-10-06 13:10:00,
2013-10-06 08:11:00,49.8,42.6,29.82,NE,47,6.9,6.9,76,0.00,,,0.00,WeatherDisplay:10.36,2013-10-06 13:11:00,
2013-10-06 08:12:00,49.8,42.2,29.82,NE,43,4.9,4.9,75,0.00,,,0.00,WeatherDisplay:10.36,2013-10-06 13:12:00,
2013-10-06 08:14:00,50.0,42.0,29.82,NE,46,5.8,5.8,74,0.00,,,0.00,WeatherDisplay:10.36,2013-10-06 13:14:00,
2013-10-06 08:15:00,50.0,42.0,29.82,NE,48,4.5,4.5,74,0.00,,,0.00,WeatherDisplay:10.36,2013-10-06 13:15:00,
2013-10-06 08:16:00,50.0,41.7,29.82,NE,43,5.8,5.8,73,0.00,,,0.00,WeatherDisplay:10.36,2013-10-06 13:16:00,
2013-10-06 08:17:00,50.0,41.7,29.82,NE,42,4.5,4.5,73,0.00,,,0.00,WeatherDisplay:10.36,2013-10-06 13:17:00,
2013-10-06 08:18:00,50.0,41.7,29.82,NE,41,4.6,4.6,73,0.00,,,0.00,WeatherDisplay:10.36,2013-10-06 13:18:00,
2013-10-06 08:19:00,50.0,41.3,29.82,NE,41,6.3,6.3,72,0.00,,,0.00,WeatherDisplay:10.36,2013-10-06 13:19:00,
2013-10-06 08:20:00,50.0,41.0,29.82,NE,41,4.0,4.0,71,0.00,,,0.00,WeatherDisplay:10.36,2013-10-06 13:20:00,
2013-10-06 08:22:00,50.0,41.0,29.82,NE,42,3.5,0.0,71,0.00,,,0.00,WeatherDisplay:10.36,2013-10-06 13:22:00,
2013-10-06 08:23:00,50.0,40.6,29.82,NE,48,5.4,0.0,70,0.00,,,0.00,WeatherDisplay:10.36,2013-10-06 13:23:00,
2013-10-06 08:24:00,50.0,40.2,29.82,NE,42,8.1,8.1,69,0.00,,,0.00,WeatherDisplay:10.36,2013-10-06 13:24:00,
2013-10-06 08:25:00,50.0,40.2,29.82,NE,44,4.0,4.5,69,0.00,,,0.00,WeatherDisplay:10.36,2013-10-06 13:25:00,
2013-10-06 08:26:00,49.8,39.7,29.82,NE,41,5.8,5.8,68,0.00,,,0.00,WeatherDisplay:10.36,2013-10-06 13:26:00,
2013-10-06 08:27:00,49.8,39.3,29.82,NE,46,5.8,5.8,67,0.00,,,0.00,WeatherDisplay:10.36,2013-10-06 13:27:00,
2013-10-06 08:28:00,49.8,39.3,29.82,NE,36,6.3,6.3,67,0.00,,,0.00,WeatherDisplay:10.36,2013-10-06 13:28:00,
2013-10-06 08:30:00,49.8,38.9,29.82,NE,45,0.0,4.5,66,0.00,,,0.00,WeatherDisplay:10.36,2013-10-06 13:30:00,
2013-10-06 08:31:00,49.8,38.5,29.82,NE,41,8.3,8.3,65,0.00,,,0.00,WeatherDisplay:10.36,2013-10-06 13:31:00,
2013-10-06 08:32:00,49.8,38.5,29.82,NE,45,9.6,9.6,65,0.00,,,0.00,WeatherDisplay:10.36,2013-10-06 13:32:00,
2013-10-06 08:33:00,49.8,38.5,29.82,NE,44,7.4,7.4,65,0.00,,,0.00,WeatherDisplay:10.36,2013-10-06 13:33:00,
2013-10-06 08:34:00,49.8,38.1,29.82,NE,41,6.3,6.3,64,0.00,,,0.00,WeatherDisplay:10.36,2013-10-06 13:34:00,
2013-10-06 08:35:00,49.8,38.1,29.82,NE,43,4.0,4.5,64,0.00,,,0.00,WeatherDisplay:10.36,2013-10-06 13:35:00,
2013-10-06 08:36:00,49.8,37.7,29.82,NE,46,5.8,5.8,63,0.00,,,0.00,WeatherDisplay:10.36,2013-10-06 13:36:00,
2013-10-06 08:38:00,50.0,37.9,29.82,NE,46,6.3,6.3,63,0.00,,,0.00,WeatherDisplay:10.36,2013-10-06 13:38:00,
2013-10-06 08:39:00,50.0,37.9,29.82,NE,45,6.9,6.9,63,0.00,,,0.00,WeatherDisplay:10.36,2013-10-06 13:39:00,
2013-10-06 08:40:00,50.0,37.9,29.82,NE,44,3.6,4.0,63,0.00,,,0.00,WeatherDisplay:10.36,2013-10-06 13:40:00,
2013-10-06 08:41:00,50.2,38.1,29.82,NE,46,8.1,8.1,63,0.00,,,0.00,WeatherDisplay:10.36,2013-10-06 13:41:00,
2013-10-06 08:42:00,50.2,37.7,29.82,NE,45,6.9,6.9,62,0.00,,,0.00,WeatherDisplay:10.36,2013-10-06 13:42:00,
2013-10-06 08:43:00,50.2,37.7,29.82,NE,45,8.3,8.3,62,0.00,,,0.00,WeatherDisplay:10.36,2013-10-06 13:43:00,
2013-10-06 08:45:00,50.2,37.2,29.82,NE,46,0.0,4.5,61,0.00,,,0.00,WeatherDisplay:10.36,2013-10-06 13:45:00,
2013-10-06 08:46:00,50.4,37.4,29.82,NE,45,3.5,3.6,61,0.00,,,0.00,WeatherDisplay:10.36,2013-10-06 13:46:00,
2013-10-06 08:47:00,50.4,37.4,29.82,NE,47,4.9,4.9,61,0.00,,,0.00,WeatherDisplay:10.36,2013-10-06 13:47:00,
2013-10-06 08:48:00,50.5,37.6,29.82,NE,47,4.6,0.0,61,0.00,,,0.00,WeatherDisplay:10.36,2013-10-06 13:48:00,
2013-10-06 08:49:00,50.5,37.6,29.82,NE,42,4.9,0.0,61,0.00,,,0.00,WeatherDisplay:10.36,2013-10-06 13:49:00,
2013-10-06 08:50:00,50.5,37.6,29.82,NE,42,8.3,8.3,61,0.00,,,0.00,WeatherDisplay:10.36,2013-10-06 13:50:00,
2013-10-06 08:51:00,50.5,37.6,29.82,NE,44,8.1,8.1,61,0.00,,,0.00,WeatherDisplay:10.36,2013-10-06 13:51:00,
2013-10-06 08:53:00,50.7,37.3,29.82,NE,45,8.1,8.1,60,0.00,,,0.00,WeatherDisplay:10.36,2013-10-06 13:53:00,
2013-10-06 08:54:00,50.7,36.9,29.82,NE,42,4.9,4.9,59,0.00,,,0.00,WeatherDisplay:10.36,2013-10-06 13:54:00,
2013-10-06 08:55:00,50.7,36.9,29.82,NE,44,2.7,0.0,59,0.00,,,0.00,WeatherDisplay:10.36,2013-10-06 13:55:00,
2013-10-06 08:56:00,50.7,36.9,29.82,NE,41,5.8,5.8,59,0.00,,,0.00,WeatherDisplay:10.36,2013-10-06 13:56:00,
2013-10-06 08:57:00,50.7,36.9,29.82,NE,41,5.8,5.8,59,0.00,,,0.00,WeatherDisplay:10.36,2013-10-06 13:57:00,
2013-10-06 08:58:00,50.7,36.5,29.82,NE,43,5.8,5.8,58,0.00,,,0.00,WeatherDisplay:10.36,2013-10-06 13:58:00,
2013-10-06 08:59:00,50.7,36.5,29.82,NE,35,5.8,5.8,58,0.00,,,0.00,WeatherDisplay:10.36,2013-10-06 13:59:00,
2013-10-06 09:01:00,50.7,36.5,29.82,NE,44,4.0,4.0,58,0.00,,,0.00,WeatherDisplay:10.36,2013-10-06 14:01:00,
2013-10-06 09:02:00,50.5,36.3,29.82,NE,44,2.7,0.0,58,0.00,,,0.00,WeatherDisplay:10.36,2013-10-06 14:02:00,
2013-10-06 09:03:00,50.5,35.9,29.82,NE,43,2.7,0.0,57,0.00,,,0.00,WeatherDisplay:10.36,2013-10-06 14:03:00,
2013-10-06 09:04:00,50.5,36.3,29.82,NE,47,4.6,4.6,58,0.00,,,0.00,WeatherDisplay:10.36,2013-10-06 14:04:00,
2013-10-06 09:05:00,50.5,36.3,29.82,NE,40,4.0,4.0,58,0.00,,,0.00,WeatherDisplay:10.36,2013-10-06 14:05:00,
2013-10-06 09:06:00,50.5,36.3,29.82,NE,41,3.5,0.0,58,0.00,,,0.00,WeatherDisplay:10.36,2013-10-06 14:06:00,
2013-10-06 09:08:00,50.5,35.9,29.82,NE,43,5.8,0.0,57,0.00,,,0.00,WeatherDisplay:10.36,2013-10-06 14:08:00,
2013-10-06 09:09:00,50.5,35.9,29.82,NE,46,5.8,5.8,57,0.00,,,0.00,WeatherDisplay:10.36,2013-10-06 14:09:00,
2013-10-06 09:10:00,50.5,35.9,29.82,NE,42,3.1,3.1,57,0.00,,,0.00,WeatherDisplay:10.36,2013-10-06 14:10:00,
2013-10-06 09:11:00,50.5,35.9,29.82,NE,43,3.5,3.5,57,0.00,,,0.00,WeatherDisplay:10.36,2013-10-06 14:11:00,
2013-10-06 09:12:00,50.5,35.4,29.82,NE,42,4.6,4.6,56,0.00,,,0.00,WeatherDisplay:10.36,2013-10-06 14:12:00,
2013-10-06 09:13:00,50.5,35.4,29.82,NE,43,4.5,0.0,56,0.00,,,0.00,WeatherDisplay:10.36,2013-10-06 14:13:00,
2013-10-06 09:15:00,50.5,35.4,29.82,NE,43,4.6,4.6,56,0.00,,,0.00,WeatherDisplay:10.36,2013-10-06 14:15:00,
2013-10-06 09:16:00,50.5,35.4,29.82,NE,44,2.7,0.0,56,0.00,,,0.00,WeatherDisplay:10.36,2013-10-06 14:16:00,
2013-10-06 09:17:00,50.5,35.4,29.82,NE,42,6.3,6.3,56,0.00,,,0.00,WeatherDisplay:10.36,2013-10-06 14:17:00,
2013-10-06 09:18:00,50.5,35.4,29.82,NE,39,5.8,5.8,56,0.00,,,0.00,WeatherDisplay:10.36,2013-10-06 14:18:00,
2013-10-06 09:19:00,50.5,35.4,29.82,NE,48,5.8,5.8,56,0.00,,,0.00,WeatherDisplay:10.36,2013-10-06 14:19:00,
2013-10-06 09:20:00,50.5,35.4,29.82,NE,46,4.0,4.5,56,0.00,,,0.00,WeatherDisplay:10.36,2013-10-06 14:20:00,
2013-10-06 09:21:00,50.5,35.4,29.82,NE,42,4.0,4.0,56,0.00,,,0.00,WeatherDisplay:10.36,2013-10-06 14:21:00,
2013-10-06 09:23:00,50.5,35.4,29.82,NE,44,6.3,6.3,56,0.00,,,0.00,WeatherDisplay:10.36,2013-10-06 14:23:00,
2013-10-06 09:24:00,50.5,35.4,29.82,NE,41,5.8,5.8,56,0.00,,,0.00,WeatherDisplay:10.36,2013-10-06 14:24:00,
2013-10-06 09:25:00,50.5,35.0,29.82,NE,40,0.0,2.7,55,0.00,,,0.00,WeatherDisplay:10.36,2013-10-06 14:25:00,
2013-10-06 09:26:00,50.7,35.1,29.82,NE,41,5.8,0.0,55,0.00,,,0.00,WeatherDisplay:10.36,2013-10-06 14:26:00,
2013-10-06 09:27:00,50.7,35.1,29.82,NE,46,5.8,5.8,55,0.00,,,0.00,WeatherDisplay:10.36,2013-10-06 14:27:00,
2013-10-06 09:28:00,50.7,35.1,29.82,NE,46,4.0,4.0,55,0.00,,,0.00,WeatherDisplay:10.36,2013-10-06 14:28:00,
2013-10-06 09:29:00,50.7,35.1,29.82,NE,44,4.5,4.5,55,0.00,,,0.00,WeatherDisplay:10.36,2013-10-06 14:29:00,
2013-10-06 09:31:00,50.7,35.1,29.82,NE,45,4.9,4.9,55,0.00,,,0.00,WeatherDisplay:10.36,2013-10-06 14:31:00,
2013-10-06 09:32:00,50.7,35.1,29.82,NE,43,4.6,4.6,55,0.00,,,0.00,WeatherDisplay:10.36,2013-10-06 14:32:00,
2013-10-06 09:33:00,50.7,34.7,29.82,NE,42,6.3,6.3,54,0.00,,,0.00,WeatherDisplay:10.36,2013-10-06 14:33:00,
2013-10-06 09:34:00,50.7,34.7,29.82,NE,45,5.8,5.8,54,0.00,,,0.00,WeatherDisplay:10.36,2013-10-06 14:34:00,
2013-10-06 09:35:00,50.7,34.7,29.82,NE,43,4.9,4.9,54,0.00,,,0.00,WeatherDisplay:10.36,2013-10-06 14:35:00,
2013-10-06 09:36:00,50.7,34.7,29.82,NE,45,4.6,4.6,54,0.00,,,0.00,WeatherDisplay:10.36,2013-10-06 14:36:00,
2013-10-06 09:37:00,50.7,34.2,29.82,NE,44,3.5,3.5,53,0.00,,,0.00,WeatherDisplay:10.36,2013-10-06 14:37:00,
2013-10-06 09:39:00,50.7,34.2,29.82,NE,45,4.6,4.6,53,0.00,,,0.00,WeatherDisplay:10.36,2013-10-06 14:39:00,
2013-10-06 09:40:00,50.7,34.2,29.82,NE,44,4.0,4.0,53,0.00,,,0.00,WeatherDisplay:10.36,2013-10-06 14:40:00,
2013-10-06 09:41:00,50.7,34.2,29.82,NE,39,6.9,6.9,53,0.00,,,0.00,WeatherDisplay:10.36,2013-10-06 14:41:00,
2013-10-06 09:42:00,50.7,34.2,29.82,NE,42,8.1,8.1,53,0.00,,,0.00,WeatherDisplay:10.36,2013-10-06 14:42:00,
2013-10-06 09:43:00,50.7,34.2,29.82,NE,42,4.6,4.6,53,0.00,,,0.00,WeatherDisplay:10.36,2013-10-06 14:43:00,
2013-10-06 09:44:00,50.7,34.2,29.82,NE,44,4.6,4.6,53,0.00,,,0.00,WeatherDisplay:10.36,2013-10-06 14:44:00,
2013-10-06 09:45:00,50.7,34.2,29.82,NE,44,4.5,4.5,53,0.00,,,0.00,WeatherDisplay:10.36,2013-10-06 14:45:00,
2013-10-06 09:47:00,50.9,34.4,29.82,NE,42,5.8,5.8,53,0.00,,,0.00,WeatherDisplay:10.36,2013-10-06 14:47:00,
2013-10-06 09:48:00,50.9,34.4,29.82,NE,43,6.3,6.3,53,0.00,,,0.00,WeatherDisplay:10.36,2013-10-06 14:48:00,
2013-10-06 09:49:00,50.9,34.4,29.82,NE,45,6.9,6.9,53,0.00,,,0.00,WeatherDisplay:10.36,2013-10-06 14:49:00,
2013-10-06 09:50:00,50.7,34.2,29.82,NE,42,5.4,5.4,53,0.00,,,0.00,WeatherDisplay:10.36,2013-10-06 14:50:00,
2013-10-06 09:51:00,50.7,34.2,29.82,NE,48,5.8,5.8,53,0.00,,,0.00,WeatherDisplay:10.36,2013-10-06 14:51:00,
2013-10-06 09:52:00,50.7,34.2,29.82,NE,42,6.9,6.9,53,0.00,,,0.00,WeatherDisplay:10.36,2013-10-06 14:52:00,
2013-10-06 09:54:00,50.7,33.7,29.82,NE,45,6.9,6.9,52,0.00,,,0.00,WeatherDisplay:10.36,2013-10-06 14:54:00,
2013-10-06 09:55:00,50.7,33.7,29.82,NE,41,0.0,3.1,52,0.00,,,0.00,WeatherDisplay:10.36,2013-10-06 14:55:00,
2013-10-06 09:56:00,50.7,33.7,29.82,NE,46,3.5,0.0,52,0.00,,,0.00,WeatherDisplay:10.36,2013-10-06 14:56:00,
2013-10-06 09:57:00,50.7,33.7,29.82,NE,46,7.4,7.4,52,0.00,,,0.00,WeatherDisplay:10.36,2013-10-06 14:57:00,
2013-10-06 09:58:00,50.7,33.7,29.82,NE,44,6.9,6.9,52,0.00,,,0.00,WeatherDisplay:10.36,2013-10-06 14:58:00,
2013-10-06 09:59:00,50.7,34.2,29.82,NE,42,5.8,5.8,53,0.00,,,0.00,WeatherDisplay:10.36,2013-10-06 14:59:00,
2013-10-06 10:00:00,50.7,33.7,29.82,NE,44,4.0,4.0,52,0.00,,,0.00,WeatherDisplay:10.36,2013-10-06 15:00:00,
2013-10-06 10:02:00,50.7,34.2,29.82,NE,46,5.8,5.8,53,0.00,,,0.00,WeatherDisplay:10.36,2013-10-06 15:02:00,
2013-10-06 10:03:00,50.7,34.2,29.82,NE,43,4.0,4.0,53,0.00,,,0.00,WeatherDisplay:10.36,2013-10-06 15:03:00,
2013-10-06 10:04:00,50.7,34.2,29.82,NE,45,3.5,0.0,53,0.00,,,0.00,WeatherDisplay:10.36,2013-10-06 15:04:00,
2013-10-06 10:05:00,50.7,34.2,29.82,NE,46,4.0,0.0,53,0.00,,,0.00,WeatherDisplay:10.36,2013-10-06 15:05:00,
2013-10-06 10:06:00,50.7,34.2,29.82,NE,47,3.6,3.6,53,0.00,,,0.00,WeatherDisplay:10.36,2013-10-06 15:06:00,
2013-10-06 10:07:00,50.7,34.2,29.82,NE,45,3.6,3.6,53,0.00,,,0.00,WeatherDisplay:10.36,2013-10-06 15:07:00,
2013-10-06 10:09:00,50.7,34.2,29.82,NE,46,6.7,6.7,53,0.00,,,0.00,WeatherDisplay:10.36,2013-10-06 15:09:00,
2013-10-06 10:10:00,50.9,34.4,29.82,NE,46,3.1,4.9,53,0.00,,,0.00,WeatherDisplay:10.36,2013-10-06 15:10:00,
2013-10-06 10:11:00,50.9,34.4,29.82,NE,45,5.8,5.8,53,0.00,,,0.00,WeatherDisplay:10.36,2013-10-06 15:11:00,
2013-10-06 10:12:00,50.9,34.4,29.82,NE,43,5.8,5.8,53,0.00,,,0.00,WeatherDisplay:10.36,2013-10-06 15:12:00,
2013-10-06 10:13:00,50.9,34.4,29.82,NE,43,5.8,5.8,53,0.00,,,0.00,WeatherDisplay:10.36,2013-10-06 15:13:00,
2013-10-06 10:14:00,51.1,34.5,29.82,NE,45,5.8,5.8,53,0.00,,,0.00,WeatherDisplay:10.36,2013-10-06 15:14:00,
2013-10-06 10:15:00,51.1,34.1,29.82,NE,46,4.0,4.0,52,0.00,,,0.00,WeatherDisplay:10.36,2013-10-06 15:15:00,
2013-10-06 10:17:00,51.1,34.1,29.82,NE,47,5.8,5.8,52,0.00,,,0.00,WeatherDisplay:10.36,2013-10-06 15:17:00,
2013-10-06 10:18:00,51.1,34.1,29.82,NE,42,4.6,4.6,52,0.00,,,0.00,WeatherDisplay:10.36,2013-10-06 15:18:00,
2013-10-06 10:19:00,51.3,34.7,29.82,NE,44,4.0,4.0,53,0.00,,,0.00,WeatherDisplay:10.36,2013-10-06 15:19:00,
2013-10-06 10:20:00,51.3,34.7,29.82,NE,44,3.6,3.6,53,0.00,,,0.00,WeatherDisplay:10.36,2013-10-06 15:20:00,
2013-10-06 10:21:00,51.4,34.9,29.82,NE,46,5.8,5.8,53,0.00,,,0.00,WeatherDisplay:10.36,2013-10-06 15:21:00,
2013-10-06 10:22:00,51.4,34.9,29.82,NE,42,4.9,4.9,53,0.00,,,0.00,WeatherDisplay:10.36,2013-10-06 15:22:00,
2013-10-06 10:24:00,51.6,35.0,29.82,NE,41,6.7,6.7,53,0.00,,,0.00,WeatherDisplay:10.36,2013-10-06 15:24:00,
2013-10-06 10:25:00,51.6,34.6,29.82,NE,43,3.6,4.5,52,0.00,,,0.00,WeatherDisplay:10.36,2013-10-06 15:25:00,
2013-10-06 10:26:00,51.8,34.7,29.82,NE,45,6.3,6.3,52,0.00,,,0.00,WeatherDisplay:10.36,2013-10-06 15:26:00,
2013-10-06 10:27:00,51.8,34.7,29.82,NE,45,4.6,4.6,52,0.00,,,0.00,WeatherDisplay:10.36,2013-10-06 15:27:00,
2013-10-06 10:28:00,52.0,34.9,29.82,NE,43,5.8,5.8,52,0.00,,,0.00,WeatherDisplay:10.36,2013-10-06 15:28:00,
2013-10-06 10:29:00,52.0,34.9,29.82,NE,45,5.8,5.8,52,0.00,,,0.00,WeatherDisplay:10.36,2013-10-06 15:29:00,
2013-10-06 10:30:00,52.2,34.6,29.82,NE,46,5.8,5.8,51,0.00,,,0.00,WeatherDisplay:10.36,2013-10-06 15:30:00,
2013-10-06 10:32:00,52.2,34.6,29.82,NE,44,9.2,9.2,51,0.00,,,0.00,WeatherDisplay:10.36,2013-10-06 15:32:00,
2013-10-06 10:33:00,52.2,34.6,29.82,NE,45,4.0,4.0,51,0.00,,,0.00,WeatherDisplay:10.36,2013-10-06 15:33:00,
2013-10-06 10:34:00,52.3,34.7,29.82,NE,46,5.8,5.8,51,0.00,,,0.00,WeatherDisplay:10.36,2013-10-06 15:34:00,
2013-10-06 10:35:00,52.3,34.7,29.82,NE,44,3.1,0.0,51,0.00,,,0.00,WeatherDisplay:10.36,2013-10-06 15:35:00,
2013-10-06 10:36:00,52.3,34.7,29.82,NE,47,3.6,3.6,51,0.00,,,0.00,WeatherDisplay:10.36,2013-10-06 15:36:00,
2013-10-06 10:37:00,52.5,34.4,29.82,NE,45,6.9,6.9,50,0.00,,,0.00,WeatherDisplay:10.36,2013-10-06 15:37:00,
2013-10-06 10:38:00,52.5,34.4,29.82,NE,43,6.9,6.9,50,0.00,,,0.00,WeatherDisplay:10.36,2013-10-06 15:38:00,
2013-10-06 10:40:00,52.5,34.4,29.82,NE,45,3.1,0.0,50,0.00,,,0.00,WeatherDisplay:10.36,2013-10-06 15:40:00,
2013-10-06 10:41:00,52.5,34.4,29.82,NE,45,3.6,3.6,50,0.00,,,0.00,WeatherDisplay:10.36,2013-10-06 15:41:00,
2013-10-06 10:42:00,52.7,34.6,29.82,NE,47,4.0,4.0,50,0.00,,,0.00,WeatherDisplay:10.36,2013-10-06 15:42:00,
2013-10-06 10:43:00,52.7,34.6,29.82,NE,46,4.0,0.0,50,0.00,,,0.00,WeatherDisplay:10.36,2013-10-06 15:43:00,
2013-10-06 10:44:00,52.7,34.6,29.82,NE,46,3.6,3.6,50,0.00,,,0.00,WeatherDisplay:10.36,2013-10-06 15:44:00,
2013-10-06 10:45:00,52.7,34.6,29.82,NE,43,5.8,5.8,50,0.00,,,0.00,WeatherDisplay:10.36,2013-10-06 15:45:00,
2013-10-06 10:47:00,52.7,34.1,29.82,NE,43,5.8,5.8,49,0.00,,,0.00,WeatherDisplay:10.36,2013-10-06 15:47:00,
2013-10-06 10:48:00,52.7,34.1,29.82,NE,44,6.9,6.9,49,0.00,,,0.00,WeatherDisplay:10.36,2013-10-06 15:48:00,
2013-10-06 10:49:00,52.7,34.1,29.82,NE,44,4.6,4.6,49,0.00,,,0.00,WeatherDisplay:10.36,2013-10-06 15:49:00,
2013-10-06 10:50:00,52.7,34.1,29.82,NE,43,3.1,4.0,49,0.00,,,0.00,WeatherDisplay:10.36,2013-10-06 15:50:00,
2013-10-06 10:51:00,52.7,34.1,29.82,NE,42,3.5,0.0,49,0.00,,,0.00,WeatherDisplay:10.36,2013-10-06 15:51:00,
2013-10-06 10:52:00,52.9,34.2,29.82,NE,47,4.5,0.0,49,0.00,,,0.00,WeatherDisplay:10.36,2013-10-06 15:52:00,
2013-10-06 10:53:00,52.9,33.7,29.82,NE,45,8.1,8.1,48,0.00,,,0.00,WeatherDisplay:10.36,2013-10-06 15:53:00,
2013-10-06 10:55:00,52.9,33.7,29.82,NE,44,0.0,3.6,48,0.00,,,0.00,WeatherDisplay:10.36,2013-10-06 15:55:00,
2013-10-06 10:56:00,52.9,33.7,29.82,NE,39,9.2,9.2,48,0.00,,,0.00,WeatherDisplay:10.36,2013-10-06 15:56:00,
2013-10-06 10:57:00,52.9,33.7,29.82,NE,45,6.3,6.3,48,0.00,,,0.00,WeatherDisplay:10.36,2013-10-06 15:57:00,
2013-10-06 10:58:00,52.9,33.2,29.82,NE,42,5.8,5.8,47,0.00,,,0.00,WeatherDisplay:10.36,2013-10-06 15:58:00,
2013-10-06 10:59:00,52.9,33.2,29.82,NE,47,7.4,7.4,47,0.00,,,0.00,WeatherDisplay:10.36,2013-10-06 15:59:00,
2013-10-06 11:00:00,52.9,33.2,29.82,NE,47,0.0,0.0,47,0.00,,,0.00,WeatherDisplay:10.36,2013-10-06 16:00:00,
2013-10-06 11:01:00,52.9,33.7,29.82,NE,46,0.0,0.0,48,0.00,,,0.00,WeatherDisplay:10.36,2013-10-06 16:01:00,
2013-10-06 11:03:00,52.9,33.7,29.82,NE,43,2.7,0.0,48,0.00,,,0.00,WeatherDisplay:10.36,2013-10-06 16:03:00,
2013-10-06 11:04:00,53.1,33.9,29.82,NE,45,3.5,0.0,48,0.00,,,0.00,WeatherDisplay:10.36,2013-10-06 16:04:00,
2013-10-06 11:05:00,53.1,33.9,29.82,NE,43,3.1,3.6,48,0.00,,,0.00,WeatherDisplay:10.36,2013-10-06 16:05:00,
2013-10-06 11:06:00,53.1,33.9,29.82,NE,42,3.6,0.0,48,0.00,,,0.00,WeatherDisplay:10.36,2013-10-06 16:06:00,
2013-10-06 11:07:00,53.1,33.9,29.82,NE,45,3.5,3.5,48,0.00,,,0.00,WeatherDisplay:10.36,2013-10-06 16:07:00,
2013-10-06 11:08:00,53.1,33.9,29.82,NE,42,2.7,0.0,48,0.00,,,0.00,WeatherDisplay:10.36,2013-10-06 16:08:00,
2013-10-06 11:10:00,53.1,33.9,29.82,NE,43,4.5,4.5,48,0.00,,,0.00,WeatherDisplay:10.36,2013-10-06 16:10:00,
2013-10-06 11:11:00,53.1,33.9,29.82,NE,44,6.9,6.9,48,0.00,,,0.00,WeatherDisplay:10.36,2013-10-06 16:11:00,
2013-10-06 11:12:00,53.1,33.9,29.82,NE,48,5.8,5.8,48,0.00,,,0.00,WeatherDisplay:10.36,2013-10-06 16:12:00,
2013-10-06 11:13:00,53.1,33.9,29.82,NE,43,9.2,9.2,48,0.00,,,0.00,WeatherDisplay:10.36,2013-10-06 16:13:00,
2013-10-06 11:14:00,53.1,33.9,29.82,NE,43,8.1,8.1,48,0.00,,,0.00,WeatherDisplay:10.36,2013-10-06 16:14:00,
2013-10-06 11:15:00,52.9,33.7,29.82,NE,42,5.8,5.8,48,0.00,,,0.00,WeatherDisplay:10.36,2013-10-06 16:15:00,
2013-10-06 11:16:00,52.9,33.7,29.82,NE,47,6.9,6.9,48,0.00,,,0.00,WeatherDisplay:10.36,2013-10-06 16:16:00,
2013-10-06 11:18:00,52.9,33.7,29.82,NE,45,6.9,0.0,48,0.00,,,0.00,WeatherDisplay:10.36,2013-10-06 16:18:00,
2013-10-06 11:19:00,52.9,33.7,29.82,NE,47,4.9,4.9,48,0.00,,,0.00,WeatherDisplay:10.36,2013-10-06 16:19:00,
2013-10-06 11:20:00,53.1,33.9,29.82,NE,46,3.6,3.6,48,0.00,,,0.00,WeatherDisplay:10.36,2013-10-06 16:20:00,
2013-10-06 11:21:00,53.1,33.9,29.82,NE,47,4.6,4.6,48,0.00,,,0.00,WeatherDisplay:10.36,2013-10-06 16:21:00,
2013-10-06 11:22:00,53.1,33.9,29.79,NE,42,2.7,0.0,48,0.00,,,0.00,WeatherDisplay:10.36,2013-10-06 16:22:00,
2013-10-06 11:23:00,53.2,34.0,29.79,NE,45,8.3,0.0,48,0.00,,,0.00,WeatherDisplay:10.36,2013-10-06 16:23:00,
2013-10-06 11:25:00,53.2,34.0,29.79,NE,44,10.4,10.4,48,0.00,,,0.00,WeatherDisplay:10.36,2013-10-06 16:25:00,
2013-10-06 11:26:00,53.4,34.2,29.79,NE,41,4.9,0.0,48,0.00,,,0.00,WeatherDisplay:10.36,2013-10-06 16:26:00,
2013-10-06 11:27:00,53.6,34.4,29.79,NE,41,5.8,5.8,48,0.00,,,0.00,WeatherDisplay:10.36,2013-10-06 16:27:00,
2013-10-06 11:28:00,53.8,34.5,29.79,NE,40,5.8,5.8,48,0.00,,,0.00,WeatherDisplay:10.36,2013-10-06 16:28:00,
2013-10-06 11:29:00,54.0,34.7,29.79,NE,47,9.2,9.2,48,0.00,,,0.00,WeatherDisplay:10.36,2013-10-06 16:29:00,
2013-10-06 11:30:00,54.0,34.7,29.79,NE,44,5.8,5.8,48,0.00,,,0.00,WeatherDisplay:10.36,2013-10-06 16:30:00,
2013-10-06 11:31:00,54.1,34.9,29.79,NE,44,5.8,5.8,48,0.00,,,0.00,WeatherDisplay:10.36,2013-10-06 16:31:00,
2013-10-06 11:33:00,54.1,34.3,29.79,NE,47,4.9,4.9,47,0.00,,,0.00,WeatherDisplay:10.36,2013-10-06 16:33:00,
2013-10-06 11:34:00,54.1,34.3,29.79,NE,43,6.3,6.3,47,0.00,,,0.00,WeatherDisplay:10.36,2013-10-06 16:34:00,
2013-10-06 11:35:00,54.3,34.5,29.79,NE,42,0.0,2.7,47,0.00,,,0.00,WeatherDisplay:10.36,2013-10-06 16:35:00,
2013-10-06 11:36:00,54.3,34.5,29.79,NE,43,4.5,0.0,47,0.00,,,0.00,WeatherDisplay:10.36,2013-10-06 16:36:00,
2013-10-06 11:37:00,54.1,34.3,29.82,NE,42,4.6,4.6,47,0.00,,,0.00,WeatherDisplay:10.36,2013-10-06 16:37:00,
2013-10-06 11:38:00,54.1,34.3,29.82,NE,43,9.6,0.0,47,0.00,,,0.00,WeatherDisplay:10.36,2013-10-06 16:38:00,
2013-10-06 11:39:00,54.1,34.3,29.82,NE,42,9.2,9.2,47,0.00,,,0.00,WeatherDisplay:10.36,2013-10-06 16:39:00,
2013-10-06 11:41:00,54.1,33.8,29.82,NE,45,4.9,0.0,46,0.00,,,0.00,WeatherDisplay:10.36,2013-10-06 16:41:00,
2013-10-06 11:42:00,54.0,34.2,29.82,NE,42,3.6,0.0,47,0.00,,,0.00,WeatherDisplay:10.36,2013-10-06 16:42:00,
2013-10-06 11:43:00,54.0,34.2,29.82,NE,45,3.6,3.6,47,0.00,,,0.00,WeatherDisplay:10.36,2013-10-06 16:43:00,
2013-10-06 11:44:00,53.8,34.0,29.82,NE,42,5.8,5.8,47,0.00,,,0.00,WeatherDisplay:10.36,2013-10-06 16:44:00,
2013-10-06 11:45:00,53.8,34.0,29.82,NE,45,3.1,3.1,47,0.00,,,0.00,WeatherDisplay:10.36,2013-10-06 16:45:00,
2013-10-06 11:46:00,53.8,34.0,29.82,NE,45,5.4,0.0,47,0.00,,,0.00,WeatherDisplay:10.36,2013-10-06 16:46:00,
2013-10-06 11:48:00,53.8,34.0,29.82,NE,46,5.8,5.8,47,0.00,,,0.00,WeatherDisplay:10.36,2013-10-06 16:48:00,
2013-10-06 11:49:00,53.6,33.8,29.82,NE,42,4.9,4.9,47,0.00,,,0.00,WeatherDisplay:10.36,2013-10-06 16:49:00,
2013-10-06 11:50:00,53.6,33.8,29.82,NE,42,2.7,3.6,47,0.00,,,0.00,WeatherDisplay:10.36,2013-10-06 16:50:00,
2013-10-06 11:51:00,53.6,33.8,29.82,NE,44,3.5,0.0,47,0.00,,,0.00,WeatherDisplay:10.36,2013-10-06 16:51:00,
2013-10-06 11:52:00,53.4,33.7,29.79,NE,41,3.1,0.0,47,0.00,,,0.00,WeatherDisplay:10.36,2013-10-06 16:52:00,
2013-10-06 11:53:00,53.4,33.7,29.79,NE,42,7.8,0.0,47,0.00,,,0.00,WeatherDisplay:10.36,2013-10-06 16:53:00,
2013-10-06 11:54:00,53.4,33.7,29.79,NE,44,8.3,8.3,47,0.00,,,0.00,WeatherDisplay:10.36,2013-10-06 16:54:00,
2013-10-06 11:56:00,53.4,33.7,29.79,NE,47,4.0,4.0,47,0.00,,,0.00,WeatherDisplay:10.36,2013-10-06 16:56:00,
2013-10-06 11:57:00,53.4,33.7,29.79,NE,45,3.6,3.6,47,0.00,,,0.00,WeatherDisplay:10.36,2013-10-06 16:57:00,
2013-10-06 11:58:00,53.2,33.5,29.79,NE,46,2.7,0.0,47,0.00,,,0.00,WeatherDisplay:10.36,2013-10-06 16:58:00,
2013-10-06 11:59:00,53.2,33.5,29.79,NE,45,4.0,0.0,47,0.00,,,0.00,WeatherDisplay:10.36,2013-10-06 16:59:00,
2013-10-06 12:00:00,53.2,34.0,29.79,NNE,32,2.7,2.7,48,0.00,,,0.00,WeatherDisplay:10.36,2013-10-06 17:00:00,
2013-10-06 12:02:00,53.2,34.0,29.79,NE,43,4.0,4.0,48,0.00,,,0.00,WeatherDisplay:10.36,2013-10-06 17:02:00,
2013-10-06 12:03:00,53.2,34.0,29.79,NE,41,3.1,0.0,48,0.00,,,0.00,WeatherDisplay:10.36,2013-10-06 17:03:00,
2013-10-06 12:04:00,53.2,34.0,29.79,NE,42,6.3,6.3,48,0.00,,,0.00,WeatherDisplay:10.36,2013-10-06 17:04:00,
2013-10-06 12:05:00,53.2,34.0,29.79,NE,47,2.7,0.0,48,0.00,,,0.00,WeatherDisplay:10.36,2013-10-06 17:05:00,
2013-10-06 12:06:00,53.2,34.0,29.79,NE,43,2.3,0.0,48,0.00,,,0.00,WeatherDisplay:10.36,2013-10-06 17:06:00,
2013-10-06 12:08:00,53.2,34.0,29.79,NE,46,4.6,4.6,48,0.00,,,0.00,WeatherDisplay:10.36,2013-10-06 17:08:00,
2013-10-06 12:09:00,53.2,34.0,29.79,NE,43,3.5,0.0,48,0.00,,,0.00,WeatherDisplay:10.36,2013-10-06 17:09:00,
2013-10-06 12:10:00,53.2,34.0,29.79,NE,44,0.0,0.0,48,0.00,,,0.00,WeatherDisplay:10.36,2013-10-06 17:10:00,
2013-10-06 12:11:00,53.2,34.0,29.79,NE,45,4.9,4.9,48,0.00,,,0.00,WeatherDisplay:10.36,2013-10-06 17:11:00,
2013-10-06 12:12:00,53.2,34.0,29.79,NE,42,4.0,4.0,48,0.00,,,0.00,WeatherDisplay:10.36,2013-10-06 17:12:00,
2013-10-06 12:13:00,53.4,34.7,29.79,NE,46,2.7,0.0,49,0.00,,,0.00,WeatherDisplay:10.36,2013-10-06 17:13:00,
2013-10-06 12:15:00,53.4,34.7,29.79,NE,43,0.0,0.0,49,0.00,,,0.00,WeatherDisplay:10.36,2013-10-06 17:15:00,
2013-10-06 12:16:00,53.6,34.9,29.79,NE,43,4.9,4.9,49,0.00,,,0.00,WeatherDisplay:10.36,2013-10-06 17:16:00,
2013-10-06 12:17:00,53.6,34.9,29.79,NE,43,8.3,8.3,49,0.00,,,0.00,WeatherDisplay:10.36,2013-10-06 17:17:00,
2013-10-06 12:18:00,53.8,35.1,29.79,NE,43,8.1,8.1,49,0.00,,,0.00,WeatherDisplay:10.36,2013-10-06 17:18:00,
2013-10-06 12:19:00,53.8,35.1,29.79,NE,46,6.3,0.0,49,0.00,,,0.00,WeatherDisplay:10.36,2013-10-06 17:19:00,
2013-10-06 12:20:00,53.8,34.5,29.79,NE,45,0.0,3.1,48,0.00,,,0.00,WeatherDisplay:10.36,2013-10-06 17:20:00,
2013-10-06 12:21:00,53.8,34.5,29.79,NE,46,3.1,3.1,48,0.00,,,0.00,WeatherDisplay:10.36,2013-10-06 17:21:00,
2013-10-06 12:23:00,53.8,34.5,29.79,NE,47,4.0,4.0,48,0.00,,,0.00,WeatherDisplay:10.36,2013-10-06 17:23:00,
2013-10-06 12:24:00,53.8,34.5,29.79,NE,47,0.0,0.0,48,0.00,,,0.00,WeatherDisplay:10.36,2013-10-06 17:24:00,
2013-10-06 12:25:00,53.8,34.5,29.79,NE,46,0.0,0.0,48,0.00,,,0.00,WeatherDisplay:10.36,2013-10-06 17:25:00,
2013-10-06 12:26:00,53.8,34.5,29.79,NE,47,0.0,0.0,48,0.00,,,0.00,WeatherDisplay:10.36,2013-10-06 17:26:00,
2013-10-06 12:27:00,53.8,34.5,29.79,NE,47,0.0,0.0,48,0.00,,,0.00,WeatherDisplay:10.36,2013-10-06 17:27:00,
2013-10-06 12:28:00,53.8,35.1,29.79,NE,44,0.0,0.0,49,0.00,,,0.00,WeatherDisplay:10.36,2013-10-06 17:28:00,
2013-10-06 12:29:00,53.8,35.1,29.79,NE,44,4.5,4.5,49,0.00,,,0.00,WeatherDisplay:10.36,2013-10-06 17:29:00,
2013-10-06 12:31:00,53.8,35.1,29.79,NE,44,0.0,0.0,49,0.00,,,0.00,WeatherDisplay:10.36,2013-10-06 17:31:00,
2013-10-06 12:32:00,53.8,35.1,29.79,NE,48,4.0,0.0,49,0.00,,,0.00,WeatherDisplay:10.36,2013-10-06 17:32:00,
2013-10-06 12:33:00,53.8,35.1,29.79,NE,45,3.6,3.6,49,0.00,,,0.00,WeatherDisplay:10.36,2013-10-06 17:33:00,
2013-10-06 12:34:00,53.8,35.1,29.79,NE,47,4.0,0.0,49,0.00,,,0.00,WeatherDisplay:10.36,2013-10-06 17:34:00,
2013-10-06 12:35:00,53.6,34.9,29.79,NE,41,4.9,4.9,49,0.00,,,0.00,WeatherDisplay:10.36,2013-10-06 17:35:00,
2013-10-06 12:36:00,53.6,34.9,29.79,NE,47,8.3,8.3,49,0.00,,,0.00,WeatherDisplay:10.36,2013-10-06 17:36:00,
2013-10-06 12:38:00,53.4,34.7,29.82,NE,43,8.1,8.1,49,0.00,,,0.00,WeatherDisplay:10.36,2013-10-06 17:38:00,
2013-10-06 12:39:00,53.4,35.2,29.82,NE,45,7.4,7.4,50,0.00,,,0.00,WeatherDisplay:10.36,2013-10-06 17:39:00,
2013-10-06 12:40:00,53.2,35.1,29.82,NE,47,0.0,4.0,50,0.00,,,0.00,WeatherDisplay:10.36,2013-10-06 17:40:00,
2013-10-06 12:41:00,53.2,35.1,29.82,NE,46,4.0,4.0,50,0.00,,,0.00,WeatherDisplay:10.36,2013-10-06 17:41:00,
2013-10-06 12:42:00,53.2,35.1,29.82,NE,44,3.5,0.0,50,0.00,,,0.00,WeatherDisplay:10.36,2013-10-06 17:42:00,
2013-10-06 12:43:00,53.1,35.4,29.82,NE,46,3.1,0.0,51,0.00,,,0.00,WeatherDisplay:10.36,2013-10-06 17:43:00,
2013-10-06 12:44:00,53.1,35.4,29.82,NE,45,4.0,0.0,51,0.00,,,0.00,WeatherDisplay:10.36,2013-10-06 17:44:00,
2013-10-06 12:46:00,53.1,35.9,29.82,NE,45,3.6,0.0,52,0.00,,,0.00,WeatherDisplay:10.36,2013-10-06 17:46:00,
2013-10-06 12:47:00,53.1,35.9,29.82,NE,44,6.3,6.3,52,0.00,,,0.00,WeatherDisplay:10.36,2013-10-06 17:47:00,
2013-10-06 12:48:00,53.1,36.4,29.82,NE,49,4.5,4.5,53,0.00,,,0.00,WeatherDisplay:10.36,2013-10-06 17:48:00,
2013-10-06 12:49:00,53.1,36.4,29.82,NE,40,4.6,0.0,53,0.00,,,0.00,WeatherDisplay:10.36,2013-10-06 17:49:00,
2013-10-06 12:50:00,53.1,36.4,29.82,NE,46,4.9,4.9,53,0.00,,,0.00,WeatherDisplay:10.36,2013-10-06 17:50:00,
2013-10-06 12:51:00,53.2,37.0,29.82,NE,47,4.6,0.0,54,0.00,,,0.00,WeatherDisplay:10.36,2013-10-06 17:51:00,
2013-10-06 12:53:00,53.2,37.0,29.79,NE,44,4.9,4.9,54,0.00,,,0.00,WeatherDisplay:10.36,2013-10-06 17:53:00,
2013-10-06 12:54:00,53.4,37.6,29.79,NE,41,5.8,5.8,55,0.00,,,0.00,WeatherDisplay:10.36,2013-10-06 17:54:00,
2013-10-06 12:55:00,53.6,37.8,29.79,NE,46,3.1,3.6,55,0.00,,,0.00,WeatherDisplay:10.36,2013-10-06 17:55:00,
2013-10-06 12:56:00,53.6,37.8,29.79,NE,44,3.6,3.6,55,0.00,,,0.00,WeatherDisplay:10.36,2013-10-06 17:56:00,
2013-10-06 12:57:00,53.8,38.4,29.79,NE,49,5.4,5.4,56,0.00,,,0.00,WeatherDisplay:10.36,2013-10-06 17:57:00,
2013-10-06 12:58:00,53.8,38.4,29.79,NE,45,5.8,5.8,56,0.00,,,0.00,WeatherDisplay:10.36,2013-10-06 17:58:00,
2013-10-06 12:59:00,54.0,38.6,29.79,NE,41,4.6,0.0,56,0.00,,,0.00,WeatherDisplay:10.36,2013-10-06 17:59:00,
2013-10-06 13:01:00,54.0,39.1,29.79,NE,43,4.6,0.0,57,0.00,,,0.00,WeatherDisplay:10.36,2013-10-06 18:01:00,
2013-10-06 13:02:00,54.0,39.1,29.79,NE,45,3.6,0.0,57,0.00,,,0.00,WeatherDisplay:10.36,2013-10-06 18:02:00,
2013-10-06 13:03:00,54.1,39.2,29.79,NE,45,5.8,5.8,57,0.00,,,0.00,WeatherDisplay:10.36,2013-10-06 18:03:00,
2013-10-06 13:04:00,54.1,39.2,29.79,NE,38,5.8,5.8,57,0.00,,,0.00,WeatherDisplay:10.36,2013-10-06 18:04:00,
2013-10-06 13:05:00,54.1,39.7,29.79,NE,37,5.8,5.8,58,0.00,,,0.00,WeatherDisplay:10.36,2013-10-06 18:05:00,
2013-10-06 13:06:00,54.1,39.7,29.79,NE,41,5.8,5.8,58,0.00,,,0.00,WeatherDisplay:10.36,2013-10-06 18:06:00,
2013-10-06 13:07:00,54.3,39.8,29.79,NE,43,6.3,6.3,58,0.00,,,0.00,WeatherDisplay:10.36,2013-10-06 18:07:00,
2013-10-06 13:09:00,54.3,39.8,29.79,NE,41,6.9,6.9,58,0.00,,,0.00,WeatherDisplay:10.36,2013-10-06 18:09:00,
2013-10-06 13:10:00,54.3,39.8,29.79,NE,45,3.1,4.0,58,0.00,,,0.00,WeatherDisplay:10.36,2013-10-06 18:10:00,
2013-10-06 13:11:00,54.5,39.6,29.79,NE,37,6.9,6.9,57,0.00,,,0.00,WeatherDisplay:10.36,2013-10-06 18:11:00,
2013-10-06 13:12:00,54.5,39.6,29.79,NE,41,6.9,6.9,57,0.00,,,0.00,WeatherDisplay:10.36,2013-10-06 18:12:00,
2013-10-06 13:13:00,54.5,39.6,29.79,NE,41,6.9,6.9,57,0.00,,,0.00,WeatherDisplay:10.36,2013-10-06 18:13:00,
2013-10-06 13:14:00,54.7,39.3,29.79,NE,42,5.4,5.4,56,0.00,,,0.00,WeatherDisplay:10.36,2013-10-06 18:14:00,
2013-10-06 13:15:00,54.7,39.3,29.79,NE,45,4.0,4.0,56,0.00,,,0.00,WeatherDisplay:10.36,2013-10-06 18:15:00,
2013-10-06 13:17:00,54.9,39.5,29.79,NE,43,4.0,4.0,56,0.00,,,0.00,WeatherDisplay:10.36,2013-10-06 18:17:00,
2013-10-06 13:18:00,54.9,39.5,29.79,NE,45,5.8,5.8,56,0.00,,,0.00,WeatherDisplay:10.36,2013-10-06 18:18:00,
2013-10-06 13:19:00,55.0,39.6,29.79,NE,40,4.9,4.9,56,0.00,,,0.00,WeatherDisplay:10.36,2013-10-06 18:19:00,
2013-10-06 13:20:00,55.0,39.6,29.79,NE,46,4.0,4.0,56,0.00,,,0.00,WeatherDisplay:10.36,2013-10-06 18:20:00,
2013-10-06 13:21:00,55.0,39.6,29.79,NE,44,4.6,0.0,56,0.00,,,0.00,WeatherDisplay:10.36,2013-10-06 18:21:00,
2013-10-06 13:22:00,55.0,39.6,29.79,NE,47,3.5,0.0,56,0.00,,,0.00,WeatherDisplay:10.36,2013-10-06 18:22:00,
2013-10-06 13:24:00,55.0,39.6,29.79,NE,43,2.7,0.0,56,0.00,,,0.00,WeatherDisplay:10.36,2013-10-06 18:24:00,
2013-10-06 13:25:00,55.0,39.2,29.79,NE,46,6.3,0.0,55,0.00,,,0.00,WeatherDisplay:10.36,2013-10-06 18:25:00,
2013-10-06 13:26:00,55.0,39.2,29.79,NE,44,11.6,11.6,55,0.00,,,0.00,WeatherDisplay:10.36,2013-10-06 18:26:00,
2013-10-06 13:27:00,55.0,39.2,29.79,NE,43,6.7,6.7,55,0.00,,,0.00,WeatherDisplay:10.36,2013-10-06 18:27:00,
2013-10-06 13:28:00,54.9,38.5,29.79,NE,41,6.9,6.9,54,0.00,,,0.00,WeatherDisplay:10.36,2013-10-06 18:28:00,
2013-10-06 13:29:00,54.9,38.5,29.79,NE,41,6.9,6.9,54,0.00,,,0.00,WeatherDisplay:10.36,2013-10-06 18:29:00,
2013-10-06 13:31:00,54.7,38.4,29.79,NE,44,9.2,9.2,54,0.00,,,0.00,WeatherDisplay:10.36,2013-10-06 18:31:00,
2013-10-06 13:32:00,54.7,38.4,29.79,NE,44,6.9,6.9,54,0.00,,,0.00,WeatherDisplay:10.36,2013-10-06 18:32:00,
2013-10-06 13:33:00,54.7,38.4,29.79,NE,45,3.5,0.0,54,0.00,,,0.00,WeatherDisplay:10.36,2013-10-06 18:33:00,
2013-10-06 13:34:00,54.7,38.4,29.79,NE,43,3.5,0.0,54,0.00,,,0.00,WeatherDisplay:10.36,2013-10-06 18:34:00,
2013-10-06 13:35:00,54.7,38.8,29.79,NNE,29,2.7,0.0,55,0.00,,,0.00,WeatherDisplay:10.36,2013-10-06 18:35:00,
2013-10-06 13:36:00,54.7,38.8,29.79,NE,42,5.4,0.0,55,0.00,,,0.00,WeatherDisplay:10.36,2013-10-06 18:36:00,
2013-10-06 13:37:00,54.7,38.8,29.79,NE,42,5.8,0.0,55,0.00,,,0.00,WeatherDisplay:10.36,2013-10-06 18:37:00,
2013-10-06 13:39:00,54.9,39.0,29.79,NE,43,3.5,3.5,55,0.00,,,0.00,WeatherDisplay:10.36,2013-10-06 18:39:00,
2013-10-06 13:40:00,54.9,39.5,29.79,NE,41,2.7,2.7,56,0.00,,,0.00,WeatherDisplay:10.36,2013-10-06 18:40:00,
2013-10-06 13:41:00,55.0,39.6,29.79,NE,47,4.5,4.5,56,0.00,,,0.00,WeatherDisplay:10.36,2013-10-06 18:41:00,
2013-10-06 13:42:00,55.0,39.6,29.79,NE,42,4.6,4.6,56,0.00,,,0.00,WeatherDisplay:10.36,2013-10-06 18:42:00,
2013-10-06 13:43:00,55.0,39.6,29.79,NE,46,2.7,0.0,56,0.00,,,0.00,WeatherDisplay:10.36,2013-10-06 18:43:00,
2013-10-06 13:44:00,55.2,39.8,29.79,NE,45,2.3,0.0,56,0.00,,,0.00,WeatherDisplay:10.36,2013-10-06 18:44:00,
2013-10-06 13:45:00,55.2,39.8,29.79,NE,42,2.7,0.0,56,0.00,,,0.00,WeatherDisplay:10.36,2013-10-06 18:45:00,
2013-10-06 13:47:00,55.4,40.0,29.79,NE,47,2.7,0.0,56,0.00,,,0.00,WeatherDisplay:10.36,2013-10-06 18:47:00,
2013-10-06 13:48:00,55.4,40.0,29.79,NE,44,2.3,0.0,56,0.00,,,0.00,WeatherDisplay:10.36,2013-10-06 18:48:00,
2013-10-06 13:49:00,55.4,40.0,29.79,NE,47,13.0,0.0,56,0.00,,,0.00,WeatherDisplay:10.36,2013-10-06 18:49:00,
2013-10-06 13:50:00,55.4,39.5,29.79,NE,42,0.0,6.3,55,0.00,,,0.00,WeatherDisplay:10.36,2013-10-06 18:50:00,
2013-10-06 13:51:00,55.4,39.5,29.79,NE,45,2.7,0.0,55,0.00,,,0.00,WeatherDisplay:10.36,2013-10-06 18:51:00,
2013-10-06 13:52:00,55.4,39.0,29.79,NE,47,5.8,5.8,54,0.00,,,0.00,WeatherDisplay:10.36,2013-10-06 18:52:00,
2013-10-06 13:54:00,55.4,39.0,29.79,NE,37,7.4,7.4,54,0.00,,,0.00,WeatherDisplay:10.36,2013-10-06 18:54:00,
2013-10-06 13:55:00,55.2,38.9,29.79,NE,42,0.0,3.1,54,0.00,,,0.00,WeatherDisplay:10.36,2013-10-06 18:55:00,
2013-10-06 13:56:00,55.2,38.4,29.79,NE,42,4.0,4.0,53,0.00,,,0.00,WeatherDisplay:10.36,2013-10-06 18:56:00,
2013-10-06 13:57:00,55.0,38.2,29.79,NE,44,4.6,4.6,53,0.00,,,0.00,WeatherDisplay:10.36,2013-10-06 18:57:00,
2013-10-06 13:58:00,55.0,38.2,29.79,NE,44,7.4,0.0,53,0.00,,,0.00,WeatherDisplay:10.36,2013-10-06 18:58:00,
2013-10-06 13:59:00,54.9,38.0,29.79,NE,42,5.4,5.4,53,0.00,,,0.00,WeatherDisplay:10.36,2013-10-06 18:59:00,
2013-10-06 14:00:00,54.9,38.0,29.79,NE,46,3.6,0.0,53,0.00,,,0.00,WeatherDisplay:10.36,2013-10-06 19:00:00,
2013-10-06 14:02:00,54.9,38.0,29.79,NE,46,3.5,0.0,53,0.00,,,0.00,WeatherDisplay:10.36,2013-10-06 19:02:00,
2013-10-06 14:03:00,54.9,38.0,29.79,NE,47,2.7,0.0,53,0.00,,,0.00,WeatherDisplay:10.36,2013-10-06 19:03:00,
2013-10-06 14:04:00,54.9,38.0,29.79,NE,47,0.0,0.0,53,0.00,,,0.00,WeatherDisplay:10.36,2013-10-06 19:04:00,
2013-10-06 14:05:00,54.9,38.0,29.79,NE,47,0.0,0.0,53,0.00,,,0.00,WeatherDisplay:10.36,2013-10-06 19:05:00,
2013-10-06 14:06:00,55.0,38.7,29.79,NE,46,0.0,0.0,54,0.00,,,0.00,WeatherDisplay:10.36,2013-10-06 19:06:00,
2013-10-06 14:07:00,55.0,38.7,29.79,NE,46,0.0,0.0,54,0.00,,,0.00,WeatherDisplay:10.36,2013-10-06 19:07:00,
2013-10-06 14:09:00,55.0,38.7,29.79,NE,48,0.0,0.0,54,0.00,,,0.00,WeatherDisplay:10.36,2013-10-06 19:09:00,
2013-10-06 14:10:00,55.0,38.7,29.79,NE,45,0.0,0.0,54,0.00,,,0.00,WeatherDisplay:10.36,2013-10-06 19:10:00,
2013-10-06 14:11:00,54.9,38.5,29.79,NE,45,0.0,0.0,54,0.00,,,0.00,WeatherDisplay:10.36,2013-10-06 19:11:00,
2013-10-06 14:12:00,54.9,38.5,29.79,NE,47,3.6,0.0,54,0.00,,,0.00,WeatherDisplay:10.36,2013-10-06 19:12:00,
2013-10-06 14:13:00,54.9,38.5,29.79,NE,45,3.5,3.5,54,0.00,,,0.00,WeatherDisplay:10.36,2013-10-06 19:13:00,
2013-10-06 14:14:00,54.9,38.5,29.79,NE,44,0.0,0.0,54,0.00,,,0.00,WeatherDisplay:10.36,2013-10-06 19:14:00,
2013-10-06 14:15:00,54.9,38.5,29.79,NE,49,0.0,0.0,54,0.00,,,0.00,WeatherDisplay:10.36,2013-10-06 19:15:00,
2013-10-06 14:17:00,54.9,38.5,29.79,NE,45,0.0,0.0,54,0.00,,,0.00,WeatherDisplay:10.36,2013-10-06 19:17:00,
2013-10-06 14:18:00,54.9,39.0,29.79,NE,44,2.7,0.0,55,0.00,,,0.00,WeatherDisplay:10.36,2013-10-06 19:18:00,
2013-10-06 14:19:00,54.9,39.0,29.79,NE,49,4.0,0.0,55,0.00,,,0.00,WeatherDisplay:10.36,2013-10-06 19:19:00,
2013-10-06 14:20:00,54.7,38.8,29.79,NE,45,0.0,3.1,55,0.00,,,0.00,WeatherDisplay:10.36,2013-10-06 19:20:00,
2013-10-06 14:21:00,54.7,38.8,29.79,NE,47,3.1,0.0,55,0.00,,,0.00,WeatherDisplay:10.36,2013-10-06 19:21:00,
2013-10-06 14:22:00,54.7,38.8,29.79,NE,45,3.5,0.0,55,0.00,,,0.00,WeatherDisplay:10.36,2013-10-06 19:22:00,
2013-10-06 14:24:00,54.7,38.8,29.79,NE,47,0.0,0.0,55,0.00,,,0.00,WeatherDisplay:10.36,2013-10-06 19:24:00,
2013-10-06 14:25:00,54.7,39.3,29.79,NE,45,0.0,0.0,56,0.00,,,0.00,WeatherDisplay:10.36,2013-10-06 19:25:00,
2013-10-06 14:26:00,54.5,39.1,29.79,NE,40,3.5,0.0,56,0.00,,,0.00,WeatherDisplay:10.36,2013-10-06 19:26:00,
2013-10-06 14:27:00,54.5,39.1,29.79,NE,34,4.0,4.0,56,0.00,,,0.00,WeatherDisplay:10.36,2013-10-06 19:27:00,
2013-10-06 14:28:00,54.5,39.1,29.79,NE,45,3.5,3.5,56,0.00,,,0.00,WeatherDisplay:10.36,2013-10-06 19:28:00,
2013-10-06 14:29:00,54.5,39.6,29.79,NE,45,3.5,0.0,57,0.00,,,0.00,WeatherDisplay:10.36,2013-10-06 19:29:00,
2013-10-06 14:30:00,54.5,39.6,29.79,NE,45,0.0,0.0,57,0.00,,,0.00,WeatherDisplay:10.36,2013-10-06 19:30:00,
2013-10-06 14:32:00,54.5,39.6,29.79,NE,42,0.0,0.0,57,0.00,,,0.00,WeatherDisplay:10.36,2013-10-06 19:32:00,
2013-10-06 14:33:00,54.3,39.8,29.79,NE,43,0.0,0.0,58,0.00,,,0.00,WeatherDisplay:10.36,2013-10-06 19:33:00,
2013-10-06 14:34:00,54.3,39.8,29.79,NE,44,0.0,0.0,58,0.00,,,0.00,WeatherDisplay:10.36,2013-10-06 19:34:00,
2013-10-06 14:35:00,54.3,39.8,29.79,NE,44,2.7,0.0,58,0.00,,,0.00,WeatherDisplay:10.36,2013-10-06 19:35:00,
2013-10-06 14:36:00,54.3,39.8,29.79,NE,40,4.5,4.5,58,0.00,,,0.00,WeatherDisplay:10.36,2013-10-06 19:36:00,
2013-10-06 14:37:00,54.3,39.8,29.79,NE,40,4.6,0.0,58,0.00,,,0.00,WeatherDisplay:10.36,2013-10-06 19:37:00,
2013-10-06 14:38:00,54.3,40.3,29.79,NE,43,0.0,0.0,59,0.00,,,0.00,WeatherDisplay:10.36,2013-10-06 19:38:00,
2013-10-06 14:40:00,54.3,40.3,29.79,NE,45,3.1,3.1,59,0.00,,,0.00,WeatherDisplay:10.36,2013-10-06 19:40:00,
2013-10-06 14:41:00,54.3,40.3,29.79,NE,48,4.9,4.9,59,0.00,,,0.00,WeatherDisplay:10.36,2013-10-06 19:41:00,
2013-10-06 14:42:00,54.3,40.3,29.79,NE,48,5.8,5.8,59,0.00,,,0.00,WeatherDisplay:10.36,2013-10-06 19:42:00,
2013-10-06 14:43:00,54.3,40.3,29.79,NE,42,3.6,3.6,59,0.00,,,0.00,WeatherDisplay:10.36,2013-10-06 19:43:00,
2013-10-06 14:44:00,54.3,40.7,29.79,NE,42,4.0,0.0,60,0.00,,,0.00,WeatherDisplay:10.36,2013-10-06 19:44:00,
2013-10-06 14:45:00,54.3,40.7,29.79,NE,43,3.1,0.0,60,0.00,,,0.00,WeatherDisplay:10.36,2013-10-06 19:45:00,
2013-10-06 14:47:00,54.3,40.7,29.79,NE,43,4.0,4.0,60,0.00,,,0.00,WeatherDisplay:10.36,2013-10-06 19:47:00,
2013-10-06 14:48:00,54.3,40.7,29.79,NE,45,4.0,0.0,60,0.00,,,0.00,WeatherDisplay:10.36,2013-10-06 19:48:00,
2013-10-06 14:49:00,54.5,40.9,29.79,NE,43,4.9,4.9,60,0.00,,,0.00,WeatherDisplay:10.36,2013-10-06 19:49:00,
2013-10-06 14:50:00,54.5,41.3,29.79,NE,41,5.8,5.8,61,0.00,,,0.00,WeatherDisplay:10.36,2013-10-06 19:50:00,
2013-10-06 14:51:00,54.5,41.3,29.79,NE,43,5.8,5.8,61,0.00,,,0.00,WeatherDisplay:10.36,2013-10-06 19:51:00,
2013-10-06 14:52:00,54.7,41.5,29.79,NE,43,3.5,0.0,61,0.00,,,0.00,WeatherDisplay:10.36,2013-10-06 19:52:00,
2013-10-06 14:54:00,54.7,41.5,29.79,NE,43,5.8,5.8,61,0.00,,,0.00,WeatherDisplay:10.36,2013-10-06 19:54:00,
2013-10-06 14:55:00,54.9,41.7,29.79,NE,44,5.4,5.4,61,0.00,,,0.00,WeatherDisplay:10.36,2013-10-06 19:55:00,
2013-10-06 14:56:00,54.9,41.7,29.79,NE,43,5.8,5.8,61,0.00,,,0.00,WeatherDisplay:10.36,2013-10-06 19:56:00,
2013-10-06 14:57:00,54.9,41.7,29.79,NE,44,4.5,0.0,61,0.00,,,0.00,WeatherDisplay:10.36,2013-10-06 19:57:00,
2013-10-06 14:58:00,55.0,41.8,29.79,NE,47,5.8,5.8,61,0.00,,,0.00,WeatherDisplay:10.36,2013-10-06 19:58:00,
2013-10-06 14:59:00,55.0,41.8,29.79,NE,48,5.8,5.8,61,0.00,,,0.00,WeatherDisplay:10.36,2013-10-06 19:59:00,
2013-10-06 15:00:00,55.0,41.8,29.79,NE,49,4.9,4.9,61,0.00,,,0.00,WeatherDisplay:10.36,2013-10-06 20:00:00,
2013-10-06 15:02:00,55.2,42.0,29.79,NE,48,4.6,4.6,61,0.00,,,0.00,WeatherDisplay:10.36,2013-10-06 20:02:00,
2013-10-06 15:03:00,55.2,41.6,29.79,NE,46,6.3,0.0,60,0.00,,,0.00,WeatherDisplay:10.36,2013-10-06 20:03:00,
2013-10-06 15:04:00,55.2,41.6,29.79,NE,46,6.7,6.7,60,0.00,,,0.00,WeatherDisplay:10.36,2013-10-06 20:04:00,
2013-10-06 15:05:00,55.4,41.7,29.79,NE,43,3.6,3.6,60,0.00,,,0.00,WeatherDisplay:10.36,2013-10-06 20:05:00,
2013-10-06 15:06:00,55.4,41.3,29.79,NE,44,5.4,5.4,59,0.00,,,0.00,WeatherDisplay:10.36,2013-10-06 20:06:00,
2013-10-06 15:07:00,55.4,41.3,29.79,NE,43,5.8,5.8,59,0.00,,,0.00,WeatherDisplay:10.36,2013-10-06 20:07:00,
2013-10-06 15:09:00,55.2,40.7,29.79,NE,45,4.6,4.6,58,0.00,,,0.00,WeatherDisplay:10.36,2013-10-06 20:09:00,
2013-10-06 15:10:00,55.2,40.2,29.79,NE,45,2.7,0.0,57,0.00,,,0.00,WeatherDisplay:10.36,2013-10-06 20:10:00,
2013-10-06 15:11:00,55.2,40.2,29.79,NE,45,5.8,5.8,57,0.00,,,0.00,WeatherDisplay:10.36,2013-10-06 20:11:00,
2013-10-06 15:12:00,55.2,40.2,29.79,NE,44,4.5,4.5,57,0.00,,,0.00,WeatherDisplay:10.36,2013-10-06 20:12:00,
2013-10-06 15:13:00,55.2,40.2,29.79,NE,43,4.6,0.0,57,0.00,,,0.00,WeatherDisplay:10.36,2013-10-06 20:13:00,
2013-10-06 15:14:00,55.0,39.6,29.79,NE,43,2.3,0.0,56,0.00,,,0.00,WeatherDisplay:10.36,2013-10-06 20:14:00,
2013-10-06 15:15:00,55.0,39.6,29.79,NE,45,0.0,0.0,56,0.00,,,0.00,WeatherDisplay:10.36,2013-10-06 20:15:00,
2013-10-06 15:17:00,55.0,39.6,29.79,NE,42,4.9,0.0,56,0.00,,,0.00,WeatherDisplay:10.36,2013-10-06 20:17:00,
2013-10-06 15:18:00,55.0,39.6,29.79,NE,42,3.6,0.0,56,0.00,,,0.00,WeatherDisplay:10.36,2013-10-06 20:18:00,
2013-10-06 15:19:00,55.0,39.2,29.79,NE,45,3.5,3.5,55,0.00,,,0.00,WeatherDisplay:10.36,2013-10-06 20:19:00,
2013-10-06 15:20:00,55.0,39.2,29.79,NE,45,0.0,0.0,55,0.00,,,0.00,WeatherDisplay:10.36,2013-10-06 20:20:00,
2013-10-06 15:21:00,55.0,39.2,29.79,NE,46,6.3,6.3,55,0.00,,,0.00,WeatherDisplay:10.36,2013-10-06 20:21:00,
2013-10-06 15:22:00,55.0,39.2,29.79,NE,46,8.1,8.1,55,0.00,,,0.00,WeatherDisplay:10.36,2013-10-06 20:22:00,
2013-10-06 15:23:00,55.0,38.7,29.79,NE,42,5.8,5.8,54,0.00,,,0.00,WeatherDisplay:10.36,2013-10-06 20:23:00,
2013-10-06 15:25:00,55.0,38.7,29.79,NE,47,0.0,3.6,54,0.00,,,0.00,WeatherDisplay:10.36,2013-10-06 20:25:00,
2013-10-06 15:26:00,54.9,38.0,29.79,NE,45,5.8,5.8,53,0.00,,,0.00,WeatherDisplay:10.36,2013-10-06 20:26:00,
2013-10-06 15:27:00,54.9,38.0,29.79,NE,46,4.9,4.9,53,0.00,,,0.00,WeatherDisplay:10.36,2013-10-06 20:27:00,
2013-10-06 15:28:00,54.9,38.0,29.79,NE,45,7.4,7.4,53,0.00,,,0.00,WeatherDisplay:10.36,2013-10-06 20:28:00,
2013-10-06 15:29:00,54.7,37.4,29.79,NE,46,6.9,0.0,52,0.00,,,0.00,WeatherDisplay:10.36,2013-10-06 20:29:00,
2013-10-06 15:30:00,54.7,37.4,29.79,NE,43,4.0,0.0,52,0.00,,,0.00,WeatherDisplay:10.36,2013-10-06 20:30:00,
2013-10-06 15:31:00,54.5,37.2,29.79,NE,44,4.9,0.0,52,0.00,,,0.00,WeatherDisplay:10.36,2013-10-06 20:31:00,
2013-10-06 15:33:00,54.5,37.2,29.79,NE,45,5.8,5.8,52,0.00,,,0.00,WeatherDisplay:10.36,2013-10-06 20:33:00,
2013-10-06 15:34:00,54.5,37.2,29.79,NE,44,0.0,0.0,52,0.00,,,0.00,WeatherDisplay:10.36,2013-10-06 20:34:00,
2013-10-06 15:35:00,54.5,37.2,29.79,NE,46,0.0,0.0,52,0.00,,,0.00,WeatherDisplay:10.36,2013-10-06 20:35:00,
2013-10-06 15:36:00,54.5,37.2,29.79,NE,48,6.3,6.3,52,0.00,,,0.00,WeatherDisplay:10.36,2013-10-06 20:36:00,
2013-10-06 15:37:00,54.5,37.7,29.79,NE,46,5.8,5.8,53,0.00,,,0.00,WeatherDisplay:10.36,2013-10-06 20:37:00,
2013-10-06 15:38:00,54.3,37.5,29.79,NE,48,3.6,0.0,53,0.00,,,0.00,WeatherDisplay:10.36,2013-10-06 20:38:00,
2013-10-06 15:40:00,54.3,37.5,29.79,NE,41,3.6,3.6,53,0.00,,,0.00,WeatherDisplay:10.36,2013-10-06 20:40:00,
2013-10-06 15:41:00,54.3,37.5,29.79,NE,46,3.5,0.0,53,0.00,,,0.00,WeatherDisplay:10.36,2013-10-06 20:41:00,
2013-10-06 15:42:00,54.1,37.4,29.79,NE,47,0.0,0.0,53,0.00,,,0.00,WeatherDisplay:10.36,2013-10-06 20:42:00,
2013-10-06 15:43:00,54.1,37.4,29.79,NE,45,3.6,0.0,53,0.00,,,0.00,WeatherDisplay:10.36,2013-10-06 20:43:00,
2013-10-06 15:44:00,54.1,37.4,29.79,NE,44,3.5,0.0,53,0.00,,,0.00,WeatherDisplay:10.36,2013-10-06 20:44:00,
2013-10-06 15:45:00,54.1,37.4,29.79,NE,47,0.0,0.0,53,0.00,,,0.00,WeatherDisplay:10.36,2013-10-06 20:45:00,
2013-10-06 15:46:00,54.0,37.2,29.79,NE,46,3.1,0.0,53,0.00,,,0.00,WeatherDisplay:10.36,2013-10-06 20:46:00,
2013-10-06 15:48:00,54.0,37.2,29.79,NE,45,4.0,0.0,53,0.00,,,0.00,WeatherDisplay:10.36,2013-10-06 20:48:00,
2013-10-06 15:49:00,53.8,37.0,29.79,NE,45,6.9,6.9,53,0.00,,,0.00,WeatherDisplay:10.36,2013-10-06 20:49:00,
2013-10-06 15:50:00,53.8,37.0,29.79,NE,41,3.1,3.1,53,0.00,,,0.00,WeatherDisplay:10.36,2013-10-06 20:50:00,
2013-10-06 15:51:00,53.8,37.0,29.79,NE,43,3.5,0.0,53,0.00,,,0.00,WeatherDisplay:10.36,2013-10-06 20:51:00,
2013-10-06 15:52:00,53.8,37.0,29.82,NE,45,4.0,0.0,53,0.00,,,0.00,WeatherDisplay:10.36,2013-10-06 20:52:00,
2013-10-06 15:53:00,53.8,37.0,29.82,NE,46,4.0,0.0,53,0.00,,,0.00,WeatherDisplay:10.36,2013-10-06 20:53:00,
2013-10-06 15:54:00,53.6,36.9,29.82,NE,46,3.6,3.6,53,0.00,,,0.00,WeatherDisplay:10.36,2013-10-06 20:54:00,
2013-10-06 15:56:00,53.6,36.9,29.82,NE,45,3.5,0.0,53,0.00,,,0.00,WeatherDisplay:10.36,2013-10-06 20:56:00,
2013-10-06 15:57:00,53.6,36.9,29.82,NE,43,2.7,0.0,53,0.00,,,0.00,WeatherDisplay:10.36,2013-10-06 20:57:00,
2013-10-06 15:58:00,53.6,36.9,29.82,NE,47,2.7,0.0,53,0.00,,,0.00,WeatherDisplay:10.36,2013-10-06 20:58:00,
2013-10-06 15:59:00,53.6,36.9,29.82,NE,47,0.0,0.0,53,0.00,,,0.00,WeatherDisplay:10.36,2013-10-06 20:59:00,
2013-10-06 16:00:00,53.6,36.9,29.82,NE,46,3.1,0.0,53,0.00,,,0.00,WeatherDisplay:10.36,2013-10-06 21:00:00,
2013-10-06 16:01:00,53.6,36.9,29.82,NE,45,3.6,3.6,53,0.00,,,0.00,WeatherDisplay:10.36,2013-10-06 21:01:00,
2013-10-06 16:03:00,53.6,36.9,29.82,NE,45,3.6,0.0,53,0.00,,,0.00,WeatherDisplay:10.36,2013-10-06 21:03:00,
2013-10-06 16:04:00,53.6,36.9,29.82,NNE,33,4.0,4.0,53,0.00,,,0.00,WeatherDisplay:10.36,2013-10-06 21:04:00,
2013-10-06 16:05:00,53.6,36.9,29.82,NE,46,4.0,0.0,53,0.00,,,0.00,WeatherDisplay:10.36,2013-10-06 21:05:00,
2013-10-06 16:06:00,53.6,37.3,29.82,NE,46,4.9,4.9,54,0.00,,,0.00,WeatherDisplay:10.36,2013-10-06 21:06:00,
2013-10-06 16:07:00,53.4,37.2,29.82,NE,47,3.5,0.0,54,0.00,,,0.00,WeatherDisplay:10.36,2013-10-06 21:07:00,
2013-10-06 16:08:00,53.4,37.2,29.82,NE,47,2.3,0.0,54,0.00,,,0.00,WeatherDisplay:10.36,2013-10-06 21:08:00,
2013-10-06 16:09:00,53.2,37.0,29.82,NE,46,3.1,0.0,54,0.00,,,0.00,WeatherDisplay:10.36,2013-10-06 21:09:00,
2013-10-06 16:11:00,53.2,37.0,29.82,NE,45,3.6,0.0,54,0.00,,,0.00,WeatherDisplay:10.36,2013-10-06 21:11:00,
2013-10-06 16:12:00,53.1,37.3,29.82,NE,45,4.0,0.0,55,0.00,,,0.00,WeatherDisplay:10.36,2013-10-06 21:12:00,
2013-10-06 16:13:00,53.1,37.3,29.82,NE,47,3.5,3.5,55,0.00,,,0.00,WeatherDisplay:10.36,2013-10-06 21:13:00,
2013-10-06 16:14:00,53.1,37.3,29.82,NE,47,4.5,4.5,55,0.00,,,0.00,WeatherDisplay:10.36,2013-10-06 21:14:00,
2013-10-06 16:15:00,53.1,37.8,29.82,NE,47,0.0,0.0,56,0.00,,,0.00,WeatherDisplay:10.36,2013-10-06 21:15:00,
2013-10-06 16:16:00,53.1,37.8,29.82,NE,46,3.1,0.0,56,0.00,,,0.00,WeatherDisplay:10.36,2013-10-06 21:16:00,
2013-10-06 16:18:00,53.1,37.8,29.82,NE,46,3.6,0.0,56,0.00,,,0.00,WeatherDisplay:10.36,2013-10-06 21:18:00,
2013-10-06 16:19:00,53.1,37.8,29.82,NE,47,3.5,3.5,56,0.00,,,0.00,WeatherDisplay:10.36,2013-10-06 21:19:00,
2013-10-06 16:20:00,53.1,38.2,29.82,NE,45,0.0,0.0,57,0.00,,,0.00,WeatherDisplay:10.36,2013-10-06 21:20:00,
2013-10-06 16:21:00,53.1,38.2,29.82,NE,45,3.5,0.0,57,0.00,,,0.00,WeatherDisplay:10.36,2013-10-06 21:21:00,
2013-10-06 16:22:00,53.1,38.2,29.82,NE,42,3.5,0.0,57,0.00,,,0.00,WeatherDisplay:10.36,2013-10-06 21:22:00,
2013-10-06 16:23:00,53.1,38.2,29.82,NE,44,3.1,0.0,57,0.00,,,0.00,WeatherDisplay:10.36,2013-10-06 21:23:00,
2013-10-06 16:24:00,53.1,38.2,29.82,NE,47,3.5,0.0,57,0.00,,,0.00,WeatherDisplay:10.36,2013-10-06 21:24:00,
2013-10-06 16:26:00,53.1,38.7,29.82,NE,48,3.6,0.0,58,0.00,,,0.00,WeatherDisplay:10.36,2013-10-06 21:26:00,
2013-10-06 16:27:00,53.1,38.7,29.82,NE,41,3.5,3.5,58,0.00,,,0.00,WeatherDisplay:10.36,2013-10-06 21:27:00,
2013-10-06 16:28:00,53.1,38.7,29.82,NE,44,3.5,0.0,58,0.00,,,0.00,WeatherDisplay:10.36,2013-10-06 21:28:00,
2013-10-06 16:29:00,53.1,38.7,29.82,NE,47,4.0,4.0,58,0.00,,,0.00,WeatherDisplay:10.36,2013-10-06 21:29:00,
2013-10-06 16:30:00,53.1,38.7,29.82,NE,43,3.1,3.1,58,0.00,,,0.00,WeatherDisplay:10.36,2013-10-06 21:30:00,
2013-10-06 16:31:00,53.1,38.7,29.82,NE,46,3.5,0.0,58,0.00,,,0.00,WeatherDisplay:10.36,2013-10-06 21:31:00,
2013-10-06 16:32:00,53.1,38.7,29.82,NE,46,3.6,0.0,58,0.00,,,0.00,WeatherDisplay:10.36,2013-10-06 21:32:00,
2013-10-06 16:34:00,53.1,39.1,29.82,NE,48,2.3,0.0,59,0.00,,,0.00,WeatherDisplay:10.36,2013-10-06 21:34:00,
2013-10-06 16:35:00,53.1,39.1,29.82,NE,48,0.0,0.0,59,0.00,,,0.00,WeatherDisplay:10.36,2013-10-06 21:35:00,
2013-10-06 16:36:00,52.9,38.9,29.82,NE,46,0.0,0.0,59,0.00,,,0.00,WeatherDisplay:10.36,2013-10-06 21:36:00,
2013-10-06 16:37:00,52.9,38.9,29.82,NE,48,0.0,0.0,59,0.00,,,0.00,WeatherDisplay:10.36,2013-10-06 21:37:00,
2013-10-06 16:38:00,52.9,38.9,29.82,NE,48,0.0,0.0,59,0.00,,,0.00,WeatherDisplay:10.36,2013-10-06 21:38:00,
2013-10-06 16:39:00,53.1,39.1,29.82,NE,47,3.1,0.0,59,0.00,,,0.00,WeatherDisplay:10.36,2013-10-06 21:39:00,
2013-10-06 16:41:00,53.1,39.1,29.82,NE,47,0.0,0.0,59,0.00,,,0.00,WeatherDisplay:10.36,2013-10-06 21:41:00,
2013-10-06 16:42:00,53.1,39.1,29.82,NE,47,0.0,0.0,59,0.00,,,0.00,WeatherDisplay:10.36,2013-10-06 21:42:00,
2013-10-06 16:43:00,53.1,39.5,29.82,NE,49,0.0,0.0,60,0.00,,,0.00,WeatherDisplay:10.36,2013-10-06 21:43:00,
2013-10-06 16:44:00,53.1,39.5,29.82,NE,48,0.0,0.0,60,0.00,,,0.00,WeatherDisplay:10.36,2013-10-06 21:44:00,
2013-10-06 16:45:00,53.1,39.5,29.82,NE,49,0.0,0.0,60,0.00,,,0.00,WeatherDisplay:10.36,2013-10-06 21:45:00,
2013-10-06 16:46:00,53.2,39.7,29.82,NE,45,0.0,0.0,60,0.00,,,0.00,WeatherDisplay:10.36,2013-10-06 21:46:00,
2013-10-06 16:47:00,53.2,39.7,29.82,NE,47,0.0,0.0,60,0.00,,,0.00,WeatherDisplay:10.36,2013-10-06 21:47:00,
2013-10-06 16:49:00,53.2,39.7,29.82,NE,46,0.0,0.0,60,0.00,,,0.00,WeatherDisplay:10.36,2013-10-06 21:49:00,
2013-10-06 16:50:00,53.2,39.7,29.82,NE,48,0.0,0.0,60,0.00,,,0.00,WeatherDisplay:10.36,2013-10-06 21:50:00,
2013-10-06 16:51:00,53.2,40.1,29.82,NE,45,0.0,0.0,61,0.00,,,0.00,WeatherDisplay:10.36,2013-10-06 21:51:00,
2013-10-06 16:52:00,53.2,40.1,29.82,NE,46,0.0,0.0,61,0.00,,,0.00,WeatherDisplay:10.36,2013-10-06 21:52:00,
2013-10-06 16:53:00,53.2,40.1,29.82,NE,45,0.0,0.0,61,0.00,,,0.00,WeatherDisplay:10.36,2013-10-06 21:53:00,
2013-10-06 16:54:00,53.2,40.1,29.82,NE,48,0.0,0.0,61,0.00,,,0.00,WeatherDisplay:10.36,2013-10-06 21:54:00,
2013-10-06 16:55:00,53.2,40.1,29.82,NE,47,0.0,0.0,61,0.00,,,0.00,WeatherDisplay:10.36,2013-10-06 21:55:00,
2013-10-06 16:57:00,53.2,40.1,29.82,NE,46,3.6,0.0,61,0.00,,,0.00,WeatherDisplay:10.36,2013-10-06 21:57:00,
2013-10-06 16:58:00,53.2,40.1,29.82,NE,44,3.6,3.6,61,0.00,,,0.00,WeatherDisplay:10.36,2013-10-06 21:58:00,
2013-10-06 16:59:00,53.2,40.1,29.82,NE,44,0.0,0.0,61,0.00,,,0.00,WeatherDisplay:10.36,2013-10-06 21:59:00,
2013-10-06 17:00:00,53.2,40.1,29.82,NE,47,0.0,0.0,61,0.00,,,0.00,WeatherDisplay:10.36,2013-10-06 22:00:00,
2013-10-06 17:01:00,53.2,40.1,29.82,NE,46,0.0,0.0,61,0.00,,,0.00,WeatherDisplay:10.36,2013-10-06 22:01:00,
2013-10-06 17:02:00,53.2,40.1,29.82,NE,42,3.1,0.0,61,0.00,,,0.00,WeatherDisplay:10.36,2013-10-06 22:02:00,
2013-10-06 17:04:00,53.1,40.0,29.82,NE,42,3.5,0.0,61,0.00,,,0.00,WeatherDisplay:10.36,2013-10-06 22:04:00,
2013-10-06 17:05:00,53.1,40.0,29.82,NE,44,0.0,0.0,61,0.00,,,0.00,WeatherDisplay:10.36,2013-10-06 22:05:00,
2013-10-06 17:06:00,53.1,40.0,29.82,NE,45,2.7,0.0,61,0.00,,,0.00,WeatherDisplay:10.36,2013-10-06 22:06:00,
2013-10-06 17:07:00,53.1,40.4,29.82,NE,45,0.0,0.0,62,0.00,,,0.00,WeatherDisplay:10.36,2013-10-06 22:07:00,
2013-10-06 17:08:00,53.1,40.4,29.82,NE,47,3.1,0.0,62,0.00,,,0.00,WeatherDisplay:10.36,2013-10-06 22:08:00,
2013-10-06 17:09:00,53.1,40.4,29.82,NE,43,4.9,4.9,62,0.00,,,0.00,WeatherDisplay:10.36,2013-10-06 22:09:00,
2013-10-06 17:10:00,53.1,40.4,29.82,NE,45,2.7,3.1,62,0.00,,,0.00,WeatherDisplay:10.36,2013-10-06 22:10:00,
2013-10-06 17:12:00,52.9,40.2,29.82,NE,43,3.6,0.0,62,0.00,,,0.00,WeatherDisplay:10.36,2013-10-06 22:12:00,
2013-10-06 17:13:00,52.9,40.2,29.82,NE,42,0.0,0.0,62,0.00,,,0.00,WeatherDisplay:10.36,2013-10-06 22:13:00,
2013-10-06 17:14:00,52.9,40.2,29.82,NE,40,4.0,4.0,62,0.00,,,0.00,WeatherDisplay:10.36,2013-10-06 22:14:00,
2013-10-06 17:15:00,52.9,40.2,29.82,NE,43,0.0,0.0,62,0.00,,,0.00,WeatherDisplay:10.36,2013-10-06 22:15:00,
2013-10-06 17:16:00,52.9,40.6,29.82,NE,44,3.5,0.0,63,0.00,,,0.00,WeatherDisplay:10.36,2013-10-06 22:16:00,
2013-10-06 17:17:00,52.9,40.6,29.82,NE,44,2.3,0.0,63,0.00,,,0.00,WeatherDisplay:10.36,2013-10-06 22:17:00,
2013-10-06 17:19:00,52.9,40.6,29.82,NE,43,0.0,0.0,63,0.00,,,0.00,WeatherDisplay:10.36,2013-10-06 22:19:00,
2013-10-06 17:20:00,52.9,40.6,29.82,NE,43,0.0,0.0,63,0.00,,,0.00,WeatherDisplay:10.36,2013-10-06 22:20:00,
2013-10-06 17:21:00,52.9,40.6,29.82,NE,43,0.0,0.0,63,0.00,,,0.00,WeatherDisplay:10.36,2013-10-06 22:21:00,
2013-10-06 17:22:00,52.9,40.6,29.82,NE,44,0.0,0.0,63,0.00,,,0.00,WeatherDisplay:10.36,2013-10-06 22:22:00,
2013-10-06 17:23:00,52.9,40.6,29.82,NE,45,0.0,0.0,63,0.00,,,0.00,WeatherDisplay:10.36,2013-10-06 22:23:00,
2013-10-06 17:24:00,52.9,40.6,29.82,NE,43,0.0,0.0,63,0.00,,,0.00,WeatherDisplay:10.36,2013-10-06 22:24:00,
2013-10-06 17:25:00,52.7,40.5,29.82,NE,43,0.0,0.0,63,0.00,,,0.00,WeatherDisplay:10.36,2013-10-06 22:25:00,
2013-10-06 17:27:00,52.7,40.5,29.82,NE,43,0.0,0.0,63,0.00,,,0.00,WeatherDisplay:10.36,2013-10-06 22:27:00,
2013-10-06 17:28:00,52.7,40.5,29.82,NE,42,4.6,0.0,63,0.00,,,0.00,WeatherDisplay:10.36,2013-10-06 22:28:00,
2013-10-06 17:29:00,52.7,40.9,29.82,NE,49,4.9,4.9,64,0.00,,,0.00,WeatherDisplay:10.36,2013-10-06 22:29:00,
2013-10-06 17:30:00,52.7,40.9,29.82,NE,45,0.0,0.0,64,0.00,,,0.00,WeatherDisplay:10.36,2013-10-06 22:30:00,
2013-10-06 17:31:00,52.7,40.9,29.82,NE,45,0.0,0.0,64,0.00,,,0.00,WeatherDisplay:10.36,2013-10-06 22:31:00,
2013-10-06 17:32:00,52.7,40.9,29.82,NE,44,0.0,0.0,64,0.00,,,0.00,WeatherDisplay:10.36,2013-10-06 22:32:00,
2013-10-06 17:33:00,52.7,41.3,29.82,NE,46,0.0,0.0,65,0.00,,,0.00,WeatherDisplay:10.36,2013-10-06 22:33:00,
2013-10-06 17:35:00,52.7,41.3,29.82,NE,43,0.0,0.0,65,0.00,,,0.00,WeatherDisplay:10.36,2013-10-06 22:35:00,
2013-10-06 17:36:00,52.7,41.3,29.82,NE,43,0.0,0.0,65,0.00,,,0.00,WeatherDisplay:10.36,2013-10-06 22:36:00,
2013-10-06 17:37:00,52.7,41.3,29.82,NE,44,2.7,0.0,65,0.00,,,0.00,WeatherDisplay:10.36,2013-10-06 22:37:00,
2013-10-06 17:38:00,52.5,41.1,29.82,NE,43,3.5,0.0,65,0.00,,,0.00,WeatherDisplay:10.36,2013-10-06 22:38:00,
2013-10-06 17:39:00,52.5,41.1,29.82,NE,46,4.0,0.0,65,0.00,,,0.00,WeatherDisplay:10.36,2013-10-06 22:39:00,
2013-10-06 17:40:00,52.5,41.1,29.82,NE,43,0.0,2.7,65,0.00,,,0.00,WeatherDisplay:10.36,2013-10-06 22:40:00,
2013-10-06 17:42:00,52.5,41.1,29.82,NE,42,3.6,0.0,65,0.00,,,0.00,WeatherDisplay:10.36,2013-10-06 22:42:00,
2013-10-06 17:43:00,52.5,41.1,29.82,NE,42,0.0,0.0,65,0.00,,,0.00,WeatherDisplay:10.36,2013-10-06 22:43:00,
2013-10-06 17:44:00,52.5,41.5,29.82,NE,41,3.6,0.0,66,0.00,,,0.00,WeatherDisplay:10.36,2013-10-06 22:44:00,
2013-10-06 17:45:00,52.5,41.5,29.82,NE,41,0.0,0.0,66,0.00,,,0.00,WeatherDisplay:10.36,2013-10-06 22:45:00,
2013-10-06 17:46:00,52.5,41.5,29.82,NE,41,4.0,4.0,66,0.00,,,0.00,WeatherDisplay:10.36,2013-10-06 22:46:00,
2013-10-06 17:47:00,52.5,41.5,29.82,NE,41,3.5,0.0,66,0.00,,,0.00,WeatherDisplay:10.36,2013-10-06 22:47:00,
2013-10-06 17:48:00,52.5,41.5,29.82,NE,44,0.0,0.0,66,0.00,,,0.00,WeatherDisplay:10.36,2013-10-06 22:48:00,
2013-10-06 17:50:00,52.5,41.5,29.82,NE,42,3.1,0.0,66,0.00,,,0.00,WeatherDisplay:10.36,2013-10-06 22:50:00,
2013-10-06 17:51:00,52.5,41.5,29.82,NE,42,3.5,0.0,66,0.00,,,0.00,WeatherDisplay:10.36,2013-10-06 22:51:00,
2013-10-06 17:52:00,52.5,41.5,29.82,NE,44,3.6,3.6,66,0.00,,,0.00,WeatherDisplay:10.36,2013-10-06 22:52:00,
2013-10-06 17:53:00,52.5,41.5,29.82,NE,43,3.6,3.6,66,0.00,,,0.00,WeatherDisplay:10.36,2013-10-06 22:53:00,
2013-10-06 17:54:00,52.5,41.5,29.82,NE,41,5.4,5.4,66,0.00,,,0.00,WeatherDisplay:10.36,2013-10-06 22:54:00,
2013-10-06 17:55:00,52.5,41.9,29.82,NE,43,0.0,0.0,67,0.00,,,0.00,WeatherDisplay:10.36,2013-10-06 22:55:00,
2013-10-06 17:56:00,52.5,41.9,29.82,NE,43,0.0,0.0,67,0.00,,,0.00,WeatherDisplay:10.36,2013-10-06 22:56:00,
2013-10-06 17:58:00,52.5,41.9,29.82,NE,43,0.0,0.0,67,0.00,,,0.00,WeatherDisplay:10.36,2013-10-06 22:58:00,
2013-10-06 17:59:00,52.5,41.9,29.82,NE,45,0.0,0.0,67,0.00,,,0.00,WeatherDisplay:10.36,2013-10-06 22:59:00,
2013-10-06 18:00:00,52.5,41.9,29.82,NE,41,3.1,0.0,67,0.00,,,0.00,WeatherDisplay:10.36,2013-10-06 23:00:00,
2013-10-06 18:01:00,52.5,41.9,29.82,NE,42,4.5,4.5,67,0.00,,,0.00,WeatherDisplay:10.36,2013-10-06 23:01:00,
2013-10-06 18:02:00,52.5,41.9,29.82,NE,43,4.6,0.0,67,0.00,,,0.00,WeatherDisplay:10.36,2013-10-06 23:02:00,
2013-10-06 18:03:00,52.3,41.7,29.82,NE,41,0.0,0.0,67,0.00,,,0.00,WeatherDisplay:10.36,2013-10-06 23:03:00,
2013-10-06 18:05:00,52.3,41.7,29.82,NE,43,0.0,0.0,67,0.00,,,0.00,WeatherDisplay:10.36,2013-10-06 23:05:00,
2013-10-06 18:06:00,52.3,41.7,29.82,NE,42,0.0,0.0,67,0.00,,,0.00,WeatherDisplay:10.36,2013-10-06 23:06:00,
2013-10-06 18:07:00,52.3,41.7,29.82,NE,40,4.6,4.6,67,0.00,,,0.00,WeatherDisplay:10.36,2013-10-06 23:07:00,
2013-10-06 18:08:00,52.3,42.1,29.82,NE,42,3.5,0.0,68,0.00,,,0.00,WeatherDisplay:10.36,2013-10-06 23:08:00,
2013-10-06 18:09:00,52.3,42.1,29.82,NE,42,4.0,4.0,68,0.00,,,0.00,WeatherDisplay:10.36,2013-10-06 23:09:00,
2013-10-06 18:10:00,52.3,42.1,29.82,NE,42,0.0,0.0,68,0.00,,,0.00,WeatherDisplay:10.36,2013-10-06 23:10:00,
2013-10-06 18:12:00,52.3,42.1,29.82,NE,41,0.0,0.0,68,0.00,,,0.00,WeatherDisplay:10.36,2013-10-06 23:12:00,
2013-10-06 18:13:00,52.3,42.1,29.82,NE,42,4.0,0.0,68,0.00,,,0.00,WeatherDisplay:10.36,2013-10-06 23:13:00,
2013-10-06 18:14:00,52.3,42.1,29.82,NE,42,4.0,4.0,68,0.00,,,0.00,WeatherDisplay:10.36,2013-10-06 23:14:00,
2013-10-06 18:15:00,52.2,41.9,29.82,NE,46,3.6,3.6,68,0.00,,,0.00,WeatherDisplay:10.36,2013-10-06 23:15:00,
2013-10-06 18:16:00,52.2,42.3,29.82,NE,47,3.5,0.0,69,0.00,,,0.00,WeatherDisplay:10.36,2013-10-06 23:16:00,
2013-10-06 18:17:00,52.2,42.3,29.82,NE,42,3.6,3.6,69,0.00,,,0.00,WeatherDisplay:10.36,2013-10-06 23:17:00,
2013-10-06 18:18:00,52.2,42.3,29.82,NE,41,3.5,0.0,69,0.00,,,0.00,WeatherDisplay:10.36,2013-10-06 23:18:00,
2013-10-06 18:20:00,52.2,42.3,29.82,NE,41,4.5,0.0,69,0.00,,,0.00,WeatherDisplay:10.36,2013-10-06 23:20:00,
2013-10-06 18:21:00,52.2,42.3,29.82,NE,41,3.5,0.0,69,0.00,,,0.00,WeatherDisplay:10.36,2013-10-06 23:21:00,
2013-10-06 18:22:00,52.2,42.3,29.82,NE,41,3.5,0.0,69,0.00,,,0.00,WeatherDisplay:10.36,2013-10-06 23:22:00,
2013-10-06 18:23:00,52.2,42.3,29.82,NE,43,0.0,0.0,69,0.00,,,0.00,WeatherDisplay:10.36,2013-10-06 23:23:00,
2013-10-06 18:24:00,52.2,42.3,29.82,NE,42,5.4,5.4,69,0.00,,,0.00,WeatherDisplay:10.36,2013-10-06 23:24:00,
2013-10-06 18:25:00,52.0,42.1,29.82,NE,44,4.5,4.5,69,0.00,,,0.00,WeatherDisplay:10.36,2013-10-06 23:25:00,
2013-10-06 18:26:00,52.0,42.5,29.82,NE,42,4.6,4.6,70,0.00,,,0.00,WeatherDisplay:10.36,2013-10-06 23:26:00,
2013-10-06 18:28:00,52.0,42.5,29.82,NE,44,4.9,4.9,70,0.00,,,0.00,WeatherDisplay:10.36,2013-10-06 23:28:00,
2013-10-06 18:29:00,52.0,42.5,29.82,NE,44,0.0,2.7,70,0.00,,,0.00,WeatherDisplay:10.36,2013-10-06 23:29:00,
2013-10-06 18:30:00,52.0,42.5,29.82,NE,42,0.0,0.0,70,0.00,,,0.00,WeatherDisplay:10.36,2013-10-06 23:30:00,
2013-10-06 18:31:00,52.0,42.5,29.82,NE,44,4.0,0.0,70,0.00,,,0.00,WeatherDisplay:10.36,2013-10-06 23:31:00,
2013-10-06 18:32:00,52.0,42.5,29.82,NE,46,3.5,3.5,70,0.00,,,0.00,WeatherDisplay:10.36,2013-10-06 23:32:00,
2013-10-06 18:33:00,52.0,42.5,29.82,NE,45,3.5,0.0,70,0.00,,,0.00,WeatherDisplay:10.36,2013-10-06 23:33:00,
2013-10-06 18:35:00,52.0,42.5,29.82,NE,40,0.0,0.0,70,0.00,,,0.00,WeatherDisplay:10.36,2013-10-06 23:35:00,
2013-10-06 18:36:00,52.0,42.9,29.82,NE,48,4.9,4.9,71,0.00,,,0.00,WeatherDisplay:10.36,2013-10-06 23:36:00,
2013-10-06 18:37:00,51.8,42.7,29.82,NE,46,3.5,0.0,71,0.00,,,0.00,WeatherDisplay:10.36,2013-10-06 23:37:00,
2013-10-06 18:38:00,51.8,42.7,29.82,NE,46,3.6,3.6,71,0.00,,,0.00,WeatherDisplay:10.36,2013-10-06 23:38:00,
2013-10-06 18:39:00,51.8,42.7,29.82,NE,43,3.6,3.6,71,0.00,,,0.00,WeatherDisplay:10.36,2013-10-06 23:39:00,
2013-10-06 18:40:00,51.8,42.7,29.82,NE,43,2.7,0.0,71,0.00,,,0.00,WeatherDisplay:10.36,2013-10-06 23:40:00,
2013-10-06 18:41:00,51.8,42.7,29.82,NE,43,4.9,0.0,71,0.00,,,0.00,WeatherDisplay:10.36,2013-10-06 23:41:00,
2013-10-06 18:43:00,51.8,42.7,29.82,NE,41,4.6,4.6,71,0.00,,,0.00,WeatherDisplay:10.36,2013-10-06 23:43:00,
2013-10-06 18:44:00,51.8,42.7,29.82,NE,41,4.6,4.6,71,0.00,,,0.00,WeatherDisplay:10.36,2013-10-06 23:44:00,
2013-10-06 18:45:00,51.8,43.1,29.82,NE,43,3.1,0.0,72,0.00,,,0.00,WeatherDisplay:10.36,2013-10-06 23:45:00,
2013-10-06 18:46:00,51.8,43.1,29.82,NE,41,3.6,3.6,72,0.00,,,0.00,WeatherDisplay:10.36,2013-10-06 23:46:00,
2013-10-06 18:47:00,51.8,43.1,29.82,NE,42,3.6,3.6,72,0.00,,,0.00,WeatherDisplay:10.36,2013-10-06 23:47:00,
2013-10-06 18:48:00,51.8,43.1,29.82,NE,42,4.5,4.5,72,0.00,,,0.00,WeatherDisplay:10.36,2013-10-06 23:48:00,
2013-10-06 18:50:00,51.8,43.1,29.82,NE,44,4.6,4.6,72,0.00,,,0.00,WeatherDisplay:10.36,2013-10-06 23:50:00,
2013-10-06 18:51:00,51.6,42.9,29.82,NE,44,4.9,0.0,72,0.00,,,0.00,WeatherDisplay:10.36,2013-10-06 23:51:00,
2013-10-06 18:52:00,51.6,42.9,29.82,NE,43,3.6,3.6,72,0.00,,,0.00,WeatherDisplay:10.36,2013-10-06 23:52:00,
2013-10-06 18:53:00,51.6,42.9,29.82,NE,42,4.0,0.0,72,0.00,,,0.00,WeatherDisplay:10.36,2013-10-06 23:53:00,
2013-10-06 18:54:00,51.6,42.9,29.82,NE,41,4.6,4.6,72,0.00,,,0.00,WeatherDisplay:10.36,2013-10-06 23:54:00,
2013-10-06 18:55:00,51.6,43.2,29.82,NE,44,3.1,0.0,73,0.00,,,0.00,WeatherDisplay:10.36,2013-10-06 23:55:00,
2013-10-06 18:56:00,51.6,43.2,29.82,NE,39,3.5,0.0,73,0.00,,,0.00,WeatherDisplay:10.36,2013-10-06 23:56:00,
2013-10-06 18:58:00,51.6,43.2,29.82,NE,41,3.6,3.6,73,0.00,,,0.00,WeatherDisplay:10.36,2013-10-06 23:58:00,
2013-10-06 18:59:00,51.6,43.2,29.82,NE,41,3.5,0.0,73,0.00,,,0.00,WeatherDisplay:10.36,2013-10-06 23:59:00,
2013-10-06 19:00:00,51.6,43.2,29.82,NE,46,4.5,4.5,73,0.00,,,0.00,WeatherDisplay:10.36,2013-10-07 00:00:00,
2013-10-06 19:01:00,51.6,43.2,29.82,NE,41,7.4,7.4,73,0.00,,,0.00,WeatherDisplay:10.36,2013-10-07 00:01:00,
2013-10-06 19:02:00,51.6,43.2,29.82,NE,45,4.6,4.6,73,0.00,,,0.00,WeatherDisplay:10.36,2013-10-07 00:02:00,
2013-10-06 19:03:00,51.6,43.2,29.82,NE,46,5.4,5.4,73,0.00,,,0.00,WeatherDisplay:10.36,2013-10-07 00:03:00,
2013-10-06 19:05:00,51.6,43.2,29.82,NE,46,0.0,3.6,73,0.00,,,0.00,WeatherDisplay:10.36,2013-10-07 00:05:00,
2013-10-06 19:06:00,51.6,43.6,29.82,NE,42,3.6,3.6,74,0.00,,,0.00,WeatherDisplay:10.36,2013-10-07 00:06:00,
2013-10-06 19:07:00,51.6,43.6,29.82,NE,42,4.0,4.0,74,0.00,,,0.00,WeatherDisplay:10.36,2013-10-07 00:07:00,
2013-10-06 19:08:00,51.6,43.6,29.82,NE,45,3.6,0.0,74,0.00,,,0.00,WeatherDisplay:10.36,2013-10-07 00:08:00,
2013-10-06 19:09:00,51.6,43.6,29.82,NE,39,3.6,3.6,74,0.00,,,0.00,WeatherDisplay:10.36,2013-10-07 00:09:00,
2013-10-06 19:10:00,51.6,43.6,29.82,NE,46,4.0,4.0,74,0.00,,,0.00,WeatherDisplay:10.36,2013-10-07 00:10:00,
2013-10-06 19:12:00,51.6,43.6,29.82,NE,47,4.6,4.6,74,0.00,,,0.00,WeatherDisplay:10.36,2013-10-07 00:12:00,
2013-10-06 19:13:00,51.6,43.6,29.82,NE,44,3.6,3.6,74,0.00,,,0.00,WeatherDisplay:10.36,2013-10-07 00:13:00,
2013-10-06 19:14:00,51.6,43.6,29.82,NE,44,0.0,0.0,74,0.00,,,0.00,WeatherDisplay:10.36,2013-10-07 00:14:00,
2013-10-06 19:15:00,51.6,43.6,29.82,NE,42,0.0,0.0,74,0.00,,,0.00,WeatherDisplay:10.36,2013-10-07 00:15:00,
2013-10-06 19:16:00,51.6,43.6,29.82,NNE,33,3.6,0.0,74,0.00,,,0.00,WeatherDisplay:10.36,2013-10-07 00:16:00,
2013-10-06 19:17:00,51.6,44.0,29.82,NE,46,3.6,0.0,75,0.00,,,0.00,WeatherDisplay:10.36,2013-10-07 00:17:00,
2013-10-06 19:18:00,51.6,44.0,29.82,NE,45,4.0,4.0,75,0.00,,,0.00,WeatherDisplay:10.36,2013-10-07 00:18:00,
2013-10-06 19:20:00,51.6,44.0,29.82,NE,43,0.0,0.0,75,0.00,,,0.00,WeatherDisplay:10.36,2013-10-07 00:20:00,
2013-10-06 19:21:00,51.6,44.0,29.82,NE,41,4.6,4.6,75,0.00,,,0.00,WeatherDisplay:10.36,2013-10-07 00:21:00,
2013-10-06 19:22:00,51.6,44.0,29.82,NE,46,4.6,4.6,75,0.00,,,0.00,WeatherDisplay:10.36,2013-10-07 00:22:00,
2013-10-06 19:23:00,51.4,43.8,29.82,NE,47,4.6,4.6,75,0.00,,,0.00,WeatherDisplay:10.36,2013-10-07 00:23:00,
2013-10-06 19:24:00,51.4,43.8,29.82,NE,42,3.6,3.6,75,0.00,,,0.00,WeatherDisplay:10.36,2013-10-07 00:24:00,
2013-10-06 19:25:00,51.4,43.8,29.82,NE,46,2.7,0.0,75,0.00,,,0.00,WeatherDisplay:10.36,2013-10-07 00:25:00,
2013-10-06 19:27:00,51.4,43.8,29.82,NE,42,2.3,0.0,75,0.00,,,0.00,WeatherDisplay:10.36,2013-10-07 00:27:00,
2013-10-06 19:28:00,51.4,43.8,29.82,NE,40,6.9,6.9,75,0.00,,,0.00,WeatherDisplay:10.36,2013-10-07 00:28:00,
2013-10-06 19:29:00,51.4,43.8,29.82,NE,47,4.0,4.0,75,0.00,,,0.00,WeatherDisplay:10.36,2013-10-07 00:29:00,
2013-10-06 19:30:00,51.4,44.1,29.82,NE,47,3.1,3.6,76,0.00,,,0.00,WeatherDisplay:10.36,2013-10-07 00:30:00,
2013-10-06 19:31:00,51.4,44.1,29.82,NE,43,4.0,4.0,76,0.00,,,0.00,WeatherDisplay:10.36,2013-10-07 00:31:00,
2013-10-06 19:32:00,51.4,44.1,29.82,NE,38,6.7,6.7,76,0.00,,,0.00,WeatherDisplay:10.36,2013-10-07 00:32:00,
2013-10-06 19:33:00,51.4,44.1,29.82,NE,48,6.9,6.9,76,0.00,,,0.00,WeatherDisplay:10.36,2013-10-07 00:33:00,
2013-10-06 19:35:00,51.4,44.1,29.82,NE,45,3.1,3.1,76,0.00,,,0.00,WeatherDisplay:10.36,2013-10-07 00:35:00,
2013-10-06 19:36:00,51.4,44.1,29.82,NE,41,3.5,0.0,76,0.00,,,0.00,WeatherDisplay:10.36,2013-10-07 00:36:00,
2013-10-06 19:37:00,51.4,44.1,29.82,NE,45,0.0,0.0,76,0.00,,,0.00,WeatherDisplay:10.36,2013-10-07 00:37:00,
2013-10-06 19:38:00,51.4,44.1,29.82,NE,42,3.6,0.0,76,0.00,,,0.00,WeatherDisplay:10.36,2013-10-07 00:38:00,
2013-10-06 19:39:00,51.4,44.1,29.82,NE,45,4.5,4.5,76,0.00,,,0.00,WeatherDisplay:10.36,2013-10-07 00:39:00,
2013-10-06 19:40:00,51.4,44.1,29.82,NE,45,4.5,4.5,76,0.00,,,0.00,WeatherDisplay:10.36,2013-10-07 00:40:00,
2013-10-06 19:42:00,51.4,44.1,29.82,NE,45,6.3,6.3,76,0.00,,,0.00,WeatherDisplay:10.36,2013-10-07 00:42:00,
2013-10-06 19:43:00,51.4,44.5,29.82,NE,42,5.8,5.8,77,0.00,,,0.00,WeatherDisplay:10.36,2013-10-07 00:43:00,
2013-10-06 19:44:00,51.4,44.5,29.82,NE,42,3.6,3.6,77,0.00,,,0.00,WeatherDisplay:10.36,2013-10-07 00:44:00,
2013-10-06 19:45:00,51.4,44.5,29.82,NE,45,3.6,3.6,77,0.00,,,0.00,WeatherDisplay:10.36,2013-10-07 00:45:00,
2013-10-06 19:46:00,51.4,44.5,29.82,NE,43,3.5,3.5,77,0.00,,,0.00,WeatherDisplay:10.36,2013-10-07 00:46:00,
2013-10-06 19:47:00,51.4,44.5,29.82,NE,48,4.0,4.0,77,0.00,,,0.00,WeatherDisplay:10.36,2013-10-07 00:47:00,
2013-10-06 19:48:00,51.4,44.5,29.82,NE,48,4.6,4.6,77,0.00,,,0.00,WeatherDisplay:10.36,2013-10-07 00:48:00,
2013-10-06 19:50:00,51.4,44.5,29.82,NE,49,3.1,0.0,77,0.00,,,0.00,WeatherDisplay:10.36,2013-10-07 00:50:00,
2013-10-06 19:51:00,51.4,44.5,29.82,NE,43,4.0,4.0,77,0.00,,,0.00,WeatherDisplay:10.36,2013-10-07 00:51:00,
2013-10-06 19:52:00,51.4,44.5,29.82,NE,37,3.6,3.6,77,0.00,,,0.00,WeatherDisplay:10.36,2013-10-07 00:52:00,
2013-10-06 19:53:00,51.4,44.5,29.82,NE,45,3.6,3.6,77,0.00,,,0.00,WeatherDisplay:10.36,2013-10-07 00:53:00,
2013-10-06 19:54:00,51.4,44.5,29.82,NE,48,5.8,0.0,77,0.00,,,0.00,WeatherDisplay:10.36,2013-10-07 00:54:00,
2013-10-06 19:55:00,51.4,44.5,29.82,NE,46,5.8,5.8,77,0.00,,,0.00,WeatherDisplay:10.36,2013-10-07 00:55:00,
2013-10-06 19:57:00,51.4,44.5,29.82,NE,42,5.8,5.8,77,0.00,,,0.00,WeatherDisplay:10.36,2013-10-07 00:57:00,
2013-10-06 19:58:00,51.4,44.8,29.82,NE,39,3.6,0.0,78,0.00,,,0.00,WeatherDisplay:10.36,2013-10-07 00:58:00,
2013-10-06 19:59:00,51.4,44.8,29.82,NE,43,4.6,4.6,78,0.00,,,0.00,WeatherDisplay:10.36,2013-10-07 00:59:00,
2013-10-06 20:00:00,51.4,44.8,29.82,NE,44,4.5,4.5,78,0.00,,,0.00,WeatherDisplay:10.36,2013-10-07 01:00:00,
2013-10-06 20:01:00,51.4,44.8,29.82,NE,47,4.6,4.6,78,0.00,,,0.00,WeatherDisplay:10.36,2013-10-07 01:01:00,
2013-10-06 20:02:00,51.4,44.8,29.82,NE,45,4.9,0.0,78,0.00,,,0.00,WeatherDisplay:10.36,2013-10-07 01:02:00,
2013-10-06 20:04:00,51.4,44.8,29.82,NE,49,4.6,4.6,78,0.00,,,0.00,WeatherDisplay:10.36,2013-10-07 01:04:00,
2013-10-06 20:05:00,51.4,44.8,29.82,NE,40,3.1,4.0,78,0.00,,,0.00,WeatherDisplay:10.36,2013-10-07 01:05:00,
2013-10-06 20:06:00,51.4,44.8,29.82,NE,41,6.9,6.9,78,0.00,,,0.00,WeatherDisplay:10.36,2013-10-07 01:06:00,
2013-10-06 20:07:00,51.4,44.8,29.82,NE,45,6.3,6.3,78,0.00,,,0.00,WeatherDisplay:10.36,2013-10-07 01:07:00,
2013-10-06 20:08:00,51.4,44.8,29.82,NE,45,4.6,4.6,78,0.00,,,0.00,WeatherDisplay:10.36,2013-10-07 01:08:00,
2013-10-06 20:09:00,51.4,44.8,29.82,NE,47,3.6,3.6,78,0.00,,,0.00,WeatherDisplay:10.36,2013-10-07 01:09:00,
2013-10-06 20:10:00,51.4,45.1,29.82,NE,48,6.3,6.3,79,0.00,,,0.00,WeatherDisplay:10.36,2013-10-07 01:10:00,
2013-10-06 20:12:00,51.4,45.1,29.82,NE,44,5.8,5.8,79,0.00,,,0.00,WeatherDisplay:10.36,2013-10-07 01:12:00,
2013-10-06 20:13:00,51.4,45.1,29.82,NE,50,6.9,6.9,79,0.00,,,0.00,WeatherDisplay:10.36,2013-10-07 01:13:00,
2013-10-06 20:14:00,51.4,45.1,29.82,NE,45,6.9,6.9,79,0.00,,,0.00,WeatherDisplay:10.36,2013-10-07 01:14:00,
2013-10-06 20:15:00,51.4,45.1,29.82,NE,44,3.6,3.6,79,0.00,,,0.00,WeatherDisplay:10.36,2013-10-07 01:15:00,
2013-10-06 20:16:00,51.6,45.3,29.82,NE,48,4.0,4.0,79,0.00,,,0.00,WeatherDisplay:10.36,2013-10-07 01:16:00,
2013-10-06 20:17:00,51.6,45.3,29.82,NE,47,5.4,5.4,79,0.00,,,0.00,WeatherDisplay:10.36,2013-10-07 01:17:00,
2013-10-06 20:18:00,51.6,45.3,29.82,NNE,31,5.8,5.8,79,0.00,,,0.00,WeatherDisplay:10.36,2013-10-07 01:18:00,
2013-10-06 20:20:00,51.6,45.3,29.82,NE,47,0.0,4.0,79,0.00,,,0.00,WeatherDisplay:10.36,2013-10-07 01:20:00,
2013-10-06 20:21:00,51.6,45.3,29.82,NE,45,5.8,5.8,79,0.00,,,0.00,WeatherDisplay:10.36,2013-10-07 01:21:00,
2013-10-06 20:22:00,51.6,45.3,29.82,NE,45,4.9,4.9,79,0.00,,,0.00,WeatherDisplay:10.36,2013-10-07 01:22:00,
2013-10-06 20:23:00,51.4,45.1,29.82,NE,48,5.8,5.8,79,0.00,,,0.00,WeatherDisplay:10.36,2013-10-07 01:23:00,
2013-10-06 20:24:00,51.6,45.3,29.82,NE,46,4.6,4.6,79,0.00,,,0.00,WeatherDisplay:10.36,2013-10-07 01:24:00,
2013-10-06 20:25:00,51.6,45.3,29.82,NE,48,6.3,6.3,79,0.00,,,0.00,WeatherDisplay:10.36,2013-10-07 01:25:00,
2013-10-06 20:26:00,51.6,45.3,29.82,NE,48,5.8,5.8,79,0.00,,,0.00,WeatherDisplay:10.36,2013-10-07 01:26:00,
2013-10-06 20:28:00,51.6,45.3,29.82,NE,38,5.8,5.8,79,0.00,,,0.00,WeatherDisplay:10.36,2013-10-07 01:28:00,
2013-10-06 20:29:00,51.6,45.3,29.82,NE,49,4.9,4.9,79,0.00,,,0.00,WeatherDisplay:10.36,2013-10-07 01:29:00,
2013-10-06 20:30:00,51.6,45.3,29.82,NE,48,0.0,2.7,79,0.00,,,0.00,WeatherDisplay:10.36,2013-10-07 01:30:00,
2013-10-06 20:31:00,51.6,45.3,29.82,NE,46,4.9,4.9,79,0.00,,,0.00,WeatherDisplay:10.36,2013-10-07 01:31:00,
2013-10-06 20:32:00,51.6,45.3,29.82,NE,47,4.6,4.6,79,0.00,,,0.00,WeatherDisplay:10.36,2013-10-07 01:32:00,
2013-10-06 20:33:00,51.4,45.1,29.82,NE,41,6.7,6.7,79,0.00,,,0.00,WeatherDisplay:10.36,2013-10-07 01:33:00,
2013-10-06 20:35:00,51.4,45.5,29.82,NE,49,4.5,4.5,80,0.00,,,0.00,WeatherDisplay:10.36,2013-10-07 01:35:00,
2013-10-06 20:36:00,51.4,45.5,29.82,NNE,27,6.9,6.9,80,0.00,,,0.00,WeatherDisplay:10.36,2013-10-07 01:36:00,
2013-10-06 20:37:00,51.4,45.5,29.82,NNE,29,4.0,4.0,80,0.00,,,0.00,WeatherDisplay:10.36,2013-10-07 01:37:00,
2013-10-06 20:38:00,51.4,45.5,29.82,NNE,29,4.0,4.0,80,0.00,,,0.00,WeatherDisplay:10.36,2013-10-07 01:38:00,
2013-10-06 20:39:00,51.4,45.5,29.82,NE,42,4.5,0.0,80,0.00,,,0.00,WeatherDisplay:10.36,2013-10-07 01:39:00,
2013-10-06 20:40:00,51.4,45.5,29.82,NE,43,4.5,4.5,80,0.00,,,0.00,WeatherDisplay:10.36,2013-10-07 01:40:00,
2013-10-06 20:41:00,51.4,45.5,29.82,NE,46,6.7,0.0,80,0.00,,,0.00,WeatherDisplay:10.36,2013-10-07 01:41:00,
2013-10-06 20:43:00,51.4,45.5,29.82,NE,47,6.9,6.9,80,0.00,,,0.00,WeatherDisplay:10.36,2013-10-07 01:43:00,
2013-10-06 20:44:00,51.4,45.5,29.82,NE,47,6.3,6.3,80,0.00,,,0.00,WeatherDisplay:10.36,2013-10-07 01:44:00,
2013-10-06 20:45:00,51.6,45.7,29.82,NE,43,5.4,5.4,80,0.00,,,0.00,WeatherDisplay:10.36,2013-10-07 01:45:00,
2013-10-06 20:46:00,51.6,45.7,29.82,NE,48,6.3,6.3,80,0.00,,,0.00,WeatherDisplay:10.36,2013-10-07 01:46:00,
2013-10-06 20:47:00,51.6,45.7,29.82,NE,44,4.6,4.6,80,0.00,,,0.00,WeatherDisplay:10.36,2013-10-07 01:47:00,
2013-10-06 20:48:00,51.6,45.7,29.82,NE,46,4.6,4.6,80,0.00,,,0.00,WeatherDisplay:10.36,2013-10-07 01:48:00,
2013-10-06 20:50:00,51.6,45.7,29.82,NE,46,10.1,0.0,80,0.00,,,0.00,WeatherDisplay:10.36,2013-10-07 01:50:00,
2013-10-06 20:51:00,51.6,45.7,29.82,NE,45,4.6,4.6,80,0.00,,,0.00,WeatherDisplay:10.36,2013-10-07 01:51:00,
2013-10-06 20:52:00,51.6,45.7,29.82,NE,48,6.9,6.9,80,0.00,,,0.00,WeatherDisplay:10.36,2013-10-07 01:52:00,
2013-10-06 20:53:00,51.6,45.3,29.82,NE,48,4.9,4.9,79,0.00,,,0.00,WeatherDisplay:10.36,2013-10-07 01:53:00,
2013-10-06 20:54:00,51.6,45.7,29.82,NE,46,6.9,6.9,80,0.00,,,0.00,WeatherDisplay:10.36,2013-10-07 01:54:00,
2013-10-06 20:55:00,51.6,45.3,29.82,NE,36,4.9,4.9,79,0.00,,,0.00,WeatherDisplay:10.36,2013-10-07 01:55:00,
2013-10-06 20:56:00,51.6,45.3,29.82,NE,48,4.9,4.9,79,0.00,,,0.00,WeatherDisplay:10.36,2013-10-07 01:56:00,
2013-10-06 20:58:00,51.6,45.3,29.82,NE,47,7.4,7.4,79,0.00,,,0.00,WeatherDisplay:10.36,2013-10-07 01:58:00,
2013-10-06 20:59:00,51.6,45.3,29.82,NE,44,4.9,4.9,79,0.00,,,0.00,WeatherDisplay:10.36,2013-10-07 01:59:00,
2013-10-06 21:00:00,51.6,45.3,29.82,NE,47,4.0,4.0,79,0.00,,,0.00,WeatherDisplay:10.36,2013-10-07 02:00:00,
2013-10-06 21:01:00,51.6,45.3,29.82,NE,45,4.5,4.5,79,0.00,,,0.00,WeatherDisplay:10.36,2013-10-07 02:01:00,
2013-10-06 21:02:00,51.6,45.3,29.82,NE,45,5.4,5.4,79,0.00,,,0.00,WeatherDisplay:10.36,2013-10-07 02:02:00,
2013-10-06 21:03:00,51.6,45.3,29.82,NE,39,8.3,8.3,79,0.00,,,0.00,WeatherDisplay:10.36,2013-10-07 02:03:00,
2013-10-06 21:05:00,51.6,45.3,29.82,NE,48,8.1,8.1,79,0.00,,,0.00,WeatherDisplay:10.36,2013-10-07 02:05:00,
2013-10-06 21:06:00,51.6,45.3,29.82,NNE,27,4.0,4.0,79,0.00,,,0.00,WeatherDisplay:10.36,2013-10-07 02:06:00,
2013-10-06 21:07:00,51.6,45.3,29.82,NNE,29,4.0,4.0,79,0.00,,,0.00,WeatherDisplay:10.36,2013-10-07 02:07:00,
2013-10-06 21:08:00,51.6,45.3,29.82,NE,42,5.8,5.8,79,0.00,,,0.00,WeatherDisplay:10.36,2013-10-07 02:08:00,
2013-10-06 21:09:00,51.6,45.3,29.82,NE,45,6.9,6.9,79,0.00,,,0.00,WeatherDisplay:10.36,2013-10-07 02:09:00,
2013-10-06 21:10:00,51.4,45.1,29.82,NE,47,4.0,4.0,79,0.00,,,0.00,WeatherDisplay:10.36,2013-10-07 02:10:00,
2013-10-06 21:11:00,51.4,45.1,29.82,NE,42,5.4,5.4,79,0.00,,,0.00,WeatherDisplay:10.36,2013-10-07 02:11:00,
2013-10-06 21:13:00,51.4,45.1,29.82,NE,50,6.9,6.9,79,0.00,,,0.00,WeatherDisplay:10.36,2013-10-07 02:13:00,
2013-10-06 21:14:00,51.4,45.1,29.82,NE,47,5.8,5.8,79,0.00,,,0.00,WeatherDisplay:10.36,2013-10-07 02:14:00,
2013-10-06 21:15:00,51.4,45.1,29.82,NE,41,4.9,4.9,79,0.00,,,0.00,WeatherDisplay:10.36,2013-10-07 02:15:00,
2013-10-06 21:16:00,51.4,45.1,29.82,NE,45,4.6,4.6,79,0.00,,,0.00,WeatherDisplay:10.36,2013-10-07 02:16:00,
2013-10-06 21:17:00,51.4,45.1,29.82,NE,45,4.6,4.6,79,0.00,,,0.00,WeatherDisplay:10.36,2013-10-07 02:17:00,
2013-10-06 21:18:00,51.4,45.1,29.82,NE,48,4.0,4.0,79,0.00,,,0.00,WeatherDisplay:10.36,2013-10-07 02:18:00,
2013-10-06 21:19:00,51.4,45.1,29.82,NE,41,4.0,4.0,79,0.00,,,0.00,WeatherDisplay:10.36,2013-10-07 02:19:00,
2013-10-06 21:21:00,51.4,45.1,29.85,NE,43,4.0,0.0,79,0.00,,,0.00,WeatherDisplay:10.36,2013-10-07 02:21:00,
2013-10-06 21:22:00,51.4,45.1,29.85,NE,44,4.6,4.6,79,0.00,,,0.00,WeatherDisplay:10.36,2013-10-07 02:22:00,
2013-10-06 21:23:00,51.4,44.8,29.85,NE,44,9.6,9.6,78,0.00,,,0.00,WeatherDisplay:10.36,2013-10-07 02:23:00,
2013-10-06 21:24:00,51.4,44.8,29.85,NE,43,8.1,8.1,78,0.00,,,0.00,WeatherDisplay:10.36,2013-10-07 02:24:00,
2013-10-06 21:25:00,51.4,44.8,29.85,NE,46,6.7,0.0,78,0.00,,,0.00,WeatherDisplay:10.36,2013-10-07 02:25:00,
2013-10-06 21:26:00,51.4,44.8,29.85,NE,48,6.9,6.9,78,0.00,,,0.00,WeatherDisplay:10.36,2013-10-07 02:26:00,
2013-10-06 21:28:00,51.4,44.8,29.85,NE,45,5.8,5.8,78,0.00,,,0.00,WeatherDisplay:10.36,2013-10-07 02:28:00,
2013-10-06 21:29:00,51.4,44.8,29.85,NE,46,4.9,4.9,78,0.00,,,0.00,WeatherDisplay:10.36,2013-10-07 02:29:00,
2013-10-06 21:30:00,51.4,44.8,29.85,NE,45,4.0,4.0,78,0.00,,,0.00,WeatherDisplay:10.36,2013-10-07 02:30:00,
2013-10-06 21:31:00,51.4,44.8,29.85,NE,45,4.9,4.9,78,0.00,,,0.00,WeatherDisplay:10.36,2013-10-07 02:31:00,
2013-10-06 21:32:00,51.4,44.8,29.85,NE,46,4.6,4.6,78,0.00,,,0.00,WeatherDisplay:10.36,2013-10-07 02:32:00,
2013-10-06 21:33:00,51.4,44.8,29.85,NE,48,4.9,4.9,78,0.00,,,0.00,WeatherDisplay:10.36,2013-10-07 02:33:00,
2013-10-06 21:34:00,51.4,44.8,29.85,NE,49,4.6,4.6,78,0.00,,,0.00,WeatherDisplay:10.36,2013-10-07 02:34:00,
2013-10-06 21:36:00,51.6,45.0,29.85,NE,43,4.9,4.9,78,0.00,,,0.00,WeatherDisplay:10.36,2013-10-07 02:36:00,
2013-10-06 21:37:00,51.6,45.0,29.85,NE,49,5.4,5.4,78,0.00,,,0.00,WeatherDisplay:10.36,2013-10-07 02:37:00,
2013-10-06 21:38:00,51.6,45.0,29.85,NE,45,5.8,5.8,78,0.00,,,0.00,WeatherDisplay:10.36,2013-10-07 02:38:00,
2013-10-06 21:39:00,51.6,45.0,29.85,NE,45,5.8,5.8,78,0.00,,,0.00,WeatherDisplay:10.36,2013-10-07 02:39:00,
2013-10-06 21:40:00,51.6,45.0,29.85,NE,45,5.4,5.4,78,0.00,,,0.00,WeatherDisplay:10.36,2013-10-07 02:40:00,
2013-10-06 21:41:00,51.6,45.0,29.85,NE,45,5.8,5.8,78,0.00,,,0.00,WeatherDisplay:10.36,2013-10-07 02:41:00,
2013-10-06 21:43:00,51.6,45.0,29.85,NE,45,3.5,0.0,78,0.00,,,0.00,WeatherDisplay:10.36,2013-10-07 02:43:00,
2013-10-06 21:44:00,51.6,45.0,29.85,NE,45,3.5,0.0,78,0.00,,,0.00,WeatherDisplay:10.36,2013-10-07 02:44:00,
2013-10-06 21:45:00,51.6,45.0,29.85,NE,45,4.0,4.0,78,0.00,,,0.00,WeatherDisplay:10.36,2013-10-07 02:45:00,
2013-10-06 21:46:00,51.6,45.0,29.85,NE,45,5.8,5.8,78,0.00,,,0.00,WeatherDisplay:10.36,2013-10-07 02:46:00,
2013-10-06 21:47:00,51.6,45.0,29.85,NE,46,4.6,4.6,78,0.00,,,0.00,WeatherDisplay:10.36,2013-10-07 02:47:00,
2013-10-06 21:48:00,51.6,45.0,29.85,NE,45,4.5,4.5,78,0.00,,,0.00,WeatherDisplay:10.36,2013-10-07 02:48:00,
2013-10-06 21:49:00,51.6,45.0,29.85,NE,45,4.6,4.6,78,0.00,,,0.00,WeatherDisplay:10.36,2013-10-07 02:49:00,
2013-10-06 21:51:00,51.6,45.0,29.85,NE,47,4.6,4.6,78,0.00,,,0.00,WeatherDisplay:10.36,2013-10-07 02:51:00,
2013-10-06 21:52:00,51.6,45.0,29.85,NE,44,5.4,5.4,78,0.00,,,0.00,WeatherDisplay:10.36,2013-10-07 02:52:00,
2013-10-06 21:53:00,51.6,45.0,29.85,NE,44,5.8,5.8,78,0.00,,,0.00,WeatherDisplay:10.36,2013-10-07 02:53:00,
2013-10-06 21:54:00,51.6,45.0,29.85,NE,44,7.4,7.4,78,0.00,,,0.00,WeatherDisplay:10.36,2013-10-07 02:54:00,
2013-10-06 21:55:00,51.6,45.0,29.85,NE,48,0.0,4.0,78,0.00,,,0.00,WeatherDisplay:10.36,2013-10-07 02:55:00,
2013-10-06 21:56:00,51.6,45.0,29.85,NE,48,4.6,0.0,78,0.00,,,0.00,WeatherDisplay:10.36,2013-10-07 02:56:00,
2013-10-06 21:57:00,51.6,45.0,29.85,NE,48,5.8,5.8,78,0.00,,,0.00,WeatherDisplay:10.36,2013-10-07 02:57:00,
2013-10-06 21:59:00,51.6,45.0,29.85,NE,47,5.8,0.0,78,0.00,,,0.00,WeatherDisplay:10.36,2013-10-07 02:59:00,
2013-10-06 22:00:00,51.6,45.0,29.85,NE,49,4.0,0.0,78,0.00,,,0.00,WeatherDisplay:10.36,2013-10-07 03:00:00,
2013-10-06 22:01:00,51.6,45.0,29.85,NE,44,4.0,4.0,78,0.00,,,0.00,WeatherDisplay:10.36,2013-10-07 03:01:00,
2013-10-06 22:02:00,51.6,45.0,29.85,NE,46,0.0,0.0,78,0.00,,,0.00,WeatherDisplay:10.36,2013-10-07 03:02:00,
2013-10-06 22:03:00,51.6,45.0,29.85,NE,46,3.6,0.0,78,0.00,,,0.00,WeatherDisplay:10.36,2013-10-07 03:03:00,
2013-10-06 22:04:00,51.6,45.0,29.85,NE,45,5.4,5.4,78,0.00,,,0.00,WeatherDisplay:10.36,2013-10-07 03:04:00,
2013-10-06 22:06:00,51.6,45.0,29.85,NE,46,3.5,0.0,78,0.00,,,0.00,WeatherDisplay:10.36,2013-10-07 03:06:00,
2013-10-06 22:07:00,51.6,45.0,29.85,NE,48,6.9,6.9,78,0.00,,,0.00,WeatherDisplay:10.36,2013-10-07 03:07:00,
2013-10-06 22:08:00,51.6,44.6,29.85,NE,45,3.5,3.5,77,0.00,,,0.00,WeatherDisplay:10.36,2013-10-07 03:08:00,
2013-10-06 22:09:00,51.6,44.6,29.85,NE,43,0.0,0.0,77,0.00,,,0.00,WeatherDisplay:10.36,2013-10-07 03:09:00,
2013-10-06 22:10:00,51.6,44.6,29.85,NE,49,4.0,0.0,77,0.00,,,0.00,WeatherDisplay:10.36,2013-10-07 03:10:00,
2013-10-06 22:11:00,51.6,44.6,29.85,NE,46,4.6,4.6,77,0.00,,,0.00,WeatherDisplay:10.36,2013-10-07 03:11:00,
2013-10-06 22:12:00,51.6,44.6,29.85,NE,47,5.8,5.8,77,0.00,,,0.00,WeatherDisplay:10.36,2013-10-07 03:12:00,
2013-10-06 22:14:00,51.6,44.6,29.85,NE,47,5.8,5.8,77,0.00,,,0.00,WeatherDisplay:10.36,2013-10-07 03:14:00,
2013-10-06 22:15:00,51.6,44.6,29.85,NE,47,0.0,0.0,77,0.00,,,0.00,WeatherDisplay:10.36,2013-10-07 03:15:00,
2013-10-06 22:16:00,51.6,44.6,29.85,NE,44,0.0,0.0,77,0.00,,,0.00,WeatherDisplay:10.36,2013-10-07 03:16:00,
2013-10-06 22:17:00,51.8,44.8,29.85,NE,47,0.0,0.0,77,0.00,,,0.00,WeatherDisplay:10.36,2013-10-07 03:17:00,
2013-10-06 22:18:00,51.8,44.8,29.85,NE,44,3.6,0.0,77,0.00,,,0.00,WeatherDisplay:10.36,2013-10-07 03:18:00,
2013-10-06 22:19:00,51.8,44.8,29.85,NE,46,4.0,0.0,77,0.00,,,0.00,WeatherDisplay:10.36,2013-10-07 03:19:00,
2013-10-06 22:20:00,51.8,44.8,29.85,NE,45,3.6,3.6,77,0.00,,,0.00,WeatherDisplay:10.36,2013-10-07 03:20:00,
2013-10-06 22:22:00,51.8,44.8,29.85,NE,46,3.5,0.0,77,0.00,,,0.00,WeatherDisplay:10.36,2013-10-07 03:22:00,
2013-10-06 22:23:00,51.6,44.6,29.85,NE,43,0.0,0.0,77,0.00,,,0.00,WeatherDisplay:10.36,2013-10-07 03:23:00,
2013-10-06 22:24:00,51.6,44.6,29.85,NE,47,0.0,0.0,77,0.00,,,0.00,WeatherDisplay:10.36,2013-10-07 03:24:00,
2013-10-06 22:25:00,51.6,44.6,29.85,NE,43,3.1,0.0,77,0.00,,,0.00,WeatherDisplay:10.36,2013-10-07 03:25:00,
2013-10-06 22:26:00,51.6,44.6,29.85,NE,47,4.0,4.0,77,0.00,,,0.00,WeatherDisplay:10.36,2013-10-07 03:26:00,
2013-10-06 22:27:00,51.6,44.6,29.85,NE,45,5.8,5.8,77,0.00,,,0.00,WeatherDisplay:10.36,2013-10-07 03:27:00,
2013-10-06 22:29:00,51.6,44.6,29.85,NE,48,4.6,0.0,77,0.00,,,0.00,WeatherDisplay:10.36,2013-10-07 03:29:00,
2013-10-06 22:30:00,51.6,44.6,29.85,NE,48,0.0,0.0,77,0.00,,,0.00,WeatherDisplay:10.36,2013-10-07 03:30:00,
2013-10-06 22:31:00,51.6,44.6,29.85,NE,46,0.0,0.0,77,0.00,,,0.00,WeatherDisplay:10.36,2013-10-07 03:31:00,
2013-10-06 22:32:00,51.6,44.6,29.85,NE,47,0.0,0.0,77,0.00,,,0.00,WeatherDisplay:10.36,2013-10-07 03:32:00,
2013-10-06 22:33:00,51.6,44.6,29.85,NE,47,4.0,0.0,77,0.00,,,0.00,WeatherDisplay:10.36,2013-10-07 03:33:00,
2013-10-06 22:34:00,51.6,44.6,29.85,NE,45,3.5,0.0,77,0.00,,,0.00,WeatherDisplay:10.36,2013-10-07 03:34:00,
2013-10-06 22:35:00,51.6,45.0,29.85,NE,45,0.0,0.0,78,0.00,,,0.00,WeatherDisplay:10.36,2013-10-07 03:35:00,
2013-10-06 22:37:00,51.6,45.0,29.85,NNE,31,3.6,3.6,78,0.00,,,0.00,WeatherDisplay:10.36,2013-10-07 03:37:00,
2013-10-06 22:38:00,51.6,45.0,29.85,NNE,31,0.0,0.0,78,0.00,,,0.00,WeatherDisplay:10.36,2013-10-07 03:38:00,
2013-10-06 22:39:00,51.6,45.0,29.85,NNE,31,0.0,0.0,78,0.00,,,0.00,WeatherDisplay:10.36,2013-10-07 03:39:00,
2013-10-06 22:40:00,51.6,45.0,29.85,NNE,30,0.0,0.0,78,0.00,,,0.00,WeatherDisplay:10.36,2013-10-07 03:40:00,
2013-10-06 22:41:00,51.6,45.0,29.85,NNE,30,0.0,0.0,78,0.00,,,0.00,WeatherDisplay:10.36,2013-10-07 03:41:00,
2013-10-06 22:42:00,51.6,45.0,29.85,NNE,30,4.0,4.0,78,0.00,,,0.00,WeatherDisplay:10.36,2013-10-07 03:42:00,
2013-10-06 22:44:00,51.6,45.0,29.85,NNE,29,3.5,0.0,78,0.00,,,0.00,WeatherDisplay:10.36,2013-10-07 03:44:00,
2013-10-06 22:45:00,51.6,45.0,29.85,NNE,30,0.0,0.0,78,0.00,,,0.00,WeatherDisplay:10.36,2013-10-07 03:45:00,
2013-10-06 22:46:00,51.6,45.0,29.85,NNE,29,0.0,0.0,78,0.00,,,0.00,WeatherDisplay:10.36,2013-10-07 03:46:00,
2013-10-06 22:47:00,51.6,45.0,29.85,NNE,29,0.0,0.0,78,0.00,,,0.00,WeatherDisplay:10.36,2013-10-07 03:47:00,
2013-10-06 22:48:00,51.6,45.0,29.85,NNE,30,0.0,0.0,78,0.00,,,0.00,WeatherDisplay:10.36,2013-10-07 03:48:00,
2013-10-06 22:49:00,51.6,45.0,29.85,NNE,30,0.0,0.0,78,0.00,,,0.00,WeatherDisplay:10.36,2013-10-07 03:49:00,
2013-10-06 22:50:00,51.6,45.0,29.85,NE,43,3.6,3.6,78,0.00,,,0.00,WeatherDisplay:10.36,2013-10-07 03:50:00,
2013-10-06 22:52:00,51.6,45.0,29.88,NNE,32,3.5,0.0,78,0.00,,,0.00,WeatherDisplay:10.36,2013-10-07 03:52:00,
2013-10-06 22:53:00,51.6,45.0,29.88,NNE,32,3.5,0.0,78,0.00,,,0.00,WeatherDisplay:10.36,2013-10-07 03:53:00,
2013-10-06 22:54:00,51.6,45.0,29.88,NNE,32,0.0,0.0,78,0.00,,,0.00,WeatherDisplay:10.36,2013-10-07 03:54:00,
2013-10-06 22:55:00,51.6,45.0,29.88,NNE,31,3.1,0.0,78,0.00,,,0.00,WeatherDisplay:10.36,2013-10-07 03:55:00,
2013-10-06 22:56:00,51.6,45.0,29.88,NNE,30,3.5,0.0,78,0.00,,,0.00,WeatherDisplay:10.36,2013-10-07 03:56:00,
2013-10-06 22:57:00,51.6,45.0,29.88,NNE,30,0.0,0.0,78,0.00,,,0.00,WeatherDisplay:10.36,2013-10-07 03:57:00,
2013-10-06 22:59:00,51.6,45.0,29.88,NNE,31,0.0,0.0,78,0.00,,,0.00,WeatherDisplay:10.36,2013-10-07 03:59:00,
2013-10-06 23:00:00,51.6,45.0,29.88,NNE,31,0.0,0.0,78,0.00,,,0.00,WeatherDisplay:10.36,2013-10-07 04:00:00,
2013-10-06 23:01:00,51.6,45.0,29.88,NNE,30,0.0,0.0,78,0.00,,,0.00,WeatherDisplay:10.36,2013-10-07 04:01:00,
2013-10-06 23:02:00,51.4,44.8,29.88,NNE,31,0.0,0.0,78,0.00,,,0.00,WeatherDisplay:10.36,2013-10-07 04:02:00,
2013-10-06 23:03:00,51.4,44.8,29.88,NNE,30,0.0,0.0,78,0.00,,,0.00,WeatherDisplay:10.36,2013-10-07 04:03:00,
2013-10-06 23:04:00,51.4,44.8,29.88,NE,36,4.9,0.0,78,0.00,,,0.00,WeatherDisplay:10.36,2013-10-07 04:04:00,
2013-10-06 23:06:00,51.4,44.8,29.88,NE,41,2.3,0.0,78,0.00,,,0.00,WeatherDisplay:10.36,2013-10-07 04:06:00,
2013-10-06 23:07:00,51.4,44.8,29.88,NE,44,0.0,0.0,78,0.00,,,0.00,WeatherDisplay:10.36,2013-10-07 04:07:00,
2013-10-06 23:08:00,51.4,45.1,29.88,NE,42,0.0,0.0,79,0.00,,,0.00,WeatherDisplay:10.36,2013-10-07 04:08:00,
2013-10-06 23:09:00,51.4,45.1,29.88,NE,42,0.0,0.0,79,0.00,,,0.00,WeatherDisplay:10.36,2013-10-07 04:09:00,
2013-10-06 23:10:00,51.4,45.1,29.88,NE,42,0.0,0.0,79,0.00,,,0.00,WeatherDisplay:10.36,2013-10-07 04:10:00,
2013-10-06 23:11:00,51.4,45.1,29.88,NE,44,0.0,0.0,79,0.00,,,0.00,WeatherDisplay:10.36,2013-10-07 04:11:00,
2013-10-06 23:12:00,51.4,45.1,29.88,NE,39,3.6,0.0,79,0.00,,,0.00,WeatherDisplay:10.36,2013-10-07 04:12:00,
2013-10-06 23:14:00,51.6,45.3,29.88,NE,39,3.5,0.0,79,0.00,,,0.00,WeatherDisplay:10.36,2013-10-07 04:14:00,
2013-10-06 23:15:00,51.6,45.3,29.88,NE,41,0.0,0.0,79,0.00,,,0.00,WeatherDisplay:10.36,2013-10-07 04:15:00,
2013-10-06 23:16:00,51.6,45.3,29.88,NE,39,0.0,0.0,79,0.00,,,0.00,WeatherDisplay:10.36,2013-10-07 04:16:00,
2013-10-06 23:17:00,51.6,45.3,29.88,NE,39,0.0,0.0,79,0.00,,,0.00,WeatherDisplay:10.36,2013-10-07 04:17:00,
2013-10-06 23:18:00,51.6,45.3,29.88,NE,41,0.0,0.0,79,0.00,,,0.00,WeatherDisplay:10.36,2013-10-07 04:18:00,
2013-10-06 23:21:00,51.6,45.3,29.88,NE,45,2.7,0.0,79,0.00,,,0.00,WeatherDisplay:10.36,2013-10-07 04:21:00,
2013-10-06 23:22:00,51.6,45.3,29.88,NE,45,0.0,0.0,79,0.00,,,0.00,WeatherDisplay:10.36,2013-10-07 04:22:00,
2013-10-06 23:23:00,51.6,45.3,29.88,NE,44,0.0,0.0,79,0.00,,,0.00,WeatherDisplay:10.36,2013-10-07 04:23:00,
2013-10-06 23:24:00,51.6,45.3,29.88,NE,44,3.5,0.0,79,0.00,,,0.00,WeatherDisplay:10.36,2013-10-07 04:24:00,
2013-10-06 23:25:00,51.6,45.3,29.88,NE,44,0.0,0.0,79,0.00,,,0.00,WeatherDisplay:10.36,2013-10-07 04:25:00,
2013-10-06 23:26:00,51.6,45.3,29.88,NE,44,4.5,0.0,79,0.00,,,0.00,WeatherDisplay:10.36,2013-10-07 04:26:00,
2013-10-06 23:27:00,51.6,45.3,29.88,NE,45,4.6,0.0,79,0.00,,,0.00,WeatherDisplay:10.36,2013-10-07 04:27:00,
2013-10-06 23:29:00,51.6,45.3,29.88,NE,44,0.0,0.0,79,0.00,,,0.00,WeatherDisplay:10.36,2013-10-07 04:29:00,
2013-10-06 23:30:00,51.6,45.3,29.88,NE,47,0.0,0.0,79,0.00,,,0.00,WeatherDisplay:10.36,2013-10-07 04:30:00,
2013-10-06 23:31:00,51.6,45.3,29.88,NE,48,0.0,0.0,79,0.00,,,0.00,WeatherDisplay:10.36,2013-10-07 04:31:00,
2013-10-06 23:32:00,51.6,45.3,29.88,NE,49,0.0,0.0,79,0.00,,,0.00,WeatherDisplay:10.36,2013-10-07 04:32:00,
2013-10-06 23:33:00,51.6,45.3,29.88,NE,45,0.0,0.0,79,0.00,,,0.00,WeatherDisplay:10.36,2013-10-07 04:33:00,
2013-10-06 23:34:00,51.6,45.3,29.88,NE,47,4.5,4.5,79,0.00,,,0.00,WeatherDisplay:10.36,2013-10-07 04:34:00,
2013-10-06 23:36:00,51.6,45.3,29.88,NE,46,3.5,0.0,79,0.00,,,0.00,WeatherDisplay:10.36,2013-10-07 04:36:00,
2013-10-06 23:37:00,51.6,45.3,29.88,NE,48,0.0,0.0,79,0.00,,,0.00,WeatherDisplay:10.36,2013-10-07 04:37:00,
2013-10-06 23:38:00,51.6,45.3,29.88,NE,45,0.0,0.0,79,0.00,,,0.00,WeatherDisplay:10.36,2013-10-07 04:38:00,
2013-10-06 23:39:00,51.6,45.7,29.88,NE,45,0.0,0.0,80,0.00,,,0.00,WeatherDisplay:10.36,2013-10-07 04:39:00,
2013-10-06 23:40:00,51.6,45.7,29.88,NE,47,0.0,2.7,80,0.00,,,0.00,WeatherDisplay:10.36,2013-10-07 04:40:00,
2013-10-06 23:41:00,51.4,45.5,29.88,NE,45,0.0,0.0,80,0.00,,,0.00,WeatherDisplay:10.36,2013-10-07 04:41:00,
2013-10-06 23:42:00,51.4,45.5,29.88,NE,46,4.0,0.0,80,0.00,,,0.00,WeatherDisplay:10.36,2013-10-07 04:42:00,
2013-10-06 23:44:00,51.4,45.5,29.88,NE,45,3.5,0.0,80,0.00,,,0.00,WeatherDisplay:10.36,2013-10-07 04:44:00,
2013-10-06 23:45:00,51.4,45.5,29.88,NE,50,0.0,0.0,80,0.00,,,0.00,WeatherDisplay:10.36,2013-10-07 04:45:00,
2013-10-06 23:46:00,51.4,45.5,29.88,NE,47,3.6,0.0,80,0.00,,,0.00,WeatherDisplay:10.36,2013-10-07 04:46:00,
2013-10-06 23:47:00,51.6,45.7,29.88,NE,50,4.0,4.0,80,0.00,,,0.00,WeatherDisplay:10.36,2013-10-07 04:47:00,
2013-10-06 23:48:00,51.6,45.7,29.88,NE,48,3.6,0.0,80,0.00,,,0.00,WeatherDisplay:10.36,2013-10-07 04:48:00,
2013-10-06 23:49:00,51.6,45.7,29.88,NE,46,3.5,0.0,80,0.00,,,0.00,WeatherDisplay:10.36,2013-10-07 04:49:00,
2013-10-06 23:50:00,51.6,45.7,29.88,NE,46,0.0,0.0,80,0.00,,,0.00,WeatherDisplay:10.36,2013-10-07 04:50:00,
2013-10-06 23:52:00,51.6,45.7,29.88,NE,48,0.0,0.0,80,0.00,,,0.00,WeatherDisplay:10.36,2013-10-07 04:52:00,
2013-10-06 23:53:00,51.6,45.7,29.88,NE,47,4.0,0.0,80,0.00,,,0.00,WeatherDisplay:10.36,2013-10-07 04:53:00,
2013-10-06 23:54:00,51.6,45.7,29.88,NE,45,0.0,0.0,80,0.00,,,0.00,WeatherDisplay:10.36,2013-10-07 04:54:00,
2013-10-06 23:55:00,51.6,45.7,29.88,NE,48,3.6,0.0,80,0.00,,,0.00,WeatherDisplay:10.36,2013-10-07 04:55:00,
2013-10-06 23:56:00,51.6,45.7,29.88,NE,46,3.5,3.5,80,0.00,,,0.00,WeatherDisplay:10.36,2013-10-07 04:56:00,
2013-10-06 23:57:00,51.6,45.7,29.88,NE,49,2.3,0.0,80,0.00,,,0.00,WeatherDisplay:10.36,2013-10-07 04:57:00,
2013-10-06 23:59:00,51.6,45.7,29.88,North,351,4.6,0.0,80,0.00,,,0.00,WeatherDisplay:10.36,2013-10-07 04:59:00,